<?xml version="1.0" encoding="UTF-8" standalone="no" ?>
<gpx xmlns="http://www.topografix.com/GPX/1/1" xmlns:xsi="http://www.w3.org/2001/XMLSchema-instance" xsi:schemaLocation="http://www.topografix.com/GPX/1/1 http://www.topografix.com/GPX/1/1/gpx.xsd" version="1.1" creator="VisuGPX - https://www.visugpx.com">
  <metadata>
    <name>ski 4 TETES</name>
    <desc><![CDATA[
]]></desc>
  </metadata>
  <trk>
    <name><![CDATA[ski 4 TETES]]></name>
    <trkseg>
      <trkpt lat="45.95702" lon="6.61037">
        <ele>953.59997558594</ele>
        <time>2010-12-31T08:53:10.000Z</time>
      </trkpt>
      <trkpt lat="45.95713" lon="6.61022">
        <ele>954.59997558594</ele>
        <time>2010-12-31T08:53:53.000Z</time>
      </trkpt>
      <trkpt lat="45.95724" lon="6.61012">
        <ele>954.59997558594</ele>
        <time>2010-12-31T08:54:01.000Z</time>
      </trkpt>
      <trkpt lat="45.95738" lon="6.61005">
        <ele>955</ele>
        <time>2010-12-31T08:54:11.000Z</time>
      </trkpt>
      <trkpt lat="45.9575" lon="6.61001">
        <ele>955.40002441406</ele>
        <time>2010-12-31T08:54:19.000Z</time>
      </trkpt>
      <trkpt lat="45.95764" lon="6.60999">
        <ele>955.79998779297</ele>
        <time>2010-12-31T08:54:28.000Z</time>
      </trkpt>
      <trkpt lat="45.95774" lon="6.60995">
        <ele>956.40002441406</ele>
        <time>2010-12-31T08:54:35.000Z</time>
      </trkpt>
      <trkpt lat="45.95784" lon="6.60988">
        <ele>958.20001220703</ele>
        <time>2010-12-31T08:54:43.000Z</time>
      </trkpt>
      <trkpt lat="45.95791" lon="6.60982">
        <ele>959.59997558594</ele>
        <time>2010-12-31T08:54:50.000Z</time>
      </trkpt>
      <trkpt lat="45.95792" lon="6.60982">
        <ele>959.79998779297</ele>
        <time>2010-12-31T08:54:51.000Z</time>
      </trkpt>
      <trkpt lat="45.95801" lon="6.60977">
        <ele>961.20001220703</ele>
        <time>2010-12-31T08:54:59.000Z</time>
      </trkpt>
      <trkpt lat="45.95805" lon="6.60974">
        <ele>961.79998779297</ele>
        <time>2010-12-31T08:55:02.000Z</time>
      </trkpt>
      <trkpt lat="45.95817" lon="6.60963">
        <ele>964.40002441406</ele>
        <time>2010-12-31T08:55:13.000Z</time>
      </trkpt>
      <trkpt lat="45.95829" lon="6.60952">
        <ele>966.79998779297</ele>
        <time>2010-12-31T08:55:24.000Z</time>
      </trkpt>
      <trkpt lat="45.9584" lon="6.60944">
        <ele>968.40002441406</ele>
        <time>2010-12-31T08:55:33.000Z</time>
      </trkpt>
      <trkpt lat="45.95851" lon="6.60936">
        <ele>970</ele>
        <time>2010-12-31T08:55:42.000Z</time>
      </trkpt>
      <trkpt lat="45.9586" lon="6.60929">
        <ele>972</ele>
        <time>2010-12-31T08:55:51.000Z</time>
      </trkpt>
      <trkpt lat="45.95866" lon="6.6092">
        <ele>974</ele>
        <time>2010-12-31T08:55:59.000Z</time>
      </trkpt>
      <trkpt lat="45.95873" lon="6.60907">
        <ele>976.59997558594</ele>
        <time>2010-12-31T08:56:09.000Z</time>
      </trkpt>
      <trkpt lat="45.95879" lon="6.60898">
        <ele>978.79998779297</ele>
        <time>2010-12-31T08:56:17.000Z</time>
      </trkpt>
      <trkpt lat="45.95885" lon="6.60886">
        <ele>981.40002441406</ele>
        <time>2010-12-31T08:56:27.000Z</time>
      </trkpt>
      <trkpt lat="45.9589" lon="6.60876">
        <ele>983.79998779297</ele>
        <time>2010-12-31T08:56:35.000Z</time>
      </trkpt>
      <trkpt lat="45.95894" lon="6.60866">
        <ele>986</ele>
        <time>2010-12-31T08:56:43.000Z</time>
      </trkpt>
      <trkpt lat="45.95901" lon="6.60859">
        <ele>988.79998779297</ele>
        <time>2010-12-31T08:56:52.000Z</time>
      </trkpt>
      <trkpt lat="45.95906" lon="6.60858">
        <ele>990.79998779297</ele>
        <time>2010-12-31T08:56:59.000Z</time>
      </trkpt>
      <trkpt lat="45.9591" lon="6.60851">
        <ele>992.79998779297</ele>
        <time>2010-12-31T08:57:05.000Z</time>
      </trkpt>
      <trkpt lat="45.95914" lon="6.60838">
        <ele>995.79998779297</ele>
        <time>2010-12-31T08:57:15.000Z</time>
      </trkpt>
      <trkpt lat="45.95916" lon="6.60828">
        <ele>998</ele>
        <time>2010-12-31T08:57:22.000Z</time>
      </trkpt>
      <trkpt lat="45.9592" lon="6.60816">
        <ele>1000</ele>
        <time>2010-12-31T08:57:30.000Z</time>
      </trkpt>
      <trkpt lat="45.95922" lon="6.60805">
        <ele>1002</ele>
        <time>2010-12-31T08:57:38.000Z</time>
      </trkpt>
      <trkpt lat="45.95922" lon="6.60798">
        <ele>1003.4000244141</ele>
        <time>2010-12-31T08:57:44.000Z</time>
      </trkpt>
      <trkpt lat="45.95922" lon="6.60789">
        <ele>1005</ele>
        <time>2010-12-31T08:57:51.000Z</time>
      </trkpt>
      <trkpt lat="45.9592" lon="6.60783">
        <ele>1006.5999755859</ele>
        <time>2010-12-31T08:57:57.000Z</time>
      </trkpt>
      <trkpt lat="45.95924" lon="6.60769">
        <ele>1008.799987793</ele>
        <time>2010-12-31T08:58:05.000Z</time>
      </trkpt>
      <trkpt lat="45.95926" lon="6.60758">
        <ele>1011.200012207</ele>
        <time>2010-12-31T08:58:14.000Z</time>
      </trkpt>
      <trkpt lat="45.9593" lon="6.6075">
        <ele>1013</ele>
        <time>2010-12-31T08:58:24.000Z</time>
      </trkpt>
      <trkpt lat="45.95933" lon="6.60739">
        <ele>1015.799987793</ele>
        <time>2010-12-31T08:58:33.000Z</time>
      </trkpt>
      <trkpt lat="45.95936" lon="6.60726">
        <ele>1019</ele>
        <time>2010-12-31T08:58:44.000Z</time>
      </trkpt>
      <trkpt lat="45.95938" lon="6.60717">
        <ele>1021.200012207</ele>
        <time>2010-12-31T08:58:52.000Z</time>
      </trkpt>
      <trkpt lat="45.95945" lon="6.60706">
        <ele>1024</ele>
        <time>2010-12-31T08:59:02.000Z</time>
      </trkpt>
      <trkpt lat="45.95954" lon="6.60696">
        <ele>1026.5999755859</ele>
        <time>2010-12-31T08:59:13.000Z</time>
      </trkpt>
      <trkpt lat="45.95962" lon="6.60689">
        <ele>1028.1999511719</ele>
        <time>2010-12-31T08:59:21.000Z</time>
      </trkpt>
      <trkpt lat="45.9597" lon="6.60681">
        <ele>1030.1999511719</ele>
        <time>2010-12-31T08:59:30.000Z</time>
      </trkpt>
      <trkpt lat="45.95977" lon="6.60674">
        <ele>1032.1999511719</ele>
        <time>2010-12-31T08:59:38.000Z</time>
      </trkpt>
      <trkpt lat="45.95983" lon="6.60669">
        <ele>1034.4000244141</ele>
        <time>2010-12-31T08:59:46.000Z</time>
      </trkpt>
      <trkpt lat="45.95989" lon="6.60662">
        <ele>1037</ele>
        <time>2010-12-31T08:59:55.000Z</time>
      </trkpt>
      <trkpt lat="45.95995" lon="6.60656">
        <ele>1039.1999511719</ele>
        <time>2010-12-31T09:00:03.000Z</time>
      </trkpt>
      <trkpt lat="45.96001" lon="6.60648">
        <ele>1041.8000488281</ele>
        <time>2010-12-31T09:00:12.000Z</time>
      </trkpt>
      <trkpt lat="45.96007" lon="6.60641">
        <ele>1044.5999755859</ele>
        <time>2010-12-31T09:00:21.000Z</time>
      </trkpt>
      <trkpt lat="45.96012" lon="6.60634">
        <ele>1047</ele>
        <time>2010-12-31T09:00:29.000Z</time>
      </trkpt>
      <trkpt lat="45.96014" lon="6.60626">
        <ele>1048.8000488281</ele>
        <time>2010-12-31T09:00:36.000Z</time>
      </trkpt>
      <trkpt lat="45.96019" lon="6.60618">
        <ele>1050</ele>
        <time>2010-12-31T09:00:43.000Z</time>
      </trkpt>
      <trkpt lat="45.96019" lon="6.60617">
        <ele>1050.1999511719</ele>
        <time>2010-12-31T09:00:44.000Z</time>
      </trkpt>
      <trkpt lat="45.96024" lon="6.60612">
        <ele>1051.4000244141</ele>
        <time>2010-12-31T09:00:50.000Z</time>
      </trkpt>
      <trkpt lat="45.9603" lon="6.60602">
        <ele>1053.5999755859</ele>
        <time>2010-12-31T09:00:59.000Z</time>
      </trkpt>
      <trkpt lat="45.96033" lon="6.60593">
        <ele>1054.5999755859</ele>
        <time>2010-12-31T09:01:06.000Z</time>
      </trkpt>
      <trkpt lat="45.96037" lon="6.60588">
        <ele>1055.1999511719</ele>
        <time>2010-12-31T09:01:12.000Z</time>
      </trkpt>
      <trkpt lat="45.96046" lon="6.60576">
        <ele>1056.8000488281</ele>
        <time>2010-12-31T09:01:20.000Z</time>
      </trkpt>
      <trkpt lat="45.9605" lon="6.60569">
        <ele>1058.1999511719</ele>
        <time>2010-12-31T09:01:26.000Z</time>
      </trkpt>
      <trkpt lat="45.96054" lon="6.60564">
        <ele>1059.5999755859</ele>
        <time>2010-12-31T09:01:31.000Z</time>
      </trkpt>
      <trkpt lat="45.96055" lon="6.60558">
        <ele>1061</ele>
        <time>2010-12-31T09:01:36.000Z</time>
      </trkpt>
      <trkpt lat="45.96056" lon="6.6055">
        <ele>1062.5999755859</ele>
        <time>2010-12-31T09:01:42.000Z</time>
      </trkpt>
      <trkpt lat="45.96056" lon="6.60548">
        <ele>1063.1999511719</ele>
        <time>2010-12-31T09:01:44.000Z</time>
      </trkpt>
      <trkpt lat="45.96064" lon="6.60534">
        <ele>1065.5999755859</ele>
        <time>2010-12-31T09:01:53.000Z</time>
      </trkpt>
      <trkpt lat="45.96066" lon="6.60527">
        <ele>1067</ele>
        <time>2010-12-31T09:01:59.000Z</time>
      </trkpt>
      <trkpt lat="45.96066" lon="6.60526">
        <ele>1067.1999511719</ele>
        <time>2010-12-31T09:02:00.000Z</time>
      </trkpt>
      <trkpt lat="45.96067" lon="6.60526">
        <ele>1071.8000488281</ele>
        <time>2010-12-31T09:03:26.000Z</time>
      </trkpt>
      <trkpt lat="45.96071" lon="6.60522">
        <ele>1072.8000488281</ele>
        <time>2010-12-31T09:03:30.000Z</time>
      </trkpt>
      <trkpt lat="45.96074" lon="6.60515">
        <ele>1074.4000244141</ele>
        <time>2010-12-31T09:03:35.000Z</time>
      </trkpt>
      <trkpt lat="45.96075" lon="6.60511">
        <ele>1075.1999511719</ele>
        <time>2010-12-31T09:03:38.000Z</time>
      </trkpt>
      <trkpt lat="45.96078" lon="6.60507">
        <ele>1075.8000488281</ele>
        <time>2010-12-31T09:03:41.000Z</time>
      </trkpt>
      <trkpt lat="45.96084" lon="6.60493">
        <ele>1078.5999755859</ele>
        <time>2010-12-31T09:03:51.000Z</time>
      </trkpt>
      <trkpt lat="45.96088" lon="6.60485">
        <ele>1080.5999755859</ele>
        <time>2010-12-31T09:03:58.000Z</time>
      </trkpt>
      <trkpt lat="45.96091" lon="6.60478">
        <ele>1081.4000244141</ele>
        <time>2010-12-31T09:04:04.000Z</time>
      </trkpt>
      <trkpt lat="45.96098" lon="6.6047">
        <ele>1082.1999511719</ele>
        <time>2010-12-31T09:04:11.000Z</time>
      </trkpt>
      <trkpt lat="45.96099" lon="6.60469">
        <ele>1082.4000244141</ele>
        <time>2010-12-31T09:04:12.000Z</time>
      </trkpt>
      <trkpt lat="45.96105" lon="6.60459">
        <ele>1084.1999511719</ele>
        <time>2010-12-31T09:04:21.000Z</time>
      </trkpt>
      <trkpt lat="45.96112" lon="6.60451">
        <ele>1085.1999511719</ele>
        <time>2010-12-31T09:04:27.000Z</time>
      </trkpt>
      <trkpt lat="45.96118" lon="6.60442">
        <ele>1086.1999511719</ele>
        <time>2010-12-31T09:04:33.000Z</time>
      </trkpt>
      <trkpt lat="45.96125" lon="6.6043">
        <ele>1087.8000488281</ele>
        <time>2010-12-31T09:04:42.000Z</time>
      </trkpt>
      <trkpt lat="45.96131" lon="6.60416">
        <ele>1090.1999511719</ele>
        <time>2010-12-31T09:04:52.000Z</time>
      </trkpt>
      <trkpt lat="45.96136" lon="6.60404">
        <ele>1092.1999511719</ele>
        <time>2010-12-31T09:05:00.000Z</time>
      </trkpt>
      <trkpt lat="45.9614" lon="6.60391">
        <ele>1094</ele>
        <time>2010-12-31T09:05:08.000Z</time>
      </trkpt>
      <trkpt lat="45.96141" lon="6.6038">
        <ele>1095.4000244141</ele>
        <time>2010-12-31T09:05:15.000Z</time>
      </trkpt>
      <trkpt lat="45.96142" lon="6.60367">
        <ele>1096.8000488281</ele>
        <time>2010-12-31T09:05:22.000Z</time>
      </trkpt>
      <trkpt lat="45.96143" lon="6.60355">
        <ele>1098.4000244141</ele>
        <time>2010-12-31T09:05:29.000Z</time>
      </trkpt>
      <trkpt lat="45.96146" lon="6.60341">
        <ele>1100.1999511719</ele>
        <time>2010-12-31T09:05:37.000Z</time>
      </trkpt>
      <trkpt lat="45.96148" lon="6.60325">
        <ele>1102.4000244141</ele>
        <time>2010-12-31T09:05:47.000Z</time>
      </trkpt>
      <trkpt lat="45.9615" lon="6.60313">
        <ele>1104.1999511719</ele>
        <time>2010-12-31T09:05:55.000Z</time>
      </trkpt>
      <trkpt lat="45.9615" lon="6.60299">
        <ele>1106.4000244141</ele>
        <time>2010-12-31T09:06:04.000Z</time>
      </trkpt>
      <trkpt lat="45.96149" lon="6.60288">
        <ele>1108.1999511719</ele>
        <time>2010-12-31T09:06:11.000Z</time>
      </trkpt>
      <trkpt lat="45.96148" lon="6.60272">
        <ele>1110.8000488281</ele>
        <time>2010-12-31T09:06:21.000Z</time>
      </trkpt>
      <trkpt lat="45.96151" lon="6.6026">
        <ele>1112.8000488281</ele>
        <time>2010-12-31T09:06:30.000Z</time>
      </trkpt>
      <trkpt lat="45.96156" lon="6.60253">
        <ele>1114.4000244141</ele>
        <time>2010-12-31T09:06:37.000Z</time>
      </trkpt>
      <trkpt lat="45.96163" lon="6.60247">
        <ele>1116.4000244141</ele>
        <time>2010-12-31T09:06:46.000Z</time>
      </trkpt>
      <trkpt lat="45.96172" lon="6.60245">
        <ele>1118.1999511719</ele>
        <time>2010-12-31T09:06:55.000Z</time>
      </trkpt>
      <trkpt lat="45.9618" lon="6.60245">
        <ele>1119.8000488281</ele>
        <time>2010-12-31T09:07:03.000Z</time>
      </trkpt>
      <trkpt lat="45.96187" lon="6.60243">
        <ele>1121.8000488281</ele>
        <time>2010-12-31T09:07:11.000Z</time>
      </trkpt>
      <trkpt lat="45.96194" lon="6.60237">
        <ele>1123.5999755859</ele>
        <time>2010-12-31T09:07:18.000Z</time>
      </trkpt>
      <trkpt lat="45.962" lon="6.60229">
        <ele>1125</ele>
        <time>2010-12-31T09:07:25.000Z</time>
      </trkpt>
      <trkpt lat="45.96206" lon="6.60219">
        <ele>1126.5999755859</ele>
        <time>2010-12-31T09:07:33.000Z</time>
      </trkpt>
      <trkpt lat="45.96207" lon="6.60216">
        <ele>1126.8000488281</ele>
        <time>2010-12-31T09:07:36.000Z</time>
      </trkpt>
      <trkpt lat="45.96211" lon="6.60209">
        <ele>1127.5999755859</ele>
        <time>2010-12-31T09:07:42.000Z</time>
      </trkpt>
      <trkpt lat="45.96214" lon="6.60204">
        <ele>1129</ele>
        <time>2010-12-31T09:07:48.000Z</time>
      </trkpt>
      <trkpt lat="45.96216" lon="6.60203">
        <ele>1129.1999511719</ele>
        <time>2010-12-31T09:07:50.000Z</time>
      </trkpt>
      <trkpt lat="45.96222" lon="6.60197">
        <ele>1130.8000488281</ele>
        <time>2010-12-31T09:07:57.000Z</time>
      </trkpt>
      <trkpt lat="45.96224" lon="6.6019">
        <ele>1132.5999755859</ele>
        <time>2010-12-31T09:08:03.000Z</time>
      </trkpt>
      <trkpt lat="45.96224" lon="6.60189">
        <ele>1132.8000488281</ele>
        <time>2010-12-31T09:08:04.000Z</time>
      </trkpt>
      <trkpt lat="45.96223" lon="6.60178">
        <ele>1134.5999755859</ele>
        <time>2010-12-31T09:08:12.000Z</time>
      </trkpt>
      <trkpt lat="45.96219" lon="6.60174">
        <ele>1135.5999755859</ele>
        <time>2010-12-31T09:08:16.000Z</time>
      </trkpt>
      <trkpt lat="45.96217" lon="6.6017">
        <ele>1136</ele>
        <time>2010-12-31T09:08:18.000Z</time>
      </trkpt>
      <trkpt lat="45.96213" lon="6.60167">
        <ele>1137</ele>
        <time>2010-12-31T09:08:22.000Z</time>
      </trkpt>
      <trkpt lat="45.96206" lon="6.60167">
        <ele>1138.1999511719</ele>
        <time>2010-12-31T09:08:27.000Z</time>
      </trkpt>
      <trkpt lat="45.96199" lon="6.60166">
        <ele>1139.4000244141</ele>
        <time>2010-12-31T09:08:34.000Z</time>
      </trkpt>
      <trkpt lat="45.96194" lon="6.60167">
        <ele>1140.4000244141</ele>
        <time>2010-12-31T09:08:38.000Z</time>
      </trkpt>
      <trkpt lat="45.96185" lon="6.60167">
        <ele>1141.4000244141</ele>
        <time>2010-12-31T09:08:45.000Z</time>
      </trkpt>
      <trkpt lat="45.9618" lon="6.60165">
        <ele>1142</ele>
        <time>2010-12-31T09:08:49.000Z</time>
      </trkpt>
      <trkpt lat="45.96175" lon="6.60161">
        <ele>1143</ele>
        <time>2010-12-31T09:08:56.000Z</time>
      </trkpt>
      <trkpt lat="45.96175" lon="6.60161">
        <ele>1143.1999511719</ele>
        <time>2010-12-31T09:08:58.000Z</time>
      </trkpt>
      <trkpt lat="45.96172" lon="6.60161">
        <ele>1143.8000488281</ele>
        <time>2010-12-31T09:09:03.000Z</time>
      </trkpt>
      <trkpt lat="45.96169" lon="6.6016">
        <ele>1144.1999511719</ele>
        <time>2010-12-31T09:09:06.000Z</time>
      </trkpt>
      <trkpt lat="45.96165" lon="6.60158">
        <ele>1145.4000244141</ele>
        <time>2010-12-31T09:09:12.000Z</time>
      </trkpt>
      <trkpt lat="45.9616" lon="6.60153">
        <ele>1146.8000488281</ele>
        <time>2010-12-31T09:09:19.000Z</time>
      </trkpt>
      <trkpt lat="45.96159" lon="6.6015">
        <ele>1147.5999755859</ele>
        <time>2010-12-31T09:09:22.000Z</time>
      </trkpt>
      <trkpt lat="45.96165" lon="6.6014">
        <ele>1149.4000244141</ele>
        <time>2010-12-31T09:09:31.000Z</time>
      </trkpt>
      <trkpt lat="45.96172" lon="6.60136">
        <ele>1150.8000488281</ele>
        <time>2010-12-31T09:09:39.000Z</time>
      </trkpt>
      <trkpt lat="45.96173" lon="6.60136">
        <ele>1151</ele>
        <time>2010-12-31T09:09:40.000Z</time>
      </trkpt>
      <trkpt lat="45.96179" lon="6.60132">
        <ele>1151.8000488281</ele>
        <time>2010-12-31T09:09:49.000Z</time>
      </trkpt>
      <trkpt lat="45.96186" lon="6.60126">
        <ele>1153.4000244141</ele>
        <time>2010-12-31T09:09:58.000Z</time>
      </trkpt>
      <trkpt lat="45.96192" lon="6.60123">
        <ele>1154.8000488281</ele>
        <time>2010-12-31T09:10:06.000Z</time>
      </trkpt>
      <trkpt lat="45.96197" lon="6.6012">
        <ele>1156.1999511719</ele>
        <time>2010-12-31T09:10:15.000Z</time>
      </trkpt>
      <trkpt lat="45.96202" lon="6.60114">
        <ele>1157.8000488281</ele>
        <time>2010-12-31T09:10:23.000Z</time>
      </trkpt>
      <trkpt lat="45.96207" lon="6.60106">
        <ele>1159.1999511719</ele>
        <time>2010-12-31T09:10:30.000Z</time>
      </trkpt>
      <trkpt lat="45.96208" lon="6.60105">
        <ele>1159.4000244141</ele>
        <time>2010-12-31T09:10:31.000Z</time>
      </trkpt>
      <trkpt lat="45.96211" lon="6.60099">
        <ele>1160.4000244141</ele>
        <time>2010-12-31T09:10:37.000Z</time>
      </trkpt>
      <trkpt lat="45.96218" lon="6.60096">
        <ele>1161.8000488281</ele>
        <time>2010-12-31T09:10:45.000Z</time>
      </trkpt>
      <trkpt lat="45.96223" lon="6.60091">
        <ele>1162.8000488281</ele>
        <time>2010-12-31T09:10:51.000Z</time>
      </trkpt>
      <trkpt lat="45.96224" lon="6.6009">
        <ele>1163.4000244141</ele>
        <time>2010-12-31T09:10:53.000Z</time>
      </trkpt>
      <trkpt lat="45.96228" lon="6.60085">
        <ele>1164.5999755859</ele>
        <time>2010-12-31T09:10:58.000Z</time>
      </trkpt>
      <trkpt lat="45.9623" lon="6.60082">
        <ele>1165.1999511719</ele>
        <time>2010-12-31T09:11:01.000Z</time>
      </trkpt>
      <trkpt lat="45.96235" lon="6.60076">
        <ele>1166</ele>
        <time>2010-12-31T09:11:06.000Z</time>
      </trkpt>
      <trkpt lat="45.96239" lon="6.60071">
        <ele>1167</ele>
        <time>2010-12-31T09:11:11.000Z</time>
      </trkpt>
      <trkpt lat="45.96242" lon="6.60064">
        <ele>1167.5999755859</ele>
        <time>2010-12-31T09:11:15.000Z</time>
      </trkpt>
      <trkpt lat="45.96244" lon="6.60055">
        <ele>1168.1999511719</ele>
        <time>2010-12-31T09:11:20.000Z</time>
      </trkpt>
      <trkpt lat="45.96252" lon="6.60042">
        <ele>1168.8000488281</ele>
        <time>2010-12-31T09:11:28.000Z</time>
      </trkpt>
      <trkpt lat="45.96259" lon="6.60037">
        <ele>1169</ele>
        <time>2010-12-31T09:11:34.000Z</time>
      </trkpt>
      <trkpt lat="45.96273" lon="6.60028">
        <ele>1169.4000244141</ele>
        <time>2010-12-31T09:11:42.000Z</time>
      </trkpt>
      <trkpt lat="45.96279" lon="6.60022">
        <ele>1169.8000488281</ele>
        <time>2010-12-31T09:11:49.000Z</time>
      </trkpt>
      <trkpt lat="45.96286" lon="6.60017">
        <ele>1170.8000488281</ele>
        <time>2010-12-31T09:11:56.000Z</time>
      </trkpt>
      <trkpt lat="45.9629" lon="6.60013">
        <ele>1171.8000488281</ele>
        <time>2010-12-31T09:12:01.000Z</time>
      </trkpt>
      <trkpt lat="45.96291" lon="6.60013">
        <ele>1172</ele>
        <time>2010-12-31T09:12:02.000Z</time>
      </trkpt>
      <trkpt lat="45.96297" lon="6.60006">
        <ele>1173.4000244141</ele>
        <time>2010-12-31T09:12:09.000Z</time>
      </trkpt>
      <trkpt lat="45.96305" lon="6.60002">
        <ele>1175.1999511719</ele>
        <time>2010-12-31T09:12:17.000Z</time>
      </trkpt>
      <trkpt lat="45.96309" lon="6.6">
        <ele>1176.1999511719</ele>
        <time>2010-12-31T09:12:21.000Z</time>
      </trkpt>
      <trkpt lat="45.96315" lon="6.59996">
        <ele>1178.1999511719</ele>
        <time>2010-12-31T09:12:29.000Z</time>
      </trkpt>
      <trkpt lat="45.96318" lon="6.59995">
        <ele>1179.5999755859</ele>
        <time>2010-12-31T09:12:33.000Z</time>
      </trkpt>
      <trkpt lat="45.96324" lon="6.59993">
        <ele>1181</ele>
        <time>2010-12-31T09:12:40.000Z</time>
      </trkpt>
      <trkpt lat="45.96331" lon="6.59988">
        <ele>1182.8000488281</ele>
        <time>2010-12-31T09:12:48.000Z</time>
      </trkpt>
      <trkpt lat="45.9634" lon="6.59982">
        <ele>1184</ele>
        <time>2010-12-31T09:12:56.000Z</time>
      </trkpt>
      <trkpt lat="45.96348" lon="6.59975">
        <ele>1184.8000488281</ele>
        <time>2010-12-31T09:13:03.000Z</time>
      </trkpt>
      <trkpt lat="45.96355" lon="6.59967">
        <ele>1185.5999755859</ele>
        <time>2010-12-31T09:13:10.000Z</time>
      </trkpt>
      <trkpt lat="45.9636" lon="6.59961">
        <ele>1186.1999511719</ele>
        <time>2010-12-31T09:13:16.000Z</time>
      </trkpt>
      <trkpt lat="45.96366" lon="6.59954">
        <ele>1187.4000244141</ele>
        <time>2010-12-31T09:13:23.000Z</time>
      </trkpt>
      <trkpt lat="45.96372" lon="6.59949">
        <ele>1188.1999511719</ele>
        <time>2010-12-31T09:13:29.000Z</time>
      </trkpt>
      <trkpt lat="45.9638" lon="6.59943">
        <ele>1190</ele>
        <time>2010-12-31T09:13:38.000Z</time>
      </trkpt>
      <trkpt lat="45.96388" lon="6.59941">
        <ele>1191.5999755859</ele>
        <time>2010-12-31T09:13:46.000Z</time>
      </trkpt>
      <trkpt lat="45.96395" lon="6.59937">
        <ele>1193</ele>
        <time>2010-12-31T09:13:54.000Z</time>
      </trkpt>
      <trkpt lat="45.96403" lon="6.59931">
        <ele>1194.8000488281</ele>
        <time>2010-12-31T09:14:02.000Z</time>
      </trkpt>
      <trkpt lat="45.96407" lon="6.59927">
        <ele>1195.8000488281</ele>
        <time>2010-12-31T09:14:07.000Z</time>
      </trkpt>
      <trkpt lat="45.96412" lon="6.59923">
        <ele>1196.8000488281</ele>
        <time>2010-12-31T09:14:13.000Z</time>
      </trkpt>
      <trkpt lat="45.96417" lon="6.59919">
        <ele>1197.8000488281</ele>
        <time>2010-12-31T09:14:18.000Z</time>
      </trkpt>
      <trkpt lat="45.96421" lon="6.59917">
        <ele>1198.5999755859</ele>
        <time>2010-12-31T09:14:22.000Z</time>
      </trkpt>
      <trkpt lat="45.96427" lon="6.59911">
        <ele>1200.1999511719</ele>
        <time>2010-12-31T09:14:30.000Z</time>
      </trkpt>
      <trkpt lat="45.96428" lon="6.5991">
        <ele>1200.4000244141</ele>
        <time>2010-12-31T09:14:31.000Z</time>
      </trkpt>
      <trkpt lat="45.96435" lon="6.59904">
        <ele>1201.5999755859</ele>
        <time>2010-12-31T09:14:40.000Z</time>
      </trkpt>
      <trkpt lat="45.96436" lon="6.59903">
        <ele>1201.8000488281</ele>
        <time>2010-12-31T09:14:41.000Z</time>
      </trkpt>
      <trkpt lat="45.96443" lon="6.59899">
        <ele>1203</ele>
        <time>2010-12-31T09:14:49.000Z</time>
      </trkpt>
      <trkpt lat="45.96447" lon="6.59896">
        <ele>1203.8000488281</ele>
        <time>2010-12-31T09:14:53.000Z</time>
      </trkpt>
      <trkpt lat="45.96453" lon="6.59892">
        <ele>1205</ele>
        <time>2010-12-31T09:14:59.000Z</time>
      </trkpt>
      <trkpt lat="45.96458" lon="6.59889">
        <ele>1206.1999511719</ele>
        <time>2010-12-31T09:15:05.000Z</time>
      </trkpt>
      <trkpt lat="45.96464" lon="6.59888">
        <ele>1206.5999755859</ele>
        <time>2010-12-31T09:15:30.000Z</time>
      </trkpt>
      <trkpt lat="45.96465" lon="6.59887">
        <ele>1206.8000488281</ele>
        <time>2010-12-31T09:15:31.000Z</time>
      </trkpt>
      <trkpt lat="45.96472" lon="6.59884">
        <ele>1208</ele>
        <time>2010-12-31T09:15:38.000Z</time>
      </trkpt>
      <trkpt lat="45.96481" lon="6.59878">
        <ele>1209.5999755859</ele>
        <time>2010-12-31T09:15:47.000Z</time>
      </trkpt>
      <trkpt lat="45.96487" lon="6.59874">
        <ele>1211.5999755859</ele>
        <time>2010-12-31T09:15:55.000Z</time>
      </trkpt>
      <trkpt lat="45.96491" lon="6.59871">
        <ele>1213.4000244141</ele>
        <time>2010-12-31T09:16:01.000Z</time>
      </trkpt>
      <trkpt lat="45.96497" lon="6.5987">
        <ele>1215.5999755859</ele>
        <time>2010-12-31T09:16:09.000Z</time>
      </trkpt>
      <trkpt lat="45.96504" lon="6.59868">
        <ele>1218.1999511719</ele>
        <time>2010-12-31T09:16:18.000Z</time>
      </trkpt>
      <trkpt lat="45.96512" lon="6.59869">
        <ele>1221</ele>
        <time>2010-12-31T09:16:28.000Z</time>
      </trkpt>
      <trkpt lat="45.96518" lon="6.59871">
        <ele>1223.1999511719</ele>
        <time>2010-12-31T09:16:36.000Z</time>
      </trkpt>
      <trkpt lat="45.96526" lon="6.59872">
        <ele>1225.5999755859</ele>
        <time>2010-12-31T09:16:46.000Z</time>
      </trkpt>
      <trkpt lat="45.96533" lon="6.59872">
        <ele>1227.4000244141</ele>
        <time>2010-12-31T09:16:54.000Z</time>
      </trkpt>
      <trkpt lat="45.96541" lon="6.59868">
        <ele>1229.5999755859</ele>
        <time>2010-12-31T09:17:04.000Z</time>
      </trkpt>
      <trkpt lat="45.96546" lon="6.59862">
        <ele>1231.1999511719</ele>
        <time>2010-12-31T09:17:11.000Z</time>
      </trkpt>
      <trkpt lat="45.96547" lon="6.59862">
        <ele>1231.5999755859</ele>
        <time>2010-12-31T09:17:13.000Z</time>
      </trkpt>
      <trkpt lat="45.96557" lon="6.59862">
        <ele>1232.4000244141</ele>
        <time>2010-12-31T09:17:22.000Z</time>
      </trkpt>
      <trkpt lat="45.96564" lon="6.59863">
        <ele>1233.1999511719</ele>
        <time>2010-12-31T09:17:30.000Z</time>
      </trkpt>
      <trkpt lat="45.96571" lon="6.59864">
        <ele>1234.8000488281</ele>
        <time>2010-12-31T09:17:38.000Z</time>
      </trkpt>
      <trkpt lat="45.96578" lon="6.59862">
        <ele>1236.8000488281</ele>
        <time>2010-12-31T09:17:47.000Z</time>
      </trkpt>
      <trkpt lat="45.96584" lon="6.5986">
        <ele>1238.8000488281</ele>
        <time>2010-12-31T09:17:55.000Z</time>
      </trkpt>
      <trkpt lat="45.96591" lon="6.59859">
        <ele>1241</ele>
        <time>2010-12-31T09:18:04.000Z</time>
      </trkpt>
      <trkpt lat="45.96599" lon="6.59859">
        <ele>1243.4000244141</ele>
        <time>2010-12-31T09:18:14.000Z</time>
      </trkpt>
      <trkpt lat="45.96606" lon="6.59857">
        <ele>1245.1999511719</ele>
        <time>2010-12-31T09:18:23.000Z</time>
      </trkpt>
      <trkpt lat="45.96614" lon="6.5985">
        <ele>1247.4000244141</ele>
        <time>2010-12-31T09:18:33.000Z</time>
      </trkpt>
      <trkpt lat="45.9662" lon="6.59846">
        <ele>1249</ele>
        <time>2010-12-31T09:18:41.000Z</time>
      </trkpt>
      <trkpt lat="45.96625" lon="6.59843">
        <ele>1250.5999755859</ele>
        <time>2010-12-31T09:18:47.000Z</time>
      </trkpt>
      <trkpt lat="45.96626" lon="6.59843">
        <ele>1250.5999755859</ele>
        <time>2010-12-31T09:18:48.000Z</time>
      </trkpt>
      <trkpt lat="45.96631" lon="6.5984">
        <ele>1252.5999755859</ele>
        <time>2010-12-31T09:18:56.000Z</time>
      </trkpt>
      <trkpt lat="45.96634" lon="6.5984">
        <ele>1253.1999511719</ele>
        <time>2010-12-31T09:18:59.000Z</time>
      </trkpt>
      <trkpt lat="45.96642" lon="6.59837">
        <ele>1255</ele>
        <time>2010-12-31T09:19:08.000Z</time>
      </trkpt>
      <trkpt lat="45.96644" lon="6.59836">
        <ele>1255.8000488281</ele>
        <time>2010-12-31T09:19:12.000Z</time>
      </trkpt>
      <trkpt lat="45.96647" lon="6.59836">
        <ele>1257</ele>
        <time>2010-12-31T09:19:17.000Z</time>
      </trkpt>
      <trkpt lat="45.96651" lon="6.59835">
        <ele>1258</ele>
        <time>2010-12-31T09:19:22.000Z</time>
      </trkpt>
      <trkpt lat="45.96652" lon="6.59835">
        <ele>1258.1999511719</ele>
        <time>2010-12-31T09:19:23.000Z</time>
      </trkpt>
      <trkpt lat="45.96659" lon="6.59831">
        <ele>1259.8000488281</ele>
        <time>2010-12-31T09:19:30.000Z</time>
      </trkpt>
      <trkpt lat="45.96663" lon="6.59828">
        <ele>1260.8000488281</ele>
        <time>2010-12-31T09:19:35.000Z</time>
      </trkpt>
      <trkpt lat="45.96669" lon="6.59827">
        <ele>1262</ele>
        <time>2010-12-31T09:19:56.000Z</time>
      </trkpt>
      <trkpt lat="45.96674" lon="6.59827">
        <ele>1263.5999755859</ele>
        <time>2010-12-31T09:20:04.000Z</time>
      </trkpt>
      <trkpt lat="45.96676" lon="6.59824">
        <ele>1264.1999511719</ele>
        <time>2010-12-31T09:20:07.000Z</time>
      </trkpt>
      <trkpt lat="45.96684" lon="6.59819">
        <ele>1266.1999511719</ele>
        <time>2010-12-31T09:20:15.000Z</time>
      </trkpt>
      <trkpt lat="45.9669" lon="6.59814">
        <ele>1268</ele>
        <time>2010-12-31T09:20:23.000Z</time>
      </trkpt>
      <trkpt lat="45.96697" lon="6.59811">
        <ele>1270.5999755859</ele>
        <time>2010-12-31T09:20:33.000Z</time>
      </trkpt>
      <trkpt lat="45.96698" lon="6.59809">
        <ele>1271</ele>
        <time>2010-12-31T09:20:35.000Z</time>
      </trkpt>
      <trkpt lat="45.96698" lon="6.59804">
        <ele>1272</ele>
        <time>2010-12-31T09:20:39.000Z</time>
      </trkpt>
      <trkpt lat="45.96696" lon="6.59802">
        <ele>1272.4000244141</ele>
        <time>2010-12-31T09:20:42.000Z</time>
      </trkpt>
      <trkpt lat="45.96688" lon="6.59794">
        <ele>1274.4000244141</ele>
        <time>2010-12-31T09:20:50.000Z</time>
      </trkpt>
      <trkpt lat="45.96683" lon="6.59788">
        <ele>1275.5999755859</ele>
        <time>2010-12-31T09:20:57.000Z</time>
      </trkpt>
      <trkpt lat="45.96678" lon="6.59783">
        <ele>1276.8000488281</ele>
        <time>2010-12-31T09:21:03.000Z</time>
      </trkpt>
      <trkpt lat="45.96675" lon="6.59781">
        <ele>1277.8000488281</ele>
        <time>2010-12-31T09:21:07.000Z</time>
      </trkpt>
      <trkpt lat="45.96671" lon="6.59781">
        <ele>1278.8000488281</ele>
        <time>2010-12-31T09:21:13.000Z</time>
      </trkpt>
      <trkpt lat="45.96667" lon="6.59782">
        <ele>1279.8000488281</ele>
        <time>2010-12-31T09:21:18.000Z</time>
      </trkpt>
      <trkpt lat="45.96665" lon="6.59781">
        <ele>1280.4000244141</ele>
        <time>2010-12-31T09:21:20.000Z</time>
      </trkpt>
      <trkpt lat="45.96662" lon="6.5978">
        <ele>1280.5999755859</ele>
        <time>2010-12-31T09:21:22.000Z</time>
      </trkpt>
      <trkpt lat="45.96657" lon="6.59776">
        <ele>1282</ele>
        <time>2010-12-31T09:21:28.000Z</time>
      </trkpt>
      <trkpt lat="45.96655" lon="6.59776">
        <ele>1282.4000244141</ele>
        <time>2010-12-31T09:21:30.000Z</time>
      </trkpt>
      <trkpt lat="45.96651" lon="6.59773">
        <ele>1283.5999755859</ele>
        <time>2010-12-31T09:21:36.000Z</time>
      </trkpt>
      <trkpt lat="45.96647" lon="6.59772">
        <ele>1284.5999755859</ele>
        <time>2010-12-31T09:21:40.000Z</time>
      </trkpt>
      <trkpt lat="45.96641" lon="6.5977">
        <ele>1285.5999755859</ele>
        <time>2010-12-31T09:21:46.000Z</time>
      </trkpt>
      <trkpt lat="45.96636" lon="6.59766">
        <ele>1286.8000488281</ele>
        <time>2010-12-31T09:21:52.000Z</time>
      </trkpt>
      <trkpt lat="45.96635" lon="6.59764">
        <ele>1287.8000488281</ele>
        <time>2010-12-31T09:21:56.000Z</time>
      </trkpt>
      <trkpt lat="45.9663" lon="6.59758">
        <ele>1288.5999755859</ele>
        <time>2010-12-31T09:22:08.000Z</time>
      </trkpt>
      <trkpt lat="45.96626" lon="6.59755">
        <ele>1289.8000488281</ele>
        <time>2010-12-31T09:22:13.000Z</time>
      </trkpt>
      <trkpt lat="45.96622" lon="6.59753">
        <ele>1290.8000488281</ele>
        <time>2010-12-31T09:22:18.000Z</time>
      </trkpt>
      <trkpt lat="45.96616" lon="6.59748">
        <ele>1292.1999511719</ele>
        <time>2010-12-31T09:22:25.000Z</time>
      </trkpt>
      <trkpt lat="45.96612" lon="6.59741">
        <ele>1294</ele>
        <time>2010-12-31T09:22:33.000Z</time>
      </trkpt>
      <trkpt lat="45.96609" lon="6.59738">
        <ele>1295</ele>
        <time>2010-12-31T09:22:38.000Z</time>
      </trkpt>
      <trkpt lat="45.96609" lon="6.59737">
        <ele>1295.1999511719</ele>
        <time>2010-12-31T09:22:39.000Z</time>
      </trkpt>
      <trkpt lat="45.96607" lon="6.59731">
        <ele>1296.5999755859</ele>
        <time>2010-12-31T09:22:45.000Z</time>
      </trkpt>
      <trkpt lat="45.9661" lon="6.5973">
        <ele>1297.1999511719</ele>
        <time>2010-12-31T09:22:48.000Z</time>
      </trkpt>
      <trkpt lat="45.96616" lon="6.59733">
        <ele>1299</ele>
        <time>2010-12-31T09:22:56.000Z</time>
      </trkpt>
      <trkpt lat="45.96624" lon="6.59737">
        <ele>1301.1999511719</ele>
        <time>2010-12-31T09:23:05.000Z</time>
      </trkpt>
      <trkpt lat="45.96633" lon="6.59737">
        <ele>1303.4000244141</ele>
        <time>2010-12-31T09:23:16.000Z</time>
      </trkpt>
      <trkpt lat="45.9664" lon="6.59735">
        <ele>1305.4000244141</ele>
        <time>2010-12-31T09:23:24.000Z</time>
      </trkpt>
      <trkpt lat="45.96643" lon="6.59734">
        <ele>1306.1999511719</ele>
        <time>2010-12-31T09:23:28.000Z</time>
      </trkpt>
      <trkpt lat="45.96652" lon="6.59734">
        <ele>1308.5999755859</ele>
        <time>2010-12-31T09:23:39.000Z</time>
      </trkpt>
      <trkpt lat="45.96654" lon="6.59734">
        <ele>1309</ele>
        <time>2010-12-31T09:23:41.000Z</time>
      </trkpt>
      <trkpt lat="45.96657" lon="6.59734">
        <ele>1310</ele>
        <time>2010-12-31T09:23:45.000Z</time>
      </trkpt>
      <trkpt lat="45.96665" lon="6.59734">
        <ele>1312.1999511719</ele>
        <time>2010-12-31T09:23:55.000Z</time>
      </trkpt>
      <trkpt lat="45.96672" lon="6.59734">
        <ele>1314.4000244141</ele>
        <time>2010-12-31T09:24:03.000Z</time>
      </trkpt>
      <trkpt lat="45.96679" lon="6.59731">
        <ele>1317</ele>
        <time>2010-12-31T09:24:13.000Z</time>
      </trkpt>
      <trkpt lat="45.96686" lon="6.59726">
        <ele>1319.1999511719</ele>
        <time>2010-12-31T09:24:23.000Z</time>
      </trkpt>
      <trkpt lat="45.96686" lon="6.59723">
        <ele>1320.1999511719</ele>
        <time>2010-12-31T09:24:27.000Z</time>
      </trkpt>
      <trkpt lat="45.96678" lon="6.59715">
        <ele>1322.4000244141</ele>
        <time>2010-12-31T09:24:37.000Z</time>
      </trkpt>
      <trkpt lat="45.96672" lon="6.59709">
        <ele>1324</ele>
        <time>2010-12-31T09:24:45.000Z</time>
      </trkpt>
      <trkpt lat="45.96666" lon="6.59704">
        <ele>1325.5999755859</ele>
        <time>2010-12-31T09:24:53.000Z</time>
      </trkpt>
      <trkpt lat="45.9666" lon="6.59699">
        <ele>1327.4000244141</ele>
        <time>2010-12-31T09:25:01.000Z</time>
      </trkpt>
      <trkpt lat="45.96653" lon="6.59693">
        <ele>1329.1999511719</ele>
        <time>2010-12-31T09:25:10.000Z</time>
      </trkpt>
      <trkpt lat="45.96645" lon="6.59687">
        <ele>1331.5999755859</ele>
        <time>2010-12-31T09:25:21.000Z</time>
      </trkpt>
      <trkpt lat="45.9664" lon="6.59682">
        <ele>1333.1999511719</ele>
        <time>2010-12-31T09:25:29.000Z</time>
      </trkpt>
      <trkpt lat="45.96637" lon="6.59675">
        <ele>1334.5999755859</ele>
        <time>2010-12-31T09:25:36.000Z</time>
      </trkpt>
      <trkpt lat="45.96634" lon="6.59668">
        <ele>1336.5999755859</ele>
        <time>2010-12-31T09:25:44.000Z</time>
      </trkpt>
      <trkpt lat="45.96633" lon="6.59661">
        <ele>1338.8000488281</ele>
        <time>2010-12-31T09:25:53.000Z</time>
      </trkpt>
      <trkpt lat="45.96637" lon="6.59659">
        <ele>1339.8000488281</ele>
        <time>2010-12-31T09:25:58.000Z</time>
      </trkpt>
      <trkpt lat="45.96641" lon="6.59664">
        <ele>1341.8000488281</ele>
        <time>2010-12-31T09:26:07.000Z</time>
      </trkpt>
      <trkpt lat="45.96642" lon="6.59666">
        <ele>1342.4000244141</ele>
        <time>2010-12-31T09:26:09.000Z</time>
      </trkpt>
      <trkpt lat="45.96648" lon="6.59673">
        <ele>1345</ele>
        <time>2010-12-31T09:26:20.000Z</time>
      </trkpt>
      <trkpt lat="45.96654" lon="6.59677">
        <ele>1347.1999511719</ele>
        <time>2010-12-31T09:26:29.000Z</time>
      </trkpt>
      <trkpt lat="45.96663" lon="6.59677">
        <ele>1349.8000488281</ele>
        <time>2010-12-31T09:26:40.000Z</time>
      </trkpt>
      <trkpt lat="45.96669" lon="6.59676">
        <ele>1352</ele>
        <time>2010-12-31T09:26:49.000Z</time>
      </trkpt>
      <trkpt lat="45.96677" lon="6.59675">
        <ele>1353.8000488281</ele>
        <time>2010-12-31T09:26:58.000Z</time>
      </trkpt>
      <trkpt lat="45.96682" lon="6.59669">
        <ele>1355.4000244141</ele>
        <time>2010-12-31T09:27:06.000Z</time>
      </trkpt>
      <trkpt lat="45.96684" lon="6.5966">
        <ele>1357.4000244141</ele>
        <time>2010-12-31T09:27:14.000Z</time>
      </trkpt>
      <trkpt lat="45.96688" lon="6.59651">
        <ele>1359.4000244141</ele>
        <time>2010-12-31T09:27:23.000Z</time>
      </trkpt>
      <trkpt lat="45.96694" lon="6.59646">
        <ele>1361.1999511719</ele>
        <time>2010-12-31T09:27:32.000Z</time>
      </trkpt>
      <trkpt lat="45.967" lon="6.59644">
        <ele>1362.5999755859</ele>
        <time>2010-12-31T09:27:39.000Z</time>
      </trkpt>
      <trkpt lat="45.96706" lon="6.59644">
        <ele>1364.5999755859</ele>
        <time>2010-12-31T09:27:49.000Z</time>
      </trkpt>
      <trkpt lat="45.96711" lon="6.59645">
        <ele>1366</ele>
        <time>2010-12-31T09:27:56.000Z</time>
      </trkpt>
      <trkpt lat="45.96718" lon="6.59648">
        <ele>1368.5999755859</ele>
        <time>2010-12-31T09:28:07.000Z</time>
      </trkpt>
      <trkpt lat="45.96724" lon="6.59651">
        <ele>1370.8000488281</ele>
        <time>2010-12-31T09:28:17.000Z</time>
      </trkpt>
      <trkpt lat="45.9673" lon="6.59654">
        <ele>1372.5999755859</ele>
        <time>2010-12-31T09:28:26.000Z</time>
      </trkpt>
      <trkpt lat="45.96737" lon="6.59659">
        <ele>1374.4000244141</ele>
        <time>2010-12-31T09:28:35.000Z</time>
      </trkpt>
      <trkpt lat="45.96746" lon="6.59667">
        <ele>1375.5999755859</ele>
        <time>2010-12-31T09:28:46.000Z</time>
      </trkpt>
      <trkpt lat="45.96755" lon="6.59672">
        <ele>1377.1999511719</ele>
        <time>2010-12-31T09:28:56.000Z</time>
      </trkpt>
      <trkpt lat="45.96763" lon="6.59676">
        <ele>1378.5999755859</ele>
        <time>2010-12-31T09:29:06.000Z</time>
      </trkpt>
      <trkpt lat="45.96772" lon="6.59678">
        <ele>1380.4000244141</ele>
        <time>2010-12-31T09:29:16.000Z</time>
      </trkpt>
      <trkpt lat="45.96777" lon="6.59677">
        <ele>1382</ele>
        <time>2010-12-31T09:29:24.000Z</time>
      </trkpt>
      <trkpt lat="45.96785" lon="6.59678">
        <ele>1384.1999511719</ele>
        <time>2010-12-31T09:29:34.000Z</time>
      </trkpt>
      <trkpt lat="45.96792" lon="6.59678">
        <ele>1386.4000244141</ele>
        <time>2010-12-31T09:29:44.000Z</time>
      </trkpt>
      <trkpt lat="45.96797" lon="6.59679">
        <ele>1388</ele>
        <time>2010-12-31T09:29:51.000Z</time>
      </trkpt>
      <trkpt lat="45.96798" lon="6.59683">
        <ele>1389.1999511719</ele>
        <time>2010-12-31T09:29:56.000Z</time>
      </trkpt>
      <trkpt lat="45.96801" lon="6.59685">
        <ele>1390.5999755859</ele>
        <time>2010-12-31T09:30:02.000Z</time>
      </trkpt>
      <trkpt lat="45.96807" lon="6.59685">
        <ele>1392.5999755859</ele>
        <time>2010-12-31T09:30:11.000Z</time>
      </trkpt>
      <trkpt lat="45.96812" lon="6.59685">
        <ele>1394</ele>
        <time>2010-12-31T09:30:17.000Z</time>
      </trkpt>
      <trkpt lat="45.96819" lon="6.59688">
        <ele>1396.4000244141</ele>
        <time>2010-12-31T09:30:27.000Z</time>
      </trkpt>
      <trkpt lat="45.96826" lon="6.59689">
        <ele>1399</ele>
        <time>2010-12-31T09:30:38.000Z</time>
      </trkpt>
      <trkpt lat="45.96832" lon="6.59689">
        <ele>1401</ele>
        <time>2010-12-31T09:30:47.000Z</time>
      </trkpt>
      <trkpt lat="45.96839" lon="6.59689">
        <ele>1403.1999511719</ele>
        <time>2010-12-31T09:30:56.000Z</time>
      </trkpt>
      <trkpt lat="45.96846" lon="6.5969">
        <ele>1405.4000244141</ele>
        <time>2010-12-31T09:31:06.000Z</time>
      </trkpt>
      <trkpt lat="45.9685" lon="6.59685">
        <ele>1407.1999511719</ele>
        <time>2010-12-31T09:31:15.000Z</time>
      </trkpt>
      <trkpt lat="45.96852" lon="6.59683">
        <ele>1408.1999511719</ele>
        <time>2010-12-31T09:31:20.000Z</time>
      </trkpt>
      <trkpt lat="45.96853" lon="6.59682">
        <ele>1409.1999511719</ele>
        <time>2010-12-31T09:32:01.000Z</time>
      </trkpt>
      <trkpt lat="45.96852" lon="6.5968">
        <ele>1409.8000488281</ele>
        <time>2010-12-31T09:32:03.000Z</time>
      </trkpt>
      <trkpt lat="45.96845" lon="6.59674">
        <ele>1411.5999755859</ele>
        <time>2010-12-31T09:32:11.000Z</time>
      </trkpt>
      <trkpt lat="45.96836" lon="6.5967">
        <ele>1413.5999755859</ele>
        <time>2010-12-31T09:32:19.000Z</time>
      </trkpt>
      <trkpt lat="45.96834" lon="6.59666">
        <ele>1414.4000244141</ele>
        <time>2010-12-31T09:32:23.000Z</time>
      </trkpt>
      <trkpt lat="45.96831" lon="6.59656">
        <ele>1416.1999511719</ele>
        <time>2010-12-31T09:32:30.000Z</time>
      </trkpt>
      <trkpt lat="45.96827" lon="6.59649">
        <ele>1418.1999511719</ele>
        <time>2010-12-31T09:32:38.000Z</time>
      </trkpt>
      <trkpt lat="45.96825" lon="6.59641">
        <ele>1420</ele>
        <time>2010-12-31T09:32:46.000Z</time>
      </trkpt>
      <trkpt lat="45.96823" lon="6.59633">
        <ele>1421.8000488281</ele>
        <time>2010-12-31T09:32:54.000Z</time>
      </trkpt>
      <trkpt lat="45.9682" lon="6.59627">
        <ele>1423.8000488281</ele>
        <time>2010-12-31T09:33:02.000Z</time>
      </trkpt>
      <trkpt lat="45.96817" lon="6.59621">
        <ele>1424.8000488281</ele>
        <time>2010-12-31T09:33:07.000Z</time>
      </trkpt>
      <trkpt lat="45.96815" lon="6.59616">
        <ele>1426.5999755859</ele>
        <time>2010-12-31T09:33:15.000Z</time>
      </trkpt>
      <trkpt lat="45.96817" lon="6.59616">
        <ele>1427.5999755859</ele>
        <time>2010-12-31T09:33:20.000Z</time>
      </trkpt>
      <trkpt lat="45.9682" lon="6.59615">
        <ele>1429.5999755859</ele>
        <time>2010-12-31T09:33:28.000Z</time>
      </trkpt>
      <trkpt lat="45.96825" lon="6.59617">
        <ele>1431.1999511719</ele>
        <time>2010-12-31T09:33:36.000Z</time>
      </trkpt>
      <trkpt lat="45.96831" lon="6.59619">
        <ele>1432.8000488281</ele>
        <time>2010-12-31T09:33:45.000Z</time>
      </trkpt>
      <trkpt lat="45.96832" lon="6.59618">
        <ele>1433.1999511719</ele>
        <time>2010-12-31T09:33:46.000Z</time>
      </trkpt>
      <trkpt lat="45.96834" lon="6.59617">
        <ele>1433.5999755859</ele>
        <time>2010-12-31T09:33:48.000Z</time>
      </trkpt>
      <trkpt lat="45.96836" lon="6.59612">
        <ele>1435.4000244141</ele>
        <time>2010-12-31T09:33:56.000Z</time>
      </trkpt>
      <trkpt lat="45.96833" lon="6.59607">
        <ele>1436.4000244141</ele>
        <time>2010-12-31T09:34:02.000Z</time>
      </trkpt>
      <trkpt lat="45.96832" lon="6.59606">
        <ele>1436.8000488281</ele>
        <time>2010-12-31T09:34:04.000Z</time>
      </trkpt>
      <trkpt lat="45.96828" lon="6.59602">
        <ele>1438</ele>
        <time>2010-12-31T09:34:10.000Z</time>
      </trkpt>
      <trkpt lat="45.96827" lon="6.59601">
        <ele>1438.4000244141</ele>
        <time>2010-12-31T09:34:11.000Z</time>
      </trkpt>
      <trkpt lat="45.96823" lon="6.59595">
        <ele>1439.8000488281</ele>
        <time>2010-12-31T09:34:18.000Z</time>
      </trkpt>
      <trkpt lat="45.96819" lon="6.59588">
        <ele>1441.1999511719</ele>
        <time>2010-12-31T09:34:26.000Z</time>
      </trkpt>
      <trkpt lat="45.96811" lon="6.59577">
        <ele>1442.8000488281</ele>
        <time>2010-12-31T09:34:36.000Z</time>
      </trkpt>
      <trkpt lat="45.96806" lon="6.59573">
        <ele>1443.5999755859</ele>
        <time>2010-12-31T09:34:42.000Z</time>
      </trkpt>
      <trkpt lat="45.968" lon="6.59569">
        <ele>1445.4000244141</ele>
        <time>2010-12-31T09:34:50.000Z</time>
      </trkpt>
      <trkpt lat="45.96794" lon="6.59567">
        <ele>1447</ele>
        <time>2010-12-31T09:34:58.000Z</time>
      </trkpt>
      <trkpt lat="45.96787" lon="6.59566">
        <ele>1448.8000488281</ele>
        <time>2010-12-31T09:35:07.000Z</time>
      </trkpt>
      <trkpt lat="45.96783" lon="6.5956">
        <ele>1449.8000488281</ele>
        <time>2010-12-31T09:35:14.000Z</time>
      </trkpt>
      <trkpt lat="45.96783" lon="6.59555">
        <ele>1451.4000244141</ele>
        <time>2010-12-31T09:35:20.000Z</time>
      </trkpt>
      <trkpt lat="45.96786" lon="6.59548">
        <ele>1453</ele>
        <time>2010-12-31T09:35:29.000Z</time>
      </trkpt>
      <trkpt lat="45.9679" lon="6.59543">
        <ele>1454.5999755859</ele>
        <time>2010-12-31T09:35:36.000Z</time>
      </trkpt>
      <trkpt lat="45.96792" lon="6.59542">
        <ele>1455.8000488281</ele>
        <time>2010-12-31T09:35:41.000Z</time>
      </trkpt>
      <trkpt lat="45.96795" lon="6.59542">
        <ele>1457.4000244141</ele>
        <time>2010-12-31T09:35:48.000Z</time>
      </trkpt>
      <trkpt lat="45.96801" lon="6.59544">
        <ele>1458.8000488281</ele>
        <time>2010-12-31T09:35:55.000Z</time>
      </trkpt>
      <trkpt lat="45.96802" lon="6.59545">
        <ele>1459.4000244141</ele>
        <time>2010-12-31T09:35:57.000Z</time>
      </trkpt>
      <trkpt lat="45.96806" lon="6.59545">
        <ele>1460.8000488281</ele>
        <time>2010-12-31T09:36:03.000Z</time>
      </trkpt>
      <trkpt lat="45.96811" lon="6.59539">
        <ele>1463.1999511719</ele>
        <time>2010-12-31T09:36:12.000Z</time>
      </trkpt>
      <trkpt lat="45.96811" lon="6.59538">
        <ele>1463.4000244141</ele>
        <time>2010-12-31T09:36:13.000Z</time>
      </trkpt>
      <trkpt lat="45.96811" lon="6.59539">
        <ele>1464.5999755859</ele>
        <time>2010-12-31T09:37:18.000Z</time>
      </trkpt>
      <trkpt lat="45.96805" lon="6.5953">
        <ele>1466.4000244141</ele>
        <time>2010-12-31T09:37:26.000Z</time>
      </trkpt>
      <trkpt lat="45.968" lon="6.5952">
        <ele>1468.1999511719</ele>
        <time>2010-12-31T09:37:34.000Z</time>
      </trkpt>
      <trkpt lat="45.96798" lon="6.59516">
        <ele>1469</ele>
        <time>2010-12-31T09:37:37.000Z</time>
      </trkpt>
      <trkpt lat="45.96796" lon="6.59512">
        <ele>1469.5999755859</ele>
        <time>2010-12-31T09:37:42.000Z</time>
      </trkpt>
      <trkpt lat="45.96792" lon="6.5951">
        <ele>1470.1999511719</ele>
        <time>2010-12-31T09:37:51.000Z</time>
      </trkpt>
      <trkpt lat="45.9679" lon="6.59508">
        <ele>1470.5999755859</ele>
        <time>2010-12-31T09:37:54.000Z</time>
      </trkpt>
      <trkpt lat="45.96785" lon="6.59497">
        <ele>1472.4000244141</ele>
        <time>2010-12-31T09:38:04.000Z</time>
      </trkpt>
      <trkpt lat="45.9678" lon="6.59492">
        <ele>1474</ele>
        <time>2010-12-31T09:38:11.000Z</time>
      </trkpt>
      <trkpt lat="45.96777" lon="6.59487">
        <ele>1474.8000488281</ele>
        <time>2010-12-31T09:38:15.000Z</time>
      </trkpt>
      <trkpt lat="45.96773" lon="6.59485">
        <ele>1475.4000244141</ele>
        <time>2010-12-31T09:38:19.000Z</time>
      </trkpt>
      <trkpt lat="45.96772" lon="6.59485">
        <ele>1475.8000488281</ele>
        <time>2010-12-31T09:38:21.000Z</time>
      </trkpt>
      <trkpt lat="45.96766" lon="6.59485">
        <ele>1477.4000244141</ele>
        <time>2010-12-31T09:38:28.000Z</time>
      </trkpt>
      <trkpt lat="45.96761" lon="6.59485">
        <ele>1479</ele>
        <time>2010-12-31T09:38:35.000Z</time>
      </trkpt>
      <trkpt lat="45.96759" lon="6.59483">
        <ele>1479.8000488281</ele>
        <time>2010-12-31T09:38:39.000Z</time>
      </trkpt>
      <trkpt lat="45.96755" lon="6.59476">
        <ele>1481.4000244141</ele>
        <time>2010-12-31T09:38:46.000Z</time>
      </trkpt>
      <trkpt lat="45.96753" lon="6.59471">
        <ele>1482.8000488281</ele>
        <time>2010-12-31T09:38:52.000Z</time>
      </trkpt>
      <trkpt lat="45.96754" lon="6.59466">
        <ele>1484.4000244141</ele>
        <time>2010-12-31T09:39:01.000Z</time>
      </trkpt>
      <trkpt lat="45.9676" lon="6.59466">
        <ele>1486</ele>
        <time>2010-12-31T09:39:08.000Z</time>
      </trkpt>
      <trkpt lat="45.96767" lon="6.59463">
        <ele>1488.1999511719</ele>
        <time>2010-12-31T09:39:19.000Z</time>
      </trkpt>
      <trkpt lat="45.96773" lon="6.59463">
        <ele>1490</ele>
        <time>2010-12-31T09:39:28.000Z</time>
      </trkpt>
      <trkpt lat="45.96779" lon="6.59466">
        <ele>1491.5999755859</ele>
        <time>2010-12-31T09:39:36.000Z</time>
      </trkpt>
      <trkpt lat="45.96787" lon="6.59466">
        <ele>1493.4000244141</ele>
        <time>2010-12-31T09:39:45.000Z</time>
      </trkpt>
      <trkpt lat="45.96788" lon="6.59466">
        <ele>1494.1999511719</ele>
        <time>2010-12-31T09:39:48.000Z</time>
      </trkpt>
      <trkpt lat="45.9679" lon="6.59465">
        <ele>1494.5999755859</ele>
        <time>2010-12-31T09:39:50.000Z</time>
      </trkpt>
      <trkpt lat="45.96797" lon="6.59463">
        <ele>1496</ele>
        <time>2010-12-31T09:39:58.000Z</time>
      </trkpt>
      <trkpt lat="45.96804" lon="6.59464">
        <ele>1498</ele>
        <time>2010-12-31T09:40:07.000Z</time>
      </trkpt>
      <trkpt lat="45.96809" lon="6.59465">
        <ele>1500.1999511719</ele>
        <time>2010-12-31T09:40:16.000Z</time>
      </trkpt>
      <trkpt lat="45.96814" lon="6.59465">
        <ele>1501.8000488281</ele>
        <time>2010-12-31T09:40:23.000Z</time>
      </trkpt>
      <trkpt lat="45.96817" lon="6.59465">
        <ele>1502.5999755859</ele>
        <time>2010-12-31T09:40:27.000Z</time>
      </trkpt>
      <trkpt lat="45.96822" lon="6.59465">
        <ele>1504.1999511719</ele>
        <time>2010-12-31T09:40:33.000Z</time>
      </trkpt>
      <trkpt lat="45.96827" lon="6.59467">
        <ele>1506.1999511719</ele>
        <time>2010-12-31T09:40:42.000Z</time>
      </trkpt>
      <trkpt lat="45.96834" lon="6.59463">
        <ele>1508.1999511719</ele>
        <time>2010-12-31T09:40:51.000Z</time>
      </trkpt>
      <trkpt lat="45.96841" lon="6.59455">
        <ele>1509.5999755859</ele>
        <time>2010-12-31T09:41:00.000Z</time>
      </trkpt>
      <trkpt lat="45.96846" lon="6.59449">
        <ele>1510.5999755859</ele>
        <time>2010-12-31T09:41:09.000Z</time>
      </trkpt>
      <trkpt lat="45.96851" lon="6.59444">
        <ele>1512</ele>
        <time>2010-12-31T09:41:16.000Z</time>
      </trkpt>
      <trkpt lat="45.96856" lon="6.59437">
        <ele>1513.8000488281</ele>
        <time>2010-12-31T09:41:24.000Z</time>
      </trkpt>
      <trkpt lat="45.96858" lon="6.59427">
        <ele>1515.4000244141</ele>
        <time>2010-12-31T09:41:33.000Z</time>
      </trkpt>
      <trkpt lat="45.9686" lon="6.59417">
        <ele>1516.1999511719</ele>
        <time>2010-12-31T09:41:40.000Z</time>
      </trkpt>
      <trkpt lat="45.96862" lon="6.59407">
        <ele>1516.4000244141</ele>
        <time>2010-12-31T09:41:46.000Z</time>
      </trkpt>
      <trkpt lat="45.96863" lon="6.59404">
        <ele>1516.4000244141</ele>
        <time>2010-12-31T09:41:48.000Z</time>
      </trkpt>
      <trkpt lat="45.96867" lon="6.59391">
        <ele>1517</ele>
        <time>2010-12-31T09:41:57.000Z</time>
      </trkpt>
      <trkpt lat="45.96867" lon="6.59382">
        <ele>1518.1999511719</ele>
        <time>2010-12-31T09:42:04.000Z</time>
      </trkpt>
      <trkpt lat="45.96867" lon="6.59373">
        <ele>1519.8000488281</ele>
        <time>2010-12-31T09:42:11.000Z</time>
      </trkpt>
      <trkpt lat="45.96865" lon="6.59364">
        <ele>1520.5999755859</ele>
        <time>2010-12-31T09:42:18.000Z</time>
      </trkpt>
      <trkpt lat="45.96865" lon="6.59351">
        <ele>1521.5999755859</ele>
        <time>2010-12-31T09:42:26.000Z</time>
      </trkpt>
      <trkpt lat="45.96862" lon="6.59337">
        <ele>1522.5999755859</ele>
        <time>2010-12-31T09:42:35.000Z</time>
      </trkpt>
      <trkpt lat="45.96859" lon="6.59324">
        <ele>1523</ele>
        <time>2010-12-31T09:42:43.000Z</time>
      </trkpt>
      <trkpt lat="45.96857" lon="6.5931">
        <ele>1524</ele>
        <time>2010-12-31T09:42:51.000Z</time>
      </trkpt>
      <trkpt lat="45.96857" lon="6.59299">
        <ele>1525</ele>
        <time>2010-12-31T09:42:58.000Z</time>
      </trkpt>
      <trkpt lat="45.96855" lon="6.59286">
        <ele>1526.4000244141</ele>
        <time>2010-12-31T09:43:06.000Z</time>
      </trkpt>
      <trkpt lat="45.96855" lon="6.59284">
        <ele>1526.4000244141</ele>
        <time>2010-12-31T09:43:07.000Z</time>
      </trkpt>
      <trkpt lat="45.96851" lon="6.59272">
        <ele>1526.8000488281</ele>
        <time>2010-12-31T09:43:14.000Z</time>
      </trkpt>
      <trkpt lat="45.96846" lon="6.59256">
        <ele>1527.1999511719</ele>
        <time>2010-12-31T09:43:23.000Z</time>
      </trkpt>
      <trkpt lat="45.96842" lon="6.59242">
        <ele>1527.1999511719</ele>
        <time>2010-12-31T09:43:31.000Z</time>
      </trkpt>
      <trkpt lat="45.96839" lon="6.59229">
        <ele>1527.8000488281</ele>
        <time>2010-12-31T09:43:39.000Z</time>
      </trkpt>
      <trkpt lat="45.96835" lon="6.59216">
        <ele>1528.5999755859</ele>
        <time>2010-12-31T09:43:47.000Z</time>
      </trkpt>
      <trkpt lat="45.96833" lon="6.59202">
        <ele>1528.8000488281</ele>
        <time>2010-12-31T09:43:55.000Z</time>
      </trkpt>
      <trkpt lat="45.96832" lon="6.5919">
        <ele>1529.4000244141</ele>
        <time>2010-12-31T09:44:02.000Z</time>
      </trkpt>
      <trkpt lat="45.96833" lon="6.59179">
        <ele>1530</ele>
        <time>2010-12-31T09:44:09.000Z</time>
      </trkpt>
      <trkpt lat="45.96836" lon="6.59168">
        <ele>1532</ele>
        <time>2010-12-31T09:44:17.000Z</time>
      </trkpt>
      <trkpt lat="45.9684" lon="6.59156">
        <ele>1533.4000244141</ele>
        <time>2010-12-31T09:44:26.000Z</time>
      </trkpt>
      <trkpt lat="45.96844" lon="6.59144">
        <ele>1534.8000488281</ele>
        <time>2010-12-31T09:44:34.000Z</time>
      </trkpt>
      <trkpt lat="45.96846" lon="6.59132">
        <ele>1536.1999511719</ele>
        <time>2010-12-31T09:44:43.000Z</time>
      </trkpt>
      <trkpt lat="45.96848" lon="6.59121">
        <ele>1537.4000244141</ele>
        <time>2010-12-31T09:44:51.000Z</time>
      </trkpt>
      <trkpt lat="45.96848" lon="6.59107">
        <ele>1539</ele>
        <time>2010-12-31T09:45:01.000Z</time>
      </trkpt>
      <trkpt lat="45.96848" lon="6.59093">
        <ele>1540.8000488281</ele>
        <time>2010-12-31T09:45:11.000Z</time>
      </trkpt>
      <trkpt lat="45.96844" lon="6.5908">
        <ele>1541.4000244141</ele>
        <time>2010-12-31T09:45:19.000Z</time>
      </trkpt>
      <trkpt lat="45.96842" lon="6.5907">
        <ele>1541.5999755859</ele>
        <time>2010-12-31T09:45:27.000Z</time>
      </trkpt>
      <trkpt lat="45.9684" lon="6.59061">
        <ele>1541.8000488281</ele>
        <time>2010-12-31T09:45:33.000Z</time>
      </trkpt>
      <trkpt lat="45.96836" lon="6.59045">
        <ele>1542.1999511719</ele>
        <time>2010-12-31T09:45:42.000Z</time>
      </trkpt>
      <trkpt lat="45.96833" lon="6.59033">
        <ele>1542.1999511719</ele>
        <time>2010-12-31T09:45:49.000Z</time>
      </trkpt>
      <trkpt lat="45.9683" lon="6.59019">
        <ele>1542.4000244141</ele>
        <time>2010-12-31T09:45:58.000Z</time>
      </trkpt>
      <trkpt lat="45.96826" lon="6.59005">
        <ele>1543.4000244141</ele>
        <time>2010-12-31T09:46:07.000Z</time>
      </trkpt>
      <trkpt lat="45.96823" lon="6.58997">
        <ele>1544</ele>
        <time>2010-12-31T09:46:13.000Z</time>
      </trkpt>
      <trkpt lat="45.9682" lon="6.58987">
        <ele>1545</ele>
        <time>2010-12-31T09:46:21.000Z</time>
      </trkpt>
      <trkpt lat="45.96821" lon="6.58987">
        <ele>1545.1999511719</ele>
        <time>2010-12-31T09:46:22.000Z</time>
      </trkpt>
      <trkpt lat="45.96831" lon="6.58984">
        <ele>1545.5999755859</ele>
        <time>2010-12-31T09:47:18.000Z</time>
      </trkpt>
      <trkpt lat="45.96839" lon="6.5897">
        <ele>1546</ele>
        <time>2010-12-31T09:47:27.000Z</time>
      </trkpt>
      <trkpt lat="45.96842" lon="6.58953">
        <ele>1546.4000244141</ele>
        <time>2010-12-31T09:47:36.000Z</time>
      </trkpt>
      <trkpt lat="45.96843" lon="6.58944">
        <ele>1546.4000244141</ele>
        <time>2010-12-31T09:47:41.000Z</time>
      </trkpt>
      <trkpt lat="45.96838" lon="6.58933">
        <ele>1547.4000244141</ele>
        <time>2010-12-31T09:47:48.000Z</time>
      </trkpt>
      <trkpt lat="45.96834" lon="6.58923">
        <ele>1548.5999755859</ele>
        <time>2010-12-31T09:47:56.000Z</time>
      </trkpt>
      <trkpt lat="45.96829" lon="6.58913">
        <ele>1549.5999755859</ele>
        <time>2010-12-31T09:48:04.000Z</time>
      </trkpt>
      <trkpt lat="45.96826" lon="6.58901">
        <ele>1551</ele>
        <time>2010-12-31T09:48:12.000Z</time>
      </trkpt>
      <trkpt lat="45.96822" lon="6.58889">
        <ele>1552.4000244141</ele>
        <time>2010-12-31T09:48:21.000Z</time>
      </trkpt>
      <trkpt lat="45.96819" lon="6.58878">
        <ele>1554</ele>
        <time>2010-12-31T09:48:30.000Z</time>
      </trkpt>
      <trkpt lat="45.96816" lon="6.58863">
        <ele>1555.1999511719</ele>
        <time>2010-12-31T09:48:39.000Z</time>
      </trkpt>
      <trkpt lat="45.96813" lon="6.58847">
        <ele>1556.4000244141</ele>
        <time>2010-12-31T09:48:50.000Z</time>
      </trkpt>
      <trkpt lat="45.96812" lon="6.58835">
        <ele>1557.8000488281</ele>
        <time>2010-12-31T09:48:59.000Z</time>
      </trkpt>
      <trkpt lat="45.96812" lon="6.58822">
        <ele>1559.5999755859</ele>
        <time>2010-12-31T09:49:09.000Z</time>
      </trkpt>
      <trkpt lat="45.96812" lon="6.58817">
        <ele>1560.4000244141</ele>
        <time>2010-12-31T09:49:14.000Z</time>
      </trkpt>
      <trkpt lat="45.96814" lon="6.58817">
        <ele>1560</ele>
        <time>2010-12-31T09:50:24.000Z</time>
      </trkpt>
      <trkpt lat="45.96811" lon="6.58811">
        <ele>1559.5999755859</ele>
        <time>2010-12-31T09:50:59.000Z</time>
      </trkpt>
      <trkpt lat="45.96808" lon="6.58789">
        <ele>1558.8000488281</ele>
        <time>2010-12-31T09:51:08.000Z</time>
      </trkpt>
      <trkpt lat="45.96805" lon="6.58763">
        <ele>1556.5999755859</ele>
        <time>2010-12-31T09:51:17.000Z</time>
      </trkpt>
      <trkpt lat="45.96801" lon="6.58729">
        <ele>1552.4000244141</ele>
        <time>2010-12-31T09:51:28.000Z</time>
      </trkpt>
      <trkpt lat="45.96804" lon="6.58716">
        <ele>1550.5999755859</ele>
        <time>2010-12-31T09:51:33.000Z</time>
      </trkpt>
      <trkpt lat="45.96814" lon="6.587">
        <ele>1548.4000244141</ele>
        <time>2010-12-31T09:51:41.000Z</time>
      </trkpt>
      <trkpt lat="45.96818" lon="6.58688">
        <ele>1547.4000244141</ele>
        <time>2010-12-31T09:51:48.000Z</time>
      </trkpt>
      <trkpt lat="45.96815" lon="6.58672">
        <ele>1547.4000244141</ele>
        <time>2010-12-31T09:51:56.000Z</time>
      </trkpt>
      <trkpt lat="45.96813" lon="6.58658">
        <ele>1547.8000488281</ele>
        <time>2010-12-31T09:52:03.000Z</time>
      </trkpt>
      <trkpt lat="45.96815" lon="6.58642">
        <ele>1548.4000244141</ele>
        <time>2010-12-31T09:52:12.000Z</time>
      </trkpt>
      <trkpt lat="45.96821" lon="6.58633">
        <ele>1548.5999755859</ele>
        <time>2010-12-31T09:52:19.000Z</time>
      </trkpt>
      <trkpt lat="45.96822" lon="6.58632">
        <ele>1548.5999755859</ele>
        <time>2010-12-31T09:52:21.000Z</time>
      </trkpt>
      <trkpt lat="45.96834" lon="6.58631">
        <ele>1548.5999755859</ele>
        <time>2010-12-31T09:52:30.000Z</time>
      </trkpt>
      <trkpt lat="45.96838" lon="6.58632">
        <ele>1548.8000488281</ele>
        <time>2010-12-31T09:52:36.000Z</time>
      </trkpt>
      <trkpt lat="45.96835" lon="6.58627">
        <ele>1547.4000244141</ele>
        <time>2010-12-31T09:53:40.000Z</time>
      </trkpt>
      <trkpt lat="45.96834" lon="6.58625">
        <ele>1547.4000244141</ele>
        <time>2010-12-31T09:53:41.000Z</time>
      </trkpt>
      <trkpt lat="45.96827" lon="6.58611">
        <ele>1547.4000244141</ele>
        <time>2010-12-31T09:53:48.000Z</time>
      </trkpt>
      <trkpt lat="45.96821" lon="6.586">
        <ele>1547.8000488281</ele>
        <time>2010-12-31T09:53:54.000Z</time>
      </trkpt>
      <trkpt lat="45.96813" lon="6.5859">
        <ele>1549</ele>
        <time>2010-12-31T09:54:01.000Z</time>
      </trkpt>
      <trkpt lat="45.96807" lon="6.58584">
        <ele>1550.1999511719</ele>
        <time>2010-12-31T09:54:08.000Z</time>
      </trkpt>
      <trkpt lat="45.96801" lon="6.58573">
        <ele>1551.1999511719</ele>
        <time>2010-12-31T09:54:16.000Z</time>
      </trkpt>
      <trkpt lat="45.96795" lon="6.58565">
        <ele>1552</ele>
        <time>2010-12-31T09:54:23.000Z</time>
      </trkpt>
      <trkpt lat="45.96789" lon="6.58559">
        <ele>1552.5999755859</ele>
        <time>2010-12-31T09:54:30.000Z</time>
      </trkpt>
      <trkpt lat="45.96785" lon="6.58547">
        <ele>1553.4000244141</ele>
        <time>2010-12-31T09:54:37.000Z</time>
      </trkpt>
      <trkpt lat="45.96782" lon="6.58531">
        <ele>1554.4000244141</ele>
        <time>2010-12-31T09:54:46.000Z</time>
      </trkpt>
      <trkpt lat="45.96782" lon="6.5853">
        <ele>1554.8000488281</ele>
        <time>2010-12-31T09:54:47.000Z</time>
      </trkpt>
      <trkpt lat="45.96777" lon="6.58515">
        <ele>1555.4000244141</ele>
        <time>2010-12-31T09:54:56.000Z</time>
      </trkpt>
      <trkpt lat="45.96769" lon="6.58507">
        <ele>1556.1999511719</ele>
        <time>2010-12-31T09:55:03.000Z</time>
      </trkpt>
      <trkpt lat="45.96761" lon="6.58494">
        <ele>1557.5999755859</ele>
        <time>2010-12-31T09:55:12.000Z</time>
      </trkpt>
      <trkpt lat="45.96757" lon="6.58486">
        <ele>1558.8000488281</ele>
        <time>2010-12-31T09:55:19.000Z</time>
      </trkpt>
      <trkpt lat="45.96749" lon="6.58476">
        <ele>1559.8000488281</ele>
        <time>2010-12-31T09:55:27.000Z</time>
      </trkpt>
      <trkpt lat="45.96742" lon="6.58466">
        <ele>1560</ele>
        <time>2010-12-31T09:55:34.000Z</time>
      </trkpt>
      <trkpt lat="45.96735" lon="6.58456">
        <ele>1560.4000244141</ele>
        <time>2010-12-31T09:55:42.000Z</time>
      </trkpt>
      <trkpt lat="45.96729" lon="6.58447">
        <ele>1560.8000488281</ele>
        <time>2010-12-31T09:55:50.000Z</time>
      </trkpt>
      <trkpt lat="45.96728" lon="6.58434">
        <ele>1561.5999755859</ele>
        <time>2010-12-31T09:55:57.000Z</time>
      </trkpt>
      <trkpt lat="45.96727" lon="6.58426">
        <ele>1563.5999755859</ele>
        <time>2010-12-31T09:56:04.000Z</time>
      </trkpt>
      <trkpt lat="45.96728" lon="6.58414">
        <ele>1565.5999755859</ele>
        <time>2010-12-31T09:56:12.000Z</time>
      </trkpt>
      <trkpt lat="45.96729" lon="6.584">
        <ele>1567</ele>
        <time>2010-12-31T09:56:21.000Z</time>
      </trkpt>
      <trkpt lat="45.96726" lon="6.58385">
        <ele>1568.1999511719</ele>
        <time>2010-12-31T09:56:30.000Z</time>
      </trkpt>
      <trkpt lat="45.96723" lon="6.58373">
        <ele>1568.8000488281</ele>
        <time>2010-12-31T09:56:37.000Z</time>
      </trkpt>
      <trkpt lat="45.96717" lon="6.58365">
        <ele>1569.4000244141</ele>
        <time>2010-12-31T09:56:45.000Z</time>
      </trkpt>
      <trkpt lat="45.96711" lon="6.58357">
        <ele>1570.4000244141</ele>
        <time>2010-12-31T09:56:52.000Z</time>
      </trkpt>
      <trkpt lat="45.96708" lon="6.58338">
        <ele>1571.1999511719</ele>
        <time>2010-12-31T09:57:02.000Z</time>
      </trkpt>
      <trkpt lat="45.96706" lon="6.58328">
        <ele>1572.5999755859</ele>
        <time>2010-12-31T09:57:10.000Z</time>
      </trkpt>
      <trkpt lat="45.96705" lon="6.58315">
        <ele>1574.4000244141</ele>
        <time>2010-12-31T09:57:19.000Z</time>
      </trkpt>
      <trkpt lat="45.96702" lon="6.58304">
        <ele>1575</ele>
        <time>2010-12-31T09:57:26.000Z</time>
      </trkpt>
      <trkpt lat="45.96697" lon="6.58294">
        <ele>1576.4000244141</ele>
        <time>2010-12-31T09:57:35.000Z</time>
      </trkpt>
      <trkpt lat="45.96692" lon="6.5828">
        <ele>1577.8000488281</ele>
        <time>2010-12-31T09:57:44.000Z</time>
      </trkpt>
      <trkpt lat="45.9669" lon="6.58268">
        <ele>1579.5999755859</ele>
        <time>2010-12-31T09:57:53.000Z</time>
      </trkpt>
      <trkpt lat="45.96688" lon="6.58252">
        <ele>1581.1999511719</ele>
        <time>2010-12-31T09:58:04.000Z</time>
      </trkpt>
      <trkpt lat="45.96685" lon="6.58237">
        <ele>1582.5999755859</ele>
        <time>2010-12-31T09:58:14.000Z</time>
      </trkpt>
      <trkpt lat="45.96679" lon="6.58232">
        <ele>1583.5999755859</ele>
        <time>2010-12-31T09:58:21.000Z</time>
      </trkpt>
      <trkpt lat="45.96676" lon="6.58219">
        <ele>1585</ele>
        <time>2010-12-31T09:58:30.000Z</time>
      </trkpt>
      <trkpt lat="45.96675" lon="6.58216">
        <ele>1585.4000244141</ele>
        <time>2010-12-31T09:58:32.000Z</time>
      </trkpt>
      <trkpt lat="45.9667" lon="6.58206">
        <ele>1586.8000488281</ele>
        <time>2010-12-31T09:58:41.000Z</time>
      </trkpt>
      <trkpt lat="45.96668" lon="6.58194">
        <ele>1588.1999511719</ele>
        <time>2010-12-31T09:58:49.000Z</time>
      </trkpt>
      <trkpt lat="45.96666" lon="6.58183">
        <ele>1589</ele>
        <time>2010-12-31T09:58:55.000Z</time>
      </trkpt>
      <trkpt lat="45.96662" lon="6.58175">
        <ele>1590.4000244141</ele>
        <time>2010-12-31T09:59:02.000Z</time>
      </trkpt>
      <trkpt lat="45.96656" lon="6.58169">
        <ele>1591.8000488281</ele>
        <time>2010-12-31T09:59:10.000Z</time>
      </trkpt>
      <trkpt lat="45.9665" lon="6.58156">
        <ele>1593</ele>
        <time>2010-12-31T09:59:19.000Z</time>
      </trkpt>
      <trkpt lat="45.96649" lon="6.58153">
        <ele>1593.5999755859</ele>
        <time>2010-12-31T09:59:21.000Z</time>
      </trkpt>
      <trkpt lat="45.96645" lon="6.58149">
        <ele>1595</ele>
        <time>2010-12-31T09:59:28.000Z</time>
      </trkpt>
      <trkpt lat="45.96642" lon="6.58138">
        <ele>1596.5999755859</ele>
        <time>2010-12-31T09:59:36.000Z</time>
      </trkpt>
      <trkpt lat="45.96639" lon="6.58133">
        <ele>1597.4000244141</ele>
        <time>2010-12-31T09:59:41.000Z</time>
      </trkpt>
      <trkpt lat="45.96637" lon="6.58119">
        <ele>1599.5999755859</ele>
        <time>2010-12-31T09:59:51.000Z</time>
      </trkpt>
      <trkpt lat="45.96635" lon="6.58117">
        <ele>1600.1999511719</ele>
        <time>2010-12-31T09:59:54.000Z</time>
      </trkpt>
      <trkpt lat="45.9663" lon="6.58103">
        <ele>1602</ele>
        <time>2010-12-31T10:00:05.000Z</time>
      </trkpt>
      <trkpt lat="45.96628" lon="6.58093">
        <ele>1603.4000244141</ele>
        <time>2010-12-31T10:00:13.000Z</time>
      </trkpt>
      <trkpt lat="45.96625" lon="6.58082">
        <ele>1605.1999511719</ele>
        <time>2010-12-31T10:00:22.000Z</time>
      </trkpt>
      <trkpt lat="45.96624" lon="6.5807">
        <ele>1606.4000244141</ele>
        <time>2010-12-31T10:00:30.000Z</time>
      </trkpt>
      <trkpt lat="45.96621" lon="6.58059">
        <ele>1608</ele>
        <time>2010-12-31T10:00:39.000Z</time>
      </trkpt>
      <trkpt lat="45.96617" lon="6.58051">
        <ele>1609.8000488281</ele>
        <time>2010-12-31T10:00:48.000Z</time>
      </trkpt>
      <trkpt lat="45.96613" lon="6.58044">
        <ele>1610.8000488281</ele>
        <time>2010-12-31T10:00:55.000Z</time>
      </trkpt>
      <trkpt lat="45.96611" lon="6.58041">
        <ele>1611.4000244141</ele>
        <time>2010-12-31T10:00:58.000Z</time>
      </trkpt>
      <trkpt lat="45.96606" lon="6.58034">
        <ele>1612.5999755859</ele>
        <time>2010-12-31T10:01:05.000Z</time>
      </trkpt>
      <trkpt lat="45.96602" lon="6.58029">
        <ele>1613.4000244141</ele>
        <time>2010-12-31T10:01:10.000Z</time>
      </trkpt>
      <trkpt lat="45.96598" lon="6.58019">
        <ele>1615</ele>
        <time>2010-12-31T10:01:19.000Z</time>
      </trkpt>
      <trkpt lat="45.96594" lon="6.5801">
        <ele>1617</ele>
        <time>2010-12-31T10:01:28.000Z</time>
      </trkpt>
      <trkpt lat="45.96592" lon="6.57998">
        <ele>1618.4000244141</ele>
        <time>2010-12-31T10:01:37.000Z</time>
      </trkpt>
      <trkpt lat="45.96589" lon="6.57987">
        <ele>1620.4000244141</ele>
        <time>2010-12-31T10:01:47.000Z</time>
      </trkpt>
      <trkpt lat="45.96586" lon="6.57978">
        <ele>1621.8000488281</ele>
        <time>2010-12-31T10:01:56.000Z</time>
      </trkpt>
      <trkpt lat="45.96585" lon="6.57969">
        <ele>1623.5999755859</ele>
        <time>2010-12-31T10:02:03.000Z</time>
      </trkpt>
      <trkpt lat="45.96583" lon="6.57954">
        <ele>1625.4000244141</ele>
        <time>2010-12-31T10:02:14.000Z</time>
      </trkpt>
      <trkpt lat="45.9658" lon="6.57943">
        <ele>1626.5999755859</ele>
        <time>2010-12-31T10:02:23.000Z</time>
      </trkpt>
      <trkpt lat="45.96576" lon="6.57936">
        <ele>1628</ele>
        <time>2010-12-31T10:02:31.000Z</time>
      </trkpt>
      <trkpt lat="45.96571" lon="6.57929">
        <ele>1630</ele>
        <time>2010-12-31T10:02:39.000Z</time>
      </trkpt>
      <trkpt lat="45.96571" lon="6.57929">
        <ele>1630.1999511719</ele>
        <time>2010-12-31T10:02:41.000Z</time>
      </trkpt>
      <trkpt lat="45.96568" lon="6.57923">
        <ele>1630.4000244141</ele>
        <time>2010-12-31T10:02:47.000Z</time>
      </trkpt>
      <trkpt lat="45.96566" lon="6.57911">
        <ele>1631.8000488281</ele>
        <time>2010-12-31T10:02:56.000Z</time>
      </trkpt>
      <trkpt lat="45.96565" lon="6.57903">
        <ele>1633.1999511719</ele>
        <time>2010-12-31T10:03:03.000Z</time>
      </trkpt>
      <trkpt lat="45.96562" lon="6.57895">
        <ele>1634.4000244141</ele>
        <time>2010-12-31T10:03:11.000Z</time>
      </trkpt>
      <trkpt lat="45.96559" lon="6.57886">
        <ele>1636</ele>
        <time>2010-12-31T10:03:20.000Z</time>
      </trkpt>
      <trkpt lat="45.96557" lon="6.57876">
        <ele>1636.1999511719</ele>
        <time>2010-12-31T10:03:26.000Z</time>
      </trkpt>
      <trkpt lat="45.96553" lon="6.57866">
        <ele>1637</ele>
        <time>2010-12-31T10:03:33.000Z</time>
      </trkpt>
      <trkpt lat="45.96549" lon="6.57859">
        <ele>1638.4000244141</ele>
        <time>2010-12-31T10:03:40.000Z</time>
      </trkpt>
      <trkpt lat="45.96543" lon="6.57849">
        <ele>1640.8000488281</ele>
        <time>2010-12-31T10:03:52.000Z</time>
      </trkpt>
      <trkpt lat="45.96537" lon="6.57841">
        <ele>1641.4000244141</ele>
        <time>2010-12-31T10:04:00.000Z</time>
      </trkpt>
      <trkpt lat="45.96532" lon="6.57833">
        <ele>1642.8000488281</ele>
        <time>2010-12-31T10:04:08.000Z</time>
      </trkpt>
      <trkpt lat="45.96528" lon="6.57828">
        <ele>1643.5999755859</ele>
        <time>2010-12-31T10:04:13.000Z</time>
      </trkpt>
      <trkpt lat="45.96523" lon="6.57821">
        <ele>1644.4000244141</ele>
        <time>2010-12-31T10:04:20.000Z</time>
      </trkpt>
      <trkpt lat="45.96522" lon="6.5782">
        <ele>1644.5999755859</ele>
        <time>2010-12-31T10:04:22.000Z</time>
      </trkpt>
      <trkpt lat="45.96521" lon="6.57814">
        <ele>1646</ele>
        <time>2010-12-31T10:04:29.000Z</time>
      </trkpt>
      <trkpt lat="45.96524" lon="6.57809">
        <ele>1646.8000488281</ele>
        <time>2010-12-31T10:04:36.000Z</time>
      </trkpt>
      <trkpt lat="45.96522" lon="6.578">
        <ele>1648.8000488281</ele>
        <time>2010-12-31T10:04:45.000Z</time>
      </trkpt>
      <trkpt lat="45.96518" lon="6.57794">
        <ele>1650.1999511719</ele>
        <time>2010-12-31T10:04:53.000Z</time>
      </trkpt>
      <trkpt lat="45.96516" lon="6.57787">
        <ele>1650.5999755859</ele>
        <time>2010-12-31T10:04:59.000Z</time>
      </trkpt>
      <trkpt lat="45.96509" lon="6.57779">
        <ele>1652</ele>
        <time>2010-12-31T10:05:09.000Z</time>
      </trkpt>
      <trkpt lat="45.96507" lon="6.57777">
        <ele>1652.1999511719</ele>
        <time>2010-12-31T10:05:11.000Z</time>
      </trkpt>
      <trkpt lat="45.96506" lon="6.57775">
        <ele>1653</ele>
        <time>2010-12-31T10:05:15.000Z</time>
      </trkpt>
      <trkpt lat="45.96508" lon="6.57767">
        <ele>1655</ele>
        <time>2010-12-31T10:05:24.000Z</time>
      </trkpt>
      <trkpt lat="45.96511" lon="6.57759">
        <ele>1656</ele>
        <time>2010-12-31T10:05:32.000Z</time>
      </trkpt>
      <trkpt lat="45.96512" lon="6.57757">
        <ele>1656.8000488281</ele>
        <time>2010-12-31T10:05:35.000Z</time>
      </trkpt>
      <trkpt lat="45.96513" lon="6.57752">
        <ele>1658</ele>
        <time>2010-12-31T10:05:42.000Z</time>
      </trkpt>
      <trkpt lat="45.96514" lon="6.57742">
        <ele>1659.5999755859</ele>
        <time>2010-12-31T10:05:51.000Z</time>
      </trkpt>
      <trkpt lat="45.96514" lon="6.57731">
        <ele>1661.1999511719</ele>
        <time>2010-12-31T10:06:01.000Z</time>
      </trkpt>
      <trkpt lat="45.96514" lon="6.57721">
        <ele>1662.1999511719</ele>
        <time>2010-12-31T10:06:09.000Z</time>
      </trkpt>
      <trkpt lat="45.96513" lon="6.57711">
        <ele>1663.5999755859</ele>
        <time>2010-12-31T10:06:17.000Z</time>
      </trkpt>
      <trkpt lat="45.96512" lon="6.57702">
        <ele>1665.8000488281</ele>
        <time>2010-12-31T10:06:27.000Z</time>
      </trkpt>
      <trkpt lat="45.96511" lon="6.5769">
        <ele>1667</ele>
        <time>2010-12-31T10:06:35.000Z</time>
      </trkpt>
      <trkpt lat="45.96509" lon="6.57679">
        <ele>1668.4000244141</ele>
        <time>2010-12-31T10:06:44.000Z</time>
      </trkpt>
      <trkpt lat="45.96505" lon="6.57669">
        <ele>1670.1999511719</ele>
        <time>2010-12-31T10:06:54.000Z</time>
      </trkpt>
      <trkpt lat="45.96502" lon="6.57663">
        <ele>1671.4000244141</ele>
        <time>2010-12-31T10:07:01.000Z</time>
      </trkpt>
      <trkpt lat="45.96502" lon="6.57658">
        <ele>1671.8000488281</ele>
        <time>2010-12-31T10:07:04.000Z</time>
      </trkpt>
      <trkpt lat="45.96499" lon="6.57647">
        <ele>1673.5999755859</ele>
        <time>2010-12-31T10:07:14.000Z</time>
      </trkpt>
      <trkpt lat="45.96495" lon="6.57644">
        <ele>1674.4000244141</ele>
        <time>2010-12-31T10:07:20.000Z</time>
      </trkpt>
      <trkpt lat="45.96492" lon="6.57633">
        <ele>1675.5999755859</ele>
        <time>2010-12-31T10:07:28.000Z</time>
      </trkpt>
      <trkpt lat="45.96489" lon="6.57626">
        <ele>1676.5999755859</ele>
        <time>2010-12-31T10:07:34.000Z</time>
      </trkpt>
      <trkpt lat="45.96487" lon="6.5762">
        <ele>1677.4000244141</ele>
        <time>2010-12-31T10:07:39.000Z</time>
      </trkpt>
      <trkpt lat="45.96483" lon="6.57612">
        <ele>1679</ele>
        <time>2010-12-31T10:07:48.000Z</time>
      </trkpt>
      <trkpt lat="45.9648" lon="6.57605">
        <ele>1680.1999511719</ele>
        <time>2010-12-31T10:07:56.000Z</time>
      </trkpt>
      <trkpt lat="45.96477" lon="6.57594">
        <ele>1682.4000244141</ele>
        <time>2010-12-31T10:08:06.000Z</time>
      </trkpt>
      <trkpt lat="45.96473" lon="6.57586">
        <ele>1683.8000488281</ele>
        <time>2010-12-31T10:08:15.000Z</time>
      </trkpt>
      <trkpt lat="45.96468" lon="6.57579">
        <ele>1685.1999511719</ele>
        <time>2010-12-31T10:08:23.000Z</time>
      </trkpt>
      <trkpt lat="45.96463" lon="6.57568">
        <ele>1687.8000488281</ele>
        <time>2010-12-31T10:08:35.000Z</time>
      </trkpt>
      <trkpt lat="45.96462" lon="6.5756">
        <ele>1689.1999511719</ele>
        <time>2010-12-31T10:08:44.000Z</time>
      </trkpt>
      <trkpt lat="45.9646" lon="6.5755">
        <ele>1690.5999755859</ele>
        <time>2010-12-31T10:08:53.000Z</time>
      </trkpt>
      <trkpt lat="45.96459" lon="6.57539">
        <ele>1692.5999755859</ele>
        <time>2010-12-31T10:09:03.000Z</time>
      </trkpt>
      <trkpt lat="45.96458" lon="6.57529">
        <ele>1694.1999511719</ele>
        <time>2010-12-31T10:09:12.000Z</time>
      </trkpt>
      <trkpt lat="45.96455" lon="6.57518">
        <ele>1696</ele>
        <time>2010-12-31T10:09:23.000Z</time>
      </trkpt>
      <trkpt lat="45.96451" lon="6.57512">
        <ele>1697.4000244141</ele>
        <time>2010-12-31T10:09:31.000Z</time>
      </trkpt>
      <trkpt lat="45.96447" lon="6.57508">
        <ele>1698.5999755859</ele>
        <time>2010-12-31T10:09:39.000Z</time>
      </trkpt>
      <trkpt lat="45.96446" lon="6.57505">
        <ele>1699.1999511719</ele>
        <time>2010-12-31T10:09:42.000Z</time>
      </trkpt>
      <trkpt lat="45.96441" lon="6.57496">
        <ele>1700.4000244141</ele>
        <time>2010-12-31T10:09:50.000Z</time>
      </trkpt>
      <trkpt lat="45.96437" lon="6.57492">
        <ele>1701.8000488281</ele>
        <time>2010-12-31T10:09:57.000Z</time>
      </trkpt>
      <trkpt lat="45.96431" lon="6.57486">
        <ele>1703.8000488281</ele>
        <time>2010-12-31T10:10:06.000Z</time>
      </trkpt>
      <trkpt lat="45.96425" lon="6.57476">
        <ele>1705.4000244141</ele>
        <time>2010-12-31T10:10:16.000Z</time>
      </trkpt>
      <trkpt lat="45.96425" lon="6.57475">
        <ele>1705.5999755859</ele>
        <time>2010-12-31T10:10:17.000Z</time>
      </trkpt>
      <trkpt lat="45.96425" lon="6.57466">
        <ele>1707.1999511719</ele>
        <time>2010-12-31T10:10:26.000Z</time>
      </trkpt>
      <trkpt lat="45.96424" lon="6.57457">
        <ele>1709</ele>
        <time>2010-12-31T10:10:36.000Z</time>
      </trkpt>
      <trkpt lat="45.96424" lon="6.57457">
        <ele>1709.4000244141</ele>
        <time>2010-12-31T10:10:37.000Z</time>
      </trkpt>
      <trkpt lat="45.96425" lon="6.57452">
        <ele>1709.8000488281</ele>
        <time>2010-12-31T10:11:24.000Z</time>
      </trkpt>
      <trkpt lat="45.96425" lon="6.57451">
        <ele>1710</ele>
        <time>2010-12-31T10:11:25.000Z</time>
      </trkpt>
      <trkpt lat="45.9643" lon="6.5744">
        <ele>1710.4000244141</ele>
        <time>2010-12-31T10:11:32.000Z</time>
      </trkpt>
      <trkpt lat="45.96437" lon="6.5743">
        <ele>1710.1999511719</ele>
        <time>2010-12-31T10:11:40.000Z</time>
      </trkpt>
      <trkpt lat="45.96443" lon="6.57424">
        <ele>1710</ele>
        <time>2010-12-31T10:11:47.000Z</time>
      </trkpt>
      <trkpt lat="45.96449" lon="6.5742">
        <ele>1709.8000488281</ele>
        <time>2010-12-31T10:11:55.000Z</time>
      </trkpt>
      <trkpt lat="45.96449" lon="6.57419">
        <ele>1709.5999755859</ele>
        <time>2010-12-31T10:11:59.000Z</time>
      </trkpt>
      <trkpt lat="45.96447" lon="6.5742">
        <ele>1709.5999755859</ele>
        <time>2010-12-31T10:12:05.000Z</time>
      </trkpt>
      <trkpt lat="45.96444" lon="6.57409">
        <ele>1710.4000244141</ele>
        <time>2010-12-31T10:14:23.000Z</time>
      </trkpt>
      <trkpt lat="45.96441" lon="6.57406">
        <ele>1710.8000488281</ele>
        <time>2010-12-31T10:14:27.000Z</time>
      </trkpt>
      <trkpt lat="45.96431" lon="6.57397">
        <ele>1713.1999511719</ele>
        <time>2010-12-31T10:14:39.000Z</time>
      </trkpt>
      <trkpt lat="45.96424" lon="6.57394">
        <ele>1715</ele>
        <time>2010-12-31T10:14:48.000Z</time>
      </trkpt>
      <trkpt lat="45.96417" lon="6.57391">
        <ele>1716.1999511719</ele>
        <time>2010-12-31T10:14:57.000Z</time>
      </trkpt>
      <trkpt lat="45.96409" lon="6.57388">
        <ele>1718</ele>
        <time>2010-12-31T10:15:08.000Z</time>
      </trkpt>
      <trkpt lat="45.96402" lon="6.57383">
        <ele>1719.1999511719</ele>
        <time>2010-12-31T10:15:18.000Z</time>
      </trkpt>
      <trkpt lat="45.964" lon="6.5738">
        <ele>1720</ele>
        <time>2010-12-31T10:15:22.000Z</time>
      </trkpt>
      <trkpt lat="45.96399" lon="6.57371">
        <ele>1721.5999755859</ele>
        <time>2010-12-31T10:15:31.000Z</time>
      </trkpt>
      <trkpt lat="45.96395" lon="6.57363">
        <ele>1723.1999511719</ele>
        <time>2010-12-31T10:15:40.000Z</time>
      </trkpt>
      <trkpt lat="45.9639" lon="6.57355">
        <ele>1725</ele>
        <time>2010-12-31T10:15:50.000Z</time>
      </trkpt>
      <trkpt lat="45.96386" lon="6.57348">
        <ele>1727</ele>
        <time>2010-12-31T10:15:59.000Z</time>
      </trkpt>
      <trkpt lat="45.96382" lon="6.5734">
        <ele>1729</ele>
        <time>2010-12-31T10:16:09.000Z</time>
      </trkpt>
      <trkpt lat="45.96377" lon="6.57331">
        <ele>1731.1999511719</ele>
        <time>2010-12-31T10:16:20.000Z</time>
      </trkpt>
      <trkpt lat="45.96374" lon="6.57324">
        <ele>1732.4000244141</ele>
        <time>2010-12-31T10:16:28.000Z</time>
      </trkpt>
      <trkpt lat="45.9637" lon="6.57316">
        <ele>1734</ele>
        <time>2010-12-31T10:16:37.000Z</time>
      </trkpt>
      <trkpt lat="45.96366" lon="6.57308">
        <ele>1735.5999755859</ele>
        <time>2010-12-31T10:16:46.000Z</time>
      </trkpt>
      <trkpt lat="45.96363" lon="6.57301">
        <ele>1737</ele>
        <time>2010-12-31T10:16:53.000Z</time>
      </trkpt>
      <trkpt lat="45.96358" lon="6.57293">
        <ele>1738.8000488281</ele>
        <time>2010-12-31T10:17:02.000Z</time>
      </trkpt>
      <trkpt lat="45.96355" lon="6.57286">
        <ele>1740.4000244141</ele>
        <time>2010-12-31T10:17:10.000Z</time>
      </trkpt>
      <trkpt lat="45.96349" lon="6.57276">
        <ele>1742.4000244141</ele>
        <time>2010-12-31T10:17:20.000Z</time>
      </trkpt>
      <trkpt lat="45.96343" lon="6.57267">
        <ele>1744</ele>
        <time>2010-12-31T10:17:31.000Z</time>
      </trkpt>
      <trkpt lat="45.96339" lon="6.5726">
        <ele>1745</ele>
        <time>2010-12-31T10:17:39.000Z</time>
      </trkpt>
      <trkpt lat="45.96334" lon="6.57254">
        <ele>1746.8000488281</ele>
        <time>2010-12-31T10:17:48.000Z</time>
      </trkpt>
      <trkpt lat="45.9633" lon="6.57248">
        <ele>1748.1999511719</ele>
        <time>2010-12-31T10:17:56.000Z</time>
      </trkpt>
      <trkpt lat="45.96326" lon="6.57242">
        <ele>1749.8000488281</ele>
        <time>2010-12-31T10:18:05.000Z</time>
      </trkpt>
      <trkpt lat="45.9632" lon="6.57235">
        <ele>1751.8000488281</ele>
        <time>2010-12-31T10:18:16.000Z</time>
      </trkpt>
      <trkpt lat="45.96316" lon="6.57228">
        <ele>1753.5999755859</ele>
        <time>2010-12-31T10:18:25.000Z</time>
      </trkpt>
      <trkpt lat="45.96312" lon="6.5722">
        <ele>1755.1999511719</ele>
        <time>2010-12-31T10:18:34.000Z</time>
      </trkpt>
      <trkpt lat="45.9631" lon="6.57215">
        <ele>1756.4000244141</ele>
        <time>2010-12-31T10:18:40.000Z</time>
      </trkpt>
      <trkpt lat="45.96305" lon="6.57206">
        <ele>1758.1999511719</ele>
        <time>2010-12-31T10:18:50.000Z</time>
      </trkpt>
      <trkpt lat="45.96301" lon="6.57198">
        <ele>1759.8000488281</ele>
        <time>2010-12-31T10:18:59.000Z</time>
      </trkpt>
      <trkpt lat="45.96298" lon="6.57188">
        <ele>1761.1999511719</ele>
        <time>2010-12-31T10:19:09.000Z</time>
      </trkpt>
      <trkpt lat="45.96297" lon="6.57179">
        <ele>1763</ele>
        <time>2010-12-31T10:19:18.000Z</time>
      </trkpt>
      <trkpt lat="45.96296" lon="6.57171">
        <ele>1764.4000244141</ele>
        <time>2010-12-31T10:19:26.000Z</time>
      </trkpt>
      <trkpt lat="45.96295" lon="6.57166">
        <ele>1765.1999511719</ele>
        <time>2010-12-31T10:19:31.000Z</time>
      </trkpt>
      <trkpt lat="45.96294" lon="6.57156">
        <ele>1767</ele>
        <time>2010-12-31T10:19:40.000Z</time>
      </trkpt>
      <trkpt lat="45.96292" lon="6.57147">
        <ele>1768.1999511719</ele>
        <time>2010-12-31T10:19:48.000Z</time>
      </trkpt>
      <trkpt lat="45.9629" lon="6.57138">
        <ele>1769.5999755859</ele>
        <time>2010-12-31T10:19:56.000Z</time>
      </trkpt>
      <trkpt lat="45.96286" lon="6.57132">
        <ele>1771.1999511719</ele>
        <time>2010-12-31T10:20:04.000Z</time>
      </trkpt>
      <trkpt lat="45.96281" lon="6.57125">
        <ele>1773</ele>
        <time>2010-12-31T10:20:13.000Z</time>
      </trkpt>
      <trkpt lat="45.96277" lon="6.57119">
        <ele>1774.8000488281</ele>
        <time>2010-12-31T10:20:22.000Z</time>
      </trkpt>
      <trkpt lat="45.96271" lon="6.57112">
        <ele>1776.8000488281</ele>
        <time>2010-12-31T10:20:32.000Z</time>
      </trkpt>
      <trkpt lat="45.96266" lon="6.57107">
        <ele>1778.8000488281</ele>
        <time>2010-12-31T10:20:41.000Z</time>
      </trkpt>
      <trkpt lat="45.9626" lon="6.57103">
        <ele>1780.4000244141</ele>
        <time>2010-12-31T10:20:50.000Z</time>
      </trkpt>
      <trkpt lat="45.96253" lon="6.57097">
        <ele>1782.1999511719</ele>
        <time>2010-12-31T10:21:01.000Z</time>
      </trkpt>
      <trkpt lat="45.96249" lon="6.57091">
        <ele>1783.5999755859</ele>
        <time>2010-12-31T10:21:09.000Z</time>
      </trkpt>
      <trkpt lat="45.96243" lon="6.57082">
        <ele>1784.8000488281</ele>
        <time>2010-12-31T10:21:19.000Z</time>
      </trkpt>
      <trkpt lat="45.9624" lon="6.57076">
        <ele>1786.1999511719</ele>
        <time>2010-12-31T10:21:27.000Z</time>
      </trkpt>
      <trkpt lat="45.96239" lon="6.5707">
        <ele>1788</ele>
        <time>2010-12-31T10:21:34.000Z</time>
      </trkpt>
      <trkpt lat="45.96238" lon="6.57062">
        <ele>1789.5999755859</ele>
        <time>2010-12-31T10:21:43.000Z</time>
      </trkpt>
      <trkpt lat="45.96234" lon="6.57052">
        <ele>1791.5999755859</ele>
        <time>2010-12-31T10:21:54.000Z</time>
      </trkpt>
      <trkpt lat="45.9623" lon="6.57046">
        <ele>1793.1999511719</ele>
        <time>2010-12-31T10:22:03.000Z</time>
      </trkpt>
      <trkpt lat="45.96225" lon="6.5704">
        <ele>1794.8000488281</ele>
        <time>2010-12-31T10:22:12.000Z</time>
      </trkpt>
      <trkpt lat="45.96221" lon="6.57034">
        <ele>1796.5999755859</ele>
        <time>2010-12-31T10:22:21.000Z</time>
      </trkpt>
      <trkpt lat="45.96217" lon="6.5703">
        <ele>1798.1999511719</ele>
        <time>2010-12-31T10:22:29.000Z</time>
      </trkpt>
      <trkpt lat="45.96212" lon="6.57027">
        <ele>1799.4000244141</ele>
        <time>2010-12-31T10:22:41.000Z</time>
      </trkpt>
      <trkpt lat="45.96205" lon="6.57022">
        <ele>1801.1999511719</ele>
        <time>2010-12-31T10:22:51.000Z</time>
      </trkpt>
      <trkpt lat="45.96198" lon="6.57018">
        <ele>1803</ele>
        <time>2010-12-31T10:23:00.000Z</time>
      </trkpt>
      <trkpt lat="45.9619" lon="6.57016">
        <ele>1804.8000488281</ele>
        <time>2010-12-31T10:23:10.000Z</time>
      </trkpt>
      <trkpt lat="45.9619" lon="6.57015">
        <ele>1805.4000244141</ele>
        <time>2010-12-31T10:23:12.000Z</time>
      </trkpt>
      <trkpt lat="45.96183" lon="6.5701">
        <ele>1807.5999755859</ele>
        <time>2010-12-31T10:23:30.000Z</time>
      </trkpt>
      <trkpt lat="45.96182" lon="6.57008">
        <ele>1808</ele>
        <time>2010-12-31T10:23:32.000Z</time>
      </trkpt>
      <trkpt lat="45.96178" lon="6.56998">
        <ele>1810.5999755859</ele>
        <time>2010-12-31T10:23:43.000Z</time>
      </trkpt>
      <trkpt lat="45.96174" lon="6.56989">
        <ele>1812.1999511719</ele>
        <time>2010-12-31T10:23:52.000Z</time>
      </trkpt>
      <trkpt lat="45.96172" lon="6.5698">
        <ele>1813.8000488281</ele>
        <time>2010-12-31T10:24:01.000Z</time>
      </trkpt>
      <trkpt lat="45.96168" lon="6.56973">
        <ele>1815.5999755859</ele>
        <time>2010-12-31T10:24:10.000Z</time>
      </trkpt>
      <trkpt lat="45.96166" lon="6.5697">
        <ele>1816.4000244141</ele>
        <time>2010-12-31T10:24:14.000Z</time>
      </trkpt>
      <trkpt lat="45.96164" lon="6.56968">
        <ele>1816.8000488281</ele>
        <time>2010-12-31T10:24:17.000Z</time>
      </trkpt>
      <trkpt lat="45.96157" lon="6.56964">
        <ele>1818.5999755859</ele>
        <time>2010-12-31T10:24:26.000Z</time>
      </trkpt>
      <trkpt lat="45.96153" lon="6.5696">
        <ele>1820.4000244141</ele>
        <time>2010-12-31T10:24:34.000Z</time>
      </trkpt>
      <trkpt lat="45.96153" lon="6.56956">
        <ele>1821.4000244141</ele>
        <time>2010-12-31T10:24:39.000Z</time>
      </trkpt>
      <trkpt lat="45.96152" lon="6.56947">
        <ele>1823</ele>
        <time>2010-12-31T10:24:48.000Z</time>
      </trkpt>
      <trkpt lat="45.96151" lon="6.56942">
        <ele>1824.4000244141</ele>
        <time>2010-12-31T10:24:54.000Z</time>
      </trkpt>
      <trkpt lat="45.9615" lon="6.56938">
        <ele>1825.4000244141</ele>
        <time>2010-12-31T10:24:58.000Z</time>
      </trkpt>
      <trkpt lat="45.96146" lon="6.56929">
        <ele>1827</ele>
        <time>2010-12-31T10:25:07.000Z</time>
      </trkpt>
      <trkpt lat="45.96141" lon="6.56919">
        <ele>1828.8000488281</ele>
        <time>2010-12-31T10:25:18.000Z</time>
      </trkpt>
      <trkpt lat="45.96137" lon="6.5691">
        <ele>1830.5999755859</ele>
        <time>2010-12-31T10:25:28.000Z</time>
      </trkpt>
      <trkpt lat="45.96135" lon="6.56905">
        <ele>1831.8000488281</ele>
        <time>2010-12-31T10:25:34.000Z</time>
      </trkpt>
      <trkpt lat="45.96133" lon="6.569">
        <ele>1833.1999511719</ele>
        <time>2010-12-31T10:25:40.000Z</time>
      </trkpt>
      <trkpt lat="45.9613" lon="6.56897">
        <ele>1834.5999755859</ele>
        <time>2010-12-31T10:25:46.000Z</time>
      </trkpt>
      <trkpt lat="45.96123" lon="6.56895">
        <ele>1836.8000488281</ele>
        <time>2010-12-31T10:25:57.000Z</time>
      </trkpt>
      <trkpt lat="45.96119" lon="6.56892">
        <ele>1838</ele>
        <time>2010-12-31T10:26:03.000Z</time>
      </trkpt>
      <trkpt lat="45.96114" lon="6.56888">
        <ele>1839.4000244141</ele>
        <time>2010-12-31T10:26:11.000Z</time>
      </trkpt>
      <trkpt lat="45.96112" lon="6.56885">
        <ele>1840.4000244141</ele>
        <time>2010-12-31T10:26:17.000Z</time>
      </trkpt>
      <trkpt lat="45.96109" lon="6.56883">
        <ele>1841.1999511719</ele>
        <time>2010-12-31T10:26:22.000Z</time>
      </trkpt>
      <trkpt lat="45.96102" lon="6.56882">
        <ele>1842.1999511719</ele>
        <time>2010-12-31T10:26:29.000Z</time>
      </trkpt>
      <trkpt lat="45.96096" lon="6.56882">
        <ele>1843.5999755859</ele>
        <time>2010-12-31T10:26:36.000Z</time>
      </trkpt>
      <trkpt lat="45.96092" lon="6.56885">
        <ele>1844.5999755859</ele>
        <time>2010-12-31T10:26:43.000Z</time>
      </trkpt>
      <trkpt lat="45.96089" lon="6.56888">
        <ele>1845.8000488281</ele>
        <time>2010-12-31T10:26:48.000Z</time>
      </trkpt>
      <trkpt lat="45.96088" lon="6.56888">
        <ele>1845.8000488281</ele>
        <time>2010-12-31T10:26:49.000Z</time>
      </trkpt>
      <trkpt lat="45.96081" lon="6.56891">
        <ele>1847.1999511719</ele>
        <time>2010-12-31T10:26:56.000Z</time>
      </trkpt>
      <trkpt lat="45.96077" lon="6.56895">
        <ele>1848.5999755859</ele>
        <time>2010-12-31T10:27:02.000Z</time>
      </trkpt>
      <trkpt lat="45.96074" lon="6.56898">
        <ele>1850</ele>
        <time>2010-12-31T10:27:08.000Z</time>
      </trkpt>
      <trkpt lat="45.96073" lon="6.56899">
        <ele>1850.5999755859</ele>
        <time>2010-12-31T10:27:11.000Z</time>
      </trkpt>
      <trkpt lat="45.96067" lon="6.569">
        <ele>1851.5999755859</ele>
        <time>2010-12-31T10:27:21.000Z</time>
      </trkpt>
      <trkpt lat="45.96066" lon="6.56901">
        <ele>1852</ele>
        <time>2010-12-31T10:27:23.000Z</time>
      </trkpt>
      <trkpt lat="45.96065" lon="6.56894">
        <ele>1853.5999755859</ele>
        <time>2010-12-31T10:27:32.000Z</time>
      </trkpt>
      <trkpt lat="45.96065" lon="6.56893">
        <ele>1854</ele>
        <time>2010-12-31T10:27:34.000Z</time>
      </trkpt>
      <trkpt lat="45.96064" lon="6.56887">
        <ele>1855.4000244141</ele>
        <time>2010-12-31T10:27:41.000Z</time>
      </trkpt>
      <trkpt lat="45.9606" lon="6.56881">
        <ele>1856.5999755859</ele>
        <time>2010-12-31T10:27:47.000Z</time>
      </trkpt>
      <trkpt lat="45.9606" lon="6.56876">
        <ele>1857.8000488281</ele>
        <time>2010-12-31T10:27:53.000Z</time>
      </trkpt>
      <trkpt lat="45.96052" lon="6.56875">
        <ele>1859.4000244141</ele>
        <time>2010-12-31T10:28:01.000Z</time>
      </trkpt>
      <trkpt lat="45.96047" lon="6.56876">
        <ele>1860.5999755859</ele>
        <time>2010-12-31T10:28:06.000Z</time>
      </trkpt>
      <trkpt lat="45.96041" lon="6.56878">
        <ele>1862</ele>
        <time>2010-12-31T10:28:13.000Z</time>
      </trkpt>
      <trkpt lat="45.96039" lon="6.56882">
        <ele>1863.4000244141</ele>
        <time>2010-12-31T10:28:20.000Z</time>
      </trkpt>
      <trkpt lat="45.96037" lon="6.56883">
        <ele>1864</ele>
        <time>2010-12-31T10:28:23.000Z</time>
      </trkpt>
      <trkpt lat="45.96038" lon="6.56879">
        <ele>1865</ele>
        <time>2010-12-31T10:28:29.000Z</time>
      </trkpt>
      <trkpt lat="45.96038" lon="6.56868">
        <ele>1867</ele>
        <time>2010-12-31T10:28:38.000Z</time>
      </trkpt>
      <trkpt lat="45.96036" lon="6.56857">
        <ele>1869</ele>
        <time>2010-12-31T10:28:48.000Z</time>
      </trkpt>
      <trkpt lat="45.96037" lon="6.56852">
        <ele>1870.4000244141</ele>
        <time>2010-12-31T10:28:54.000Z</time>
      </trkpt>
      <trkpt lat="45.96037" lon="6.56846">
        <ele>1871.4000244141</ele>
        <time>2010-12-31T10:29:00.000Z</time>
      </trkpt>
      <trkpt lat="45.96036" lon="6.56841">
        <ele>1873</ele>
        <time>2010-12-31T10:29:07.000Z</time>
      </trkpt>
      <trkpt lat="45.96034" lon="6.5684">
        <ele>1873.4000244141</ele>
        <time>2010-12-31T10:29:09.000Z</time>
      </trkpt>
      <trkpt lat="45.96028" lon="6.56841">
        <ele>1874.1999511719</ele>
        <time>2010-12-31T10:29:16.000Z</time>
      </trkpt>
      <trkpt lat="45.96022" lon="6.56843">
        <ele>1875.8000488281</ele>
        <time>2010-12-31T10:29:23.000Z</time>
      </trkpt>
      <trkpt lat="45.96019" lon="6.56844">
        <ele>1876.8000488281</ele>
        <time>2010-12-31T10:29:28.000Z</time>
      </trkpt>
      <trkpt lat="45.96016" lon="6.56847">
        <ele>1878.4000244141</ele>
        <time>2010-12-31T10:29:35.000Z</time>
      </trkpt>
      <trkpt lat="45.9601" lon="6.56847">
        <ele>1879.5999755859</ele>
        <time>2010-12-31T10:29:41.000Z</time>
      </trkpt>
      <trkpt lat="45.96007" lon="6.56847">
        <ele>1880.5999755859</ele>
        <time>2010-12-31T10:29:45.000Z</time>
      </trkpt>
      <trkpt lat="45.95997" lon="6.5685">
        <ele>1883.5999755859</ele>
        <time>2010-12-31T10:30:03.000Z</time>
      </trkpt>
      <trkpt lat="45.95992" lon="6.56851">
        <ele>1884.4000244141</ele>
        <time>2010-12-31T10:30:08.000Z</time>
      </trkpt>
      <trkpt lat="45.95988" lon="6.56851">
        <ele>1885.5999755859</ele>
        <time>2010-12-31T10:30:13.000Z</time>
      </trkpt>
      <trkpt lat="45.95986" lon="6.56846">
        <ele>1886.8000488281</ele>
        <time>2010-12-31T10:30:22.000Z</time>
      </trkpt>
      <trkpt lat="45.95986" lon="6.56841">
        <ele>1887.8000488281</ele>
        <time>2010-12-31T10:30:27.000Z</time>
      </trkpt>
      <trkpt lat="45.9599" lon="6.56833">
        <ele>1889.4000244141</ele>
        <time>2010-12-31T10:30:36.000Z</time>
      </trkpt>
      <trkpt lat="45.95992" lon="6.56828">
        <ele>1890.8000488281</ele>
        <time>2010-12-31T10:30:42.000Z</time>
      </trkpt>
      <trkpt lat="45.95995" lon="6.5682">
        <ele>1892.4000244141</ele>
        <time>2010-12-31T10:30:51.000Z</time>
      </trkpt>
      <trkpt lat="45.95997" lon="6.56814">
        <ele>1893.8000488281</ele>
        <time>2010-12-31T10:30:58.000Z</time>
      </trkpt>
      <trkpt lat="45.96" lon="6.56808">
        <ele>1894.8000488281</ele>
        <time>2010-12-31T10:31:04.000Z</time>
      </trkpt>
      <trkpt lat="45.95999" lon="6.56803">
        <ele>1896</ele>
        <time>2010-12-31T10:31:10.000Z</time>
      </trkpt>
      <trkpt lat="45.95998" lon="6.56793">
        <ele>1897.5999755859</ele>
        <time>2010-12-31T10:31:18.000Z</time>
      </trkpt>
      <trkpt lat="45.95998" lon="6.56786">
        <ele>1898.8000488281</ele>
        <time>2010-12-31T10:31:24.000Z</time>
      </trkpt>
      <trkpt lat="45.95999" lon="6.56781">
        <ele>1899.8000488281</ele>
        <time>2010-12-31T10:31:30.000Z</time>
      </trkpt>
      <trkpt lat="45.95997" lon="6.56773">
        <ele>1901.4000244141</ele>
        <time>2010-12-31T10:31:38.000Z</time>
      </trkpt>
      <trkpt lat="45.95997" lon="6.56764">
        <ele>1903.1999511719</ele>
        <time>2010-12-31T10:31:48.000Z</time>
      </trkpt>
      <trkpt lat="45.95994" lon="6.56761">
        <ele>1904.1999511719</ele>
        <time>2010-12-31T10:31:53.000Z</time>
      </trkpt>
      <trkpt lat="45.95989" lon="6.56763">
        <ele>1905.1999511719</ele>
        <time>2010-12-31T10:31:58.000Z</time>
      </trkpt>
      <trkpt lat="45.95988" lon="6.56764">
        <ele>1905.5999755859</ele>
        <time>2010-12-31T10:31:59.000Z</time>
      </trkpt>
      <trkpt lat="45.95983" lon="6.56769">
        <ele>1907.1999511719</ele>
        <time>2010-12-31T10:32:07.000Z</time>
      </trkpt>
      <trkpt lat="45.95976" lon="6.56773">
        <ele>1908.8000488281</ele>
        <time>2010-12-31T10:32:15.000Z</time>
      </trkpt>
      <trkpt lat="45.95968" lon="6.56773">
        <ele>1910.1999511719</ele>
        <time>2010-12-31T10:32:21.000Z</time>
      </trkpt>
      <trkpt lat="45.95965" lon="6.56775">
        <ele>1910.8000488281</ele>
        <time>2010-12-31T10:32:25.000Z</time>
      </trkpt>
      <trkpt lat="45.95963" lon="6.56777">
        <ele>1911.8000488281</ele>
        <time>2010-12-31T10:32:30.000Z</time>
      </trkpt>
      <trkpt lat="45.95958" lon="6.56778">
        <ele>1913</ele>
        <time>2010-12-31T10:32:36.000Z</time>
      </trkpt>
      <trkpt lat="45.95956" lon="6.56782">
        <ele>1914.1999511719</ele>
        <time>2010-12-31T10:32:42.000Z</time>
      </trkpt>
      <trkpt lat="45.95955" lon="6.56786">
        <ele>1915.4000244141</ele>
        <time>2010-12-31T10:32:48.000Z</time>
      </trkpt>
      <trkpt lat="45.95952" lon="6.56789">
        <ele>1916.5999755859</ele>
        <time>2010-12-31T10:32:54.000Z</time>
      </trkpt>
      <trkpt lat="45.95949" lon="6.56791">
        <ele>1917.8000488281</ele>
        <time>2010-12-31T10:33:00.000Z</time>
      </trkpt>
      <trkpt lat="45.95946" lon="6.56793">
        <ele>1918.8000488281</ele>
        <time>2010-12-31T10:33:05.000Z</time>
      </trkpt>
      <trkpt lat="45.95941" lon="6.56792">
        <ele>1921.4000244141</ele>
        <time>2010-12-31T10:33:21.000Z</time>
      </trkpt>
      <trkpt lat="45.95941" lon="6.56784">
        <ele>1923</ele>
        <time>2010-12-31T10:33:29.000Z</time>
      </trkpt>
      <trkpt lat="45.95943" lon="6.56777">
        <ele>1924.1999511719</ele>
        <time>2010-12-31T10:33:36.000Z</time>
      </trkpt>
      <trkpt lat="45.95944" lon="6.56772">
        <ele>1925.1999511719</ele>
        <time>2010-12-31T10:33:41.000Z</time>
      </trkpt>
      <trkpt lat="45.95944" lon="6.56772">
        <ele>1925.8000488281</ele>
        <time>2010-12-31T10:33:43.000Z</time>
      </trkpt>
      <trkpt lat="45.95945" lon="6.56767">
        <ele>1926.1999511719</ele>
        <time>2010-12-31T10:33:53.000Z</time>
      </trkpt>
      <trkpt lat="45.95945" lon="6.56759">
        <ele>1927.8000488281</ele>
        <time>2010-12-31T10:34:00.000Z</time>
      </trkpt>
      <trkpt lat="45.95944" lon="6.56752">
        <ele>1929</ele>
        <time>2010-12-31T10:34:06.000Z</time>
      </trkpt>
      <trkpt lat="45.95944" lon="6.56749">
        <ele>1929.5999755859</ele>
        <time>2010-12-31T10:34:09.000Z</time>
      </trkpt>
      <trkpt lat="45.95942" lon="6.56753">
        <ele>1930.4000244141</ele>
        <time>2010-12-31T10:34:15.000Z</time>
      </trkpt>
      <trkpt lat="45.95938" lon="6.56755">
        <ele>1931.1999511719</ele>
        <time>2010-12-31T10:34:20.000Z</time>
      </trkpt>
      <trkpt lat="45.95933" lon="6.56757">
        <ele>1932.1999511719</ele>
        <time>2010-12-31T10:34:25.000Z</time>
      </trkpt>
      <trkpt lat="45.95925" lon="6.5676">
        <ele>1933.5999755859</ele>
        <time>2010-12-31T10:34:32.000Z</time>
      </trkpt>
      <trkpt lat="45.95923" lon="6.56761">
        <ele>1934.8000488281</ele>
        <time>2010-12-31T10:34:39.000Z</time>
      </trkpt>
      <trkpt lat="45.95923" lon="6.56758">
        <ele>1935.5999755859</ele>
        <time>2010-12-31T10:34:43.000Z</time>
      </trkpt>
      <trkpt lat="45.95925" lon="6.56747">
        <ele>1937</ele>
        <time>2010-12-31T10:34:51.000Z</time>
      </trkpt>
      <trkpt lat="45.95926" lon="6.56742">
        <ele>1937.8000488281</ele>
        <time>2010-12-31T10:34:56.000Z</time>
      </trkpt>
      <trkpt lat="45.95927" lon="6.56738">
        <ele>1938.5999755859</ele>
        <time>2010-12-31T10:35:00.000Z</time>
      </trkpt>
      <trkpt lat="45.95929" lon="6.5673">
        <ele>1939.8000488281</ele>
        <time>2010-12-31T10:35:07.000Z</time>
      </trkpt>
      <trkpt lat="45.9593" lon="6.5673">
        <ele>1940</ele>
        <time>2010-12-31T10:35:08.000Z</time>
      </trkpt>
      <trkpt lat="45.95931" lon="6.56726">
        <ele>1940.5999755859</ele>
        <time>2010-12-31T10:35:13.000Z</time>
      </trkpt>
      <trkpt lat="45.95932" lon="6.56723">
        <ele>1941.5999755859</ele>
        <time>2010-12-31T10:35:18.000Z</time>
      </trkpt>
      <trkpt lat="45.95926" lon="6.56728">
        <ele>1942.8000488281</ele>
        <time>2010-12-31T10:35:27.000Z</time>
      </trkpt>
      <trkpt lat="45.95924" lon="6.56733">
        <ele>1943.8000488281</ele>
        <time>2010-12-31T10:35:33.000Z</time>
      </trkpt>
      <trkpt lat="45.95919" lon="6.56735">
        <ele>1945</ele>
        <time>2010-12-31T10:35:39.000Z</time>
      </trkpt>
      <trkpt lat="45.95914" lon="6.56737">
        <ele>1946</ele>
        <time>2010-12-31T10:35:44.000Z</time>
      </trkpt>
      <trkpt lat="45.95912" lon="6.5674">
        <ele>1947</ele>
        <time>2010-12-31T10:35:49.000Z</time>
      </trkpt>
      <trkpt lat="45.95911" lon="6.5674">
        <ele>1947.4000244141</ele>
        <time>2010-12-31T10:35:52.000Z</time>
      </trkpt>
      <trkpt lat="45.95909" lon="6.56732">
        <ele>1948.8000488281</ele>
        <time>2010-12-31T10:36:01.000Z</time>
      </trkpt>
      <trkpt lat="45.95909" lon="6.56721">
        <ele>1950.5999755859</ele>
        <time>2010-12-31T10:36:10.000Z</time>
      </trkpt>
      <trkpt lat="45.9591" lon="6.56718">
        <ele>1951</ele>
        <time>2010-12-31T10:36:13.000Z</time>
      </trkpt>
      <trkpt lat="45.95911" lon="6.56709">
        <ele>1952.4000244141</ele>
        <time>2010-12-31T10:36:20.000Z</time>
      </trkpt>
      <trkpt lat="45.95911" lon="6.56705">
        <ele>1953.4000244141</ele>
        <time>2010-12-31T10:36:26.000Z</time>
      </trkpt>
      <trkpt lat="45.95909" lon="6.56705">
        <ele>1954</ele>
        <time>2010-12-31T10:36:30.000Z</time>
      </trkpt>
      <trkpt lat="45.95903" lon="6.56709">
        <ele>1955.5999755859</ele>
        <time>2010-12-31T10:36:39.000Z</time>
      </trkpt>
      <trkpt lat="45.95897" lon="6.56712">
        <ele>1957</ele>
        <time>2010-12-31T10:36:48.000Z</time>
      </trkpt>
      <trkpt lat="45.95899" lon="6.56705">
        <ele>1958.5999755859</ele>
        <time>2010-12-31T10:36:59.000Z</time>
      </trkpt>
      <trkpt lat="45.95901" lon="6.567">
        <ele>1959.5999755859</ele>
        <time>2010-12-31T10:37:04.000Z</time>
      </trkpt>
      <trkpt lat="45.95904" lon="6.56692">
        <ele>1960.8000488281</ele>
        <time>2010-12-31T10:37:11.000Z</time>
      </trkpt>
      <trkpt lat="45.95905" lon="6.5669">
        <ele>1961.5999755859</ele>
        <time>2010-12-31T10:37:15.000Z</time>
      </trkpt>
      <trkpt lat="45.959" lon="6.56691">
        <ele>1962.4000244141</ele>
        <time>2010-12-31T10:37:22.000Z</time>
      </trkpt>
      <trkpt lat="45.95896" lon="6.56692">
        <ele>1963</ele>
        <time>2010-12-31T10:37:26.000Z</time>
      </trkpt>
      <trkpt lat="45.95889" lon="6.56694">
        <ele>1964.4000244141</ele>
        <time>2010-12-31T10:37:33.000Z</time>
      </trkpt>
      <trkpt lat="45.95884" lon="6.56696">
        <ele>1965.8000488281</ele>
        <time>2010-12-31T10:37:40.000Z</time>
      </trkpt>
      <trkpt lat="45.9588" lon="6.56697">
        <ele>1966.8000488281</ele>
        <time>2010-12-31T10:37:47.000Z</time>
      </trkpt>
      <trkpt lat="45.95877" lon="6.56699">
        <ele>1968</ele>
        <time>2010-12-31T10:37:52.000Z</time>
      </trkpt>
      <trkpt lat="45.95882" lon="6.56695">
        <ele>1969</ele>
        <time>2010-12-31T10:38:00.000Z</time>
      </trkpt>
      <trkpt lat="45.95884" lon="6.56687">
        <ele>1970.5999755859</ele>
        <time>2010-12-31T10:38:08.000Z</time>
      </trkpt>
      <trkpt lat="45.95886" lon="6.56681">
        <ele>1972.1999511719</ele>
        <time>2010-12-31T10:38:15.000Z</time>
      </trkpt>
      <trkpt lat="45.95886" lon="6.56678">
        <ele>1972.8000488281</ele>
        <time>2010-12-31T10:38:18.000Z</time>
      </trkpt>
      <trkpt lat="45.95886" lon="6.56672">
        <ele>1973.8000488281</ele>
        <time>2010-12-31T10:38:24.000Z</time>
      </trkpt>
      <trkpt lat="45.95885" lon="6.5667">
        <ele>1974.4000244141</ele>
        <time>2010-12-31T10:38:27.000Z</time>
      </trkpt>
      <trkpt lat="45.95881" lon="6.56671">
        <ele>1975</ele>
        <time>2010-12-31T10:38:34.000Z</time>
      </trkpt>
      <trkpt lat="45.95874" lon="6.56676">
        <ele>1976.8000488281</ele>
        <time>2010-12-31T10:38:43.000Z</time>
      </trkpt>
      <trkpt lat="45.9587" lon="6.56679">
        <ele>1977.8000488281</ele>
        <time>2010-12-31T10:38:49.000Z</time>
      </trkpt>
      <trkpt lat="45.95869" lon="6.56679">
        <ele>1978</ele>
        <time>2010-12-31T10:38:50.000Z</time>
      </trkpt>
      <trkpt lat="45.95869" lon="6.56669">
        <ele>1979.8000488281</ele>
        <time>2010-12-31T10:39:02.000Z</time>
      </trkpt>
      <trkpt lat="45.95872" lon="6.56661">
        <ele>1981</ele>
        <time>2010-12-31T10:39:09.000Z</time>
      </trkpt>
      <trkpt lat="45.95873" lon="6.56654">
        <ele>1981.8000488281</ele>
        <time>2010-12-31T10:39:14.000Z</time>
      </trkpt>
      <trkpt lat="45.95875" lon="6.56648">
        <ele>1982.8000488281</ele>
        <time>2010-12-31T10:39:19.000Z</time>
      </trkpt>
      <trkpt lat="45.95876" lon="6.56643">
        <ele>1983.8000488281</ele>
        <time>2010-12-31T10:39:24.000Z</time>
      </trkpt>
      <trkpt lat="45.95875" lon="6.56638">
        <ele>1985.4000244141</ele>
        <time>2010-12-31T10:39:33.000Z</time>
      </trkpt>
      <trkpt lat="45.9587" lon="6.5664">
        <ele>1985.8000488281</ele>
        <time>2010-12-31T10:39:40.000Z</time>
      </trkpt>
      <trkpt lat="45.95862" lon="6.56644">
        <ele>1987.4000244141</ele>
        <time>2010-12-31T10:39:49.000Z</time>
      </trkpt>
      <trkpt lat="45.95856" lon="6.56647">
        <ele>1988.4000244141</ele>
        <time>2010-12-31T10:39:56.000Z</time>
      </trkpt>
      <trkpt lat="45.95852" lon="6.5665">
        <ele>1989.8000488281</ele>
        <time>2010-12-31T10:40:02.000Z</time>
      </trkpt>
      <trkpt lat="45.95849" lon="6.56652">
        <ele>1990.4000244141</ele>
        <time>2010-12-31T10:40:06.000Z</time>
      </trkpt>
      <trkpt lat="45.95846" lon="6.56654">
        <ele>1991.4000244141</ele>
        <time>2010-12-31T10:40:12.000Z</time>
      </trkpt>
      <trkpt lat="45.95845" lon="6.56655">
        <ele>1992</ele>
        <time>2010-12-31T10:40:15.000Z</time>
      </trkpt>
      <trkpt lat="45.95847" lon="6.56647">
        <ele>1993.5999755859</ele>
        <time>2010-12-31T10:40:31.000Z</time>
      </trkpt>
      <trkpt lat="45.95848" lon="6.56645">
        <ele>1994.1999511719</ele>
        <time>2010-12-31T10:40:34.000Z</time>
      </trkpt>
      <trkpt lat="45.95851" lon="6.56635">
        <ele>1995.4000244141</ele>
        <time>2010-12-31T10:40:41.000Z</time>
      </trkpt>
      <trkpt lat="45.95853" lon="6.56629">
        <ele>1996.4000244141</ele>
        <time>2010-12-31T10:40:47.000Z</time>
      </trkpt>
      <trkpt lat="45.95855" lon="6.56621">
        <ele>1998.1999511719</ele>
        <time>2010-12-31T10:40:58.000Z</time>
      </trkpt>
      <trkpt lat="45.95856" lon="6.56618">
        <ele>1999.4000244141</ele>
        <time>2010-12-31T10:41:04.000Z</time>
      </trkpt>
      <trkpt lat="45.95859" lon="6.56614">
        <ele>2000</ele>
        <time>2010-12-31T10:41:11.000Z</time>
      </trkpt>
      <trkpt lat="45.95861" lon="6.56605">
        <ele>2002</ele>
        <time>2010-12-31T10:41:21.000Z</time>
      </trkpt>
      <trkpt lat="45.95861" lon="6.56598">
        <ele>2003.4000244141</ele>
        <time>2010-12-31T10:41:30.000Z</time>
      </trkpt>
      <trkpt lat="45.95859" lon="6.5659">
        <ele>2005</ele>
        <time>2010-12-31T10:41:38.000Z</time>
      </trkpt>
      <trkpt lat="45.95858" lon="6.56584">
        <ele>2006</ele>
        <time>2010-12-31T10:41:43.000Z</time>
      </trkpt>
      <trkpt lat="45.9586" lon="6.56577">
        <ele>2007</ele>
        <time>2010-12-31T10:41:49.000Z</time>
      </trkpt>
      <trkpt lat="45.95858" lon="6.5657">
        <ele>2008</ele>
        <time>2010-12-31T10:41:55.000Z</time>
      </trkpt>
      <trkpt lat="45.95857" lon="6.56565">
        <ele>2009</ele>
        <time>2010-12-31T10:42:00.000Z</time>
      </trkpt>
      <trkpt lat="45.95855" lon="6.56553">
        <ele>2011</ele>
        <time>2010-12-31T10:42:12.000Z</time>
      </trkpt>
      <trkpt lat="45.95853" lon="6.56547">
        <ele>2012.1999511719</ele>
        <time>2010-12-31T10:42:19.000Z</time>
      </trkpt>
      <trkpt lat="45.95849" lon="6.56548">
        <ele>2012.5999755859</ele>
        <time>2010-12-31T10:42:24.000Z</time>
      </trkpt>
      <trkpt lat="45.95839" lon="6.5655">
        <ele>2014.1999511719</ele>
        <time>2010-12-31T10:42:34.000Z</time>
      </trkpt>
      <trkpt lat="45.95833" lon="6.56551">
        <ele>2015.5999755859</ele>
        <time>2010-12-31T10:42:40.000Z</time>
      </trkpt>
      <trkpt lat="45.95827" lon="6.56551">
        <ele>2016.4000244141</ele>
        <time>2010-12-31T10:42:46.000Z</time>
      </trkpt>
      <trkpt lat="45.95822" lon="6.56551">
        <ele>2017.5999755859</ele>
        <time>2010-12-31T10:42:52.000Z</time>
      </trkpt>
      <trkpt lat="45.9582" lon="6.56552">
        <ele>2018</ele>
        <time>2010-12-31T10:42:56.000Z</time>
      </trkpt>
      <trkpt lat="45.95817" lon="6.56554">
        <ele>2018.5999755859</ele>
        <time>2010-12-31T10:43:01.000Z</time>
      </trkpt>
      <trkpt lat="45.95813" lon="6.56555">
        <ele>2019.5999755859</ele>
        <time>2010-12-31T10:43:06.000Z</time>
      </trkpt>
      <trkpt lat="45.95808" lon="6.56556">
        <ele>2021</ele>
        <time>2010-12-31T10:43:14.000Z</time>
      </trkpt>
      <trkpt lat="45.95805" lon="6.5656">
        <ele>2022.1999511719</ele>
        <time>2010-12-31T10:43:21.000Z</time>
      </trkpt>
      <trkpt lat="45.95803" lon="6.56564">
        <ele>2023.4000244141</ele>
        <time>2010-12-31T10:43:27.000Z</time>
      </trkpt>
      <trkpt lat="45.958" lon="6.56565">
        <ele>2023.8000488281</ele>
        <time>2010-12-31T10:43:31.000Z</time>
      </trkpt>
      <trkpt lat="45.95802" lon="6.56573">
        <ele>2025.1999511719</ele>
        <time>2010-12-31T10:43:40.000Z</time>
      </trkpt>
      <trkpt lat="45.95801" lon="6.56575">
        <ele>2026</ele>
        <time>2010-12-31T10:43:44.000Z</time>
      </trkpt>
      <trkpt lat="45.95804" lon="6.56569">
        <ele>2027.1999511719</ele>
        <time>2010-12-31T10:43:54.000Z</time>
      </trkpt>
      <trkpt lat="45.95806" lon="6.56564">
        <ele>2028.1999511719</ele>
        <time>2010-12-31T10:43:59.000Z</time>
      </trkpt>
      <trkpt lat="45.95809" lon="6.56556">
        <ele>2029.5999755859</ele>
        <time>2010-12-31T10:44:07.000Z</time>
      </trkpt>
      <trkpt lat="45.95813" lon="6.56547">
        <ele>2031</ele>
        <time>2010-12-31T10:44:15.000Z</time>
      </trkpt>
      <trkpt lat="45.95813" lon="6.56543">
        <ele>2032.1999511719</ele>
        <time>2010-12-31T10:44:22.000Z</time>
      </trkpt>
      <trkpt lat="45.95813" lon="6.5654">
        <ele>2033</ele>
        <time>2010-12-31T10:44:27.000Z</time>
      </trkpt>
      <trkpt lat="45.95804" lon="6.56538">
        <ele>2034.1999511719</ele>
        <time>2010-12-31T10:44:39.000Z</time>
      </trkpt>
      <trkpt lat="45.95796" lon="6.5654">
        <ele>2035.5999755859</ele>
        <time>2010-12-31T10:44:47.000Z</time>
      </trkpt>
      <trkpt lat="45.95792" lon="6.56542">
        <ele>2037</ele>
        <time>2010-12-31T10:44:54.000Z</time>
      </trkpt>
      <trkpt lat="45.95785" lon="6.56543">
        <ele>2038.1999511719</ele>
        <time>2010-12-31T10:45:02.000Z</time>
      </trkpt>
      <trkpt lat="45.95781" lon="6.56543">
        <ele>2039</ele>
        <time>2010-12-31T10:45:07.000Z</time>
      </trkpt>
      <trkpt lat="45.95779" lon="6.56543">
        <ele>2039.8000488281</ele>
        <time>2010-12-31T10:45:11.000Z</time>
      </trkpt>
      <trkpt lat="45.95772" lon="6.56546">
        <ele>2041.4000244141</ele>
        <time>2010-12-31T10:45:22.000Z</time>
      </trkpt>
      <trkpt lat="45.95766" lon="6.56544">
        <ele>2042.1999511719</ele>
        <time>2010-12-31T10:45:28.000Z</time>
      </trkpt>
      <trkpt lat="45.95762" lon="6.56543">
        <ele>2042.8000488281</ele>
        <time>2010-12-31T10:45:32.000Z</time>
      </trkpt>
      <trkpt lat="45.95758" lon="6.56545">
        <ele>2043.8000488281</ele>
        <time>2010-12-31T10:45:40.000Z</time>
      </trkpt>
      <trkpt lat="45.95761" lon="6.56539">
        <ele>2044.4000244141</ele>
        <time>2010-12-31T10:45:46.000Z</time>
      </trkpt>
      <trkpt lat="45.95765" lon="6.56534">
        <ele>2045.8000488281</ele>
        <time>2010-12-31T10:45:54.000Z</time>
      </trkpt>
      <trkpt lat="45.95769" lon="6.56528">
        <ele>2047</ele>
        <time>2010-12-31T10:46:00.000Z</time>
      </trkpt>
      <trkpt lat="45.95772" lon="6.56524">
        <ele>2047.8000488281</ele>
        <time>2010-12-31T10:46:06.000Z</time>
      </trkpt>
      <trkpt lat="45.95775" lon="6.56519">
        <ele>2049.1999511719</ele>
        <time>2010-12-31T10:46:14.000Z</time>
      </trkpt>
      <trkpt lat="45.95778" lon="6.56512">
        <ele>2050.6000976562</ele>
        <time>2010-12-31T10:46:22.000Z</time>
      </trkpt>
      <trkpt lat="45.9578" lon="6.56508">
        <ele>2051.6000976562</ele>
        <time>2010-12-31T10:46:27.000Z</time>
      </trkpt>
      <trkpt lat="45.95782" lon="6.56503">
        <ele>2052.3999023438</ele>
        <time>2010-12-31T10:46:33.000Z</time>
      </trkpt>
      <trkpt lat="45.95783" lon="6.56495">
        <ele>2054.6000976562</ele>
        <time>2010-12-31T10:46:46.000Z</time>
      </trkpt>
      <trkpt lat="45.95784" lon="6.56488">
        <ele>2056</ele>
        <time>2010-12-31T10:46:54.000Z</time>
      </trkpt>
      <trkpt lat="45.95788" lon="6.56477">
        <ele>2057.6000976562</ele>
        <time>2010-12-31T10:47:02.000Z</time>
      </trkpt>
      <trkpt lat="45.95788" lon="6.56472">
        <ele>2058.3999023438</ele>
        <time>2010-12-31T10:47:08.000Z</time>
      </trkpt>
      <trkpt lat="45.9579" lon="6.56466">
        <ele>2060</ele>
        <time>2010-12-31T10:47:18.000Z</time>
      </trkpt>
      <trkpt lat="45.95791" lon="6.56463">
        <ele>2060.8000488281</ele>
        <time>2010-12-31T10:47:23.000Z</time>
      </trkpt>
      <trkpt lat="45.95793" lon="6.56458">
        <ele>2062</ele>
        <time>2010-12-31T10:47:31.000Z</time>
      </trkpt>
      <trkpt lat="45.95792" lon="6.56458">
        <ele>2062</ele>
        <time>2010-12-31T10:47:32.000Z</time>
      </trkpt>
      <trkpt lat="45.95786" lon="6.56458">
        <ele>2062.8000488281</ele>
        <time>2010-12-31T10:47:40.000Z</time>
      </trkpt>
      <trkpt lat="45.95782" lon="6.56458">
        <ele>2063.8000488281</ele>
        <time>2010-12-31T10:47:45.000Z</time>
      </trkpt>
      <trkpt lat="45.95777" lon="6.56461">
        <ele>2065</ele>
        <time>2010-12-31T10:47:53.000Z</time>
      </trkpt>
      <trkpt lat="45.95772" lon="6.56466">
        <ele>2066.6000976562</ele>
        <time>2010-12-31T10:48:02.000Z</time>
      </trkpt>
      <trkpt lat="45.95768" lon="6.56468">
        <ele>2067.8000488281</ele>
        <time>2010-12-31T10:48:09.000Z</time>
      </trkpt>
      <trkpt lat="45.95764" lon="6.56471">
        <ele>2068.8000488281</ele>
        <time>2010-12-31T10:48:16.000Z</time>
      </trkpt>
      <trkpt lat="45.95763" lon="6.56477">
        <ele>2070.1999511719</ele>
        <time>2010-12-31T10:48:24.000Z</time>
      </trkpt>
      <trkpt lat="45.95765" lon="6.56482">
        <ele>2071.1999511719</ele>
        <time>2010-12-31T10:48:30.000Z</time>
      </trkpt>
      <trkpt lat="45.95761" lon="6.56485">
        <ele>2072.6000976562</ele>
        <time>2010-12-31T10:48:37.000Z</time>
      </trkpt>
      <trkpt lat="45.9576" lon="6.56489">
        <ele>2074</ele>
        <time>2010-12-31T10:48:44.000Z</time>
      </trkpt>
      <trkpt lat="45.95756" lon="6.56491">
        <ele>2075.3999023438</ele>
        <time>2010-12-31T10:48:52.000Z</time>
      </trkpt>
      <trkpt lat="45.95752" lon="6.56491">
        <ele>2076.1999511719</ele>
        <time>2010-12-31T10:48:57.000Z</time>
      </trkpt>
      <trkpt lat="45.95749" lon="6.56492">
        <ele>2077.3999023438</ele>
        <time>2010-12-31T10:49:03.000Z</time>
      </trkpt>
      <trkpt lat="45.95744" lon="6.5649">
        <ele>2078.3999023438</ele>
        <time>2010-12-31T10:49:08.000Z</time>
      </trkpt>
      <trkpt lat="45.95733" lon="6.56486">
        <ele>2079.8000488281</ele>
        <time>2010-12-31T10:49:17.000Z</time>
      </trkpt>
      <trkpt lat="45.95726" lon="6.56485">
        <ele>2081.1999511719</ele>
        <time>2010-12-31T10:49:24.000Z</time>
      </trkpt>
      <trkpt lat="45.95721" lon="6.56484">
        <ele>2082.1999511719</ele>
        <time>2010-12-31T10:49:30.000Z</time>
      </trkpt>
      <trkpt lat="45.95719" lon="6.56488">
        <ele>2083.3999023438</ele>
        <time>2010-12-31T10:49:37.000Z</time>
      </trkpt>
      <trkpt lat="45.95716" lon="6.56487">
        <ele>2084.1999511719</ele>
        <time>2010-12-31T10:49:42.000Z</time>
      </trkpt>
      <trkpt lat="45.95714" lon="6.56487">
        <ele>2084.8000488281</ele>
        <time>2010-12-31T10:49:46.000Z</time>
      </trkpt>
      <trkpt lat="45.95709" lon="6.56486">
        <ele>2086</ele>
        <time>2010-12-31T10:49:52.000Z</time>
      </trkpt>
      <trkpt lat="45.95708" lon="6.56489">
        <ele>2087</ele>
        <time>2010-12-31T10:49:58.000Z</time>
      </trkpt>
      <trkpt lat="45.95707" lon="6.56493">
        <ele>2088.1999511719</ele>
        <time>2010-12-31T10:50:05.000Z</time>
      </trkpt>
      <trkpt lat="45.95703" lon="6.56493">
        <ele>2089.1999511719</ele>
        <time>2010-12-31T10:50:12.000Z</time>
      </trkpt>
      <trkpt lat="45.95698" lon="6.56491">
        <ele>2090</ele>
        <time>2010-12-31T10:50:17.000Z</time>
      </trkpt>
      <trkpt lat="45.95691" lon="6.56488">
        <ele>2091.3999023438</ele>
        <time>2010-12-31T10:50:24.000Z</time>
      </trkpt>
      <trkpt lat="45.95686" lon="6.56485">
        <ele>2092.3999023438</ele>
        <time>2010-12-31T10:50:30.000Z</time>
      </trkpt>
      <trkpt lat="45.95683" lon="6.56484">
        <ele>2093.6000976562</ele>
        <time>2010-12-31T10:50:36.000Z</time>
      </trkpt>
      <trkpt lat="45.95677" lon="6.5648">
        <ele>2094.1999511719</ele>
        <time>2010-12-31T10:50:41.000Z</time>
      </trkpt>
      <trkpt lat="45.95673" lon="6.56478">
        <ele>2095.1999511719</ele>
        <time>2010-12-31T10:50:46.000Z</time>
      </trkpt>
      <trkpt lat="45.9567" lon="6.56478">
        <ele>2095.8000488281</ele>
        <time>2010-12-31T10:50:50.000Z</time>
      </trkpt>
      <trkpt lat="45.95663" lon="6.56472">
        <ele>2096.8000488281</ele>
        <time>2010-12-31T10:50:56.000Z</time>
      </trkpt>
      <trkpt lat="45.95659" lon="6.5647">
        <ele>2097.3999023438</ele>
        <time>2010-12-31T10:51:00.000Z</time>
      </trkpt>
      <trkpt lat="45.95656" lon="6.5647">
        <ele>2098</ele>
        <time>2010-12-31T10:51:05.000Z</time>
      </trkpt>
      <trkpt lat="45.95654" lon="6.56473">
        <ele>2098.3999023438</ele>
        <time>2010-12-31T10:51:10.000Z</time>
      </trkpt>
      <trkpt lat="45.95653" lon="6.56474">
        <ele>2099</ele>
        <time>2010-12-31T10:51:13.000Z</time>
      </trkpt>
      <trkpt lat="45.95647" lon="6.56475">
        <ele>2100</ele>
        <time>2010-12-31T10:51:21.000Z</time>
      </trkpt>
      <trkpt lat="45.95646" lon="6.56479">
        <ele>2101.1999511719</ele>
        <time>2010-12-31T10:51:27.000Z</time>
      </trkpt>
      <trkpt lat="45.95644" lon="6.56481">
        <ele>2101.8000488281</ele>
        <time>2010-12-31T10:51:32.000Z</time>
      </trkpt>
      <trkpt lat="45.9564" lon="6.56483">
        <ele>2103.6000976562</ele>
        <time>2010-12-31T10:51:40.000Z</time>
      </trkpt>
      <trkpt lat="45.95635" lon="6.56482">
        <ele>2104.8000488281</ele>
        <time>2010-12-31T10:51:47.000Z</time>
      </trkpt>
      <trkpt lat="45.95631" lon="6.56483">
        <ele>2105.8000488281</ele>
        <time>2010-12-31T10:51:53.000Z</time>
      </trkpt>
      <trkpt lat="45.9563" lon="6.56487">
        <ele>2106.8000488281</ele>
        <time>2010-12-31T10:51:59.000Z</time>
      </trkpt>
      <trkpt lat="45.95633" lon="6.56497">
        <ele>2108</ele>
        <time>2010-12-31T10:52:07.000Z</time>
      </trkpt>
      <trkpt lat="45.95632" lon="6.56498">
        <ele>2108.6000976562</ele>
        <time>2010-12-31T10:52:11.000Z</time>
      </trkpt>
      <trkpt lat="45.95627" lon="6.565">
        <ele>2110.3999023438</ele>
        <time>2010-12-31T10:52:21.000Z</time>
      </trkpt>
      <trkpt lat="45.95623" lon="6.56503">
        <ele>2111.8000488281</ele>
        <time>2010-12-31T10:52:28.000Z</time>
      </trkpt>
      <trkpt lat="45.95618" lon="6.56502">
        <ele>2113.1999511719</ele>
        <time>2010-12-31T10:52:34.000Z</time>
      </trkpt>
      <trkpt lat="45.95614" lon="6.565">
        <ele>2114</ele>
        <time>2010-12-31T10:52:38.000Z</time>
      </trkpt>
      <trkpt lat="45.95606" lon="6.56498">
        <ele>2115.3999023438</ele>
        <time>2010-12-31T10:52:46.000Z</time>
      </trkpt>
      <trkpt lat="45.95599" lon="6.56495">
        <ele>2116.3999023438</ele>
        <time>2010-12-31T10:52:52.000Z</time>
      </trkpt>
      <trkpt lat="45.95591" lon="6.56494">
        <ele>2118.1999511719</ele>
        <time>2010-12-31T10:53:02.000Z</time>
      </trkpt>
      <trkpt lat="45.95587" lon="6.56497">
        <ele>2119.3999023438</ele>
        <time>2010-12-31T10:53:09.000Z</time>
      </trkpt>
      <trkpt lat="45.95584" lon="6.56498">
        <ele>2120.3999023438</ele>
        <time>2010-12-31T10:53:15.000Z</time>
      </trkpt>
      <trkpt lat="45.9558" lon="6.565">
        <ele>2121.6000976562</ele>
        <time>2010-12-31T10:53:22.000Z</time>
      </trkpt>
      <trkpt lat="45.95578" lon="6.56503">
        <ele>2122.6000976562</ele>
        <time>2010-12-31T10:53:28.000Z</time>
      </trkpt>
      <trkpt lat="45.95574" lon="6.56503">
        <ele>2123.3999023438</ele>
        <time>2010-12-31T10:53:33.000Z</time>
      </trkpt>
      <trkpt lat="45.95564" lon="6.56504">
        <ele>2125.6000976562</ele>
        <time>2010-12-31T10:53:48.000Z</time>
      </trkpt>
      <trkpt lat="45.95562" lon="6.56506">
        <ele>2126.1999511719</ele>
        <time>2010-12-31T10:53:52.000Z</time>
      </trkpt>
      <trkpt lat="45.95558" lon="6.56507">
        <ele>2127.3999023438</ele>
        <time>2010-12-31T10:53:59.000Z</time>
      </trkpt>
      <trkpt lat="45.95558" lon="6.5651">
        <ele>2127.8000488281</ele>
        <time>2010-12-31T10:54:02.000Z</time>
      </trkpt>
      <trkpt lat="45.95554" lon="6.56508">
        <ele>2128.3999023438</ele>
        <time>2010-12-31T10:54:09.000Z</time>
      </trkpt>
      <trkpt lat="45.95548" lon="6.56506">
        <ele>2129.6000976562</ele>
        <time>2010-12-31T10:54:16.000Z</time>
      </trkpt>
      <trkpt lat="45.95543" lon="6.56506">
        <ele>2130.1999511719</ele>
        <time>2010-12-31T10:54:21.000Z</time>
      </trkpt>
      <trkpt lat="45.95539" lon="6.56506">
        <ele>2131</ele>
        <time>2010-12-31T10:54:26.000Z</time>
      </trkpt>
      <trkpt lat="45.95534" lon="6.56507">
        <ele>2132</ele>
        <time>2010-12-31T10:54:32.000Z</time>
      </trkpt>
      <trkpt lat="45.95529" lon="6.56508">
        <ele>2132.8000488281</ele>
        <time>2010-12-31T10:54:38.000Z</time>
      </trkpt>
      <trkpt lat="45.95527" lon="6.5651">
        <ele>2133.6000976562</ele>
        <time>2010-12-31T10:54:42.000Z</time>
      </trkpt>
      <trkpt lat="45.95523" lon="6.56512">
        <ele>2134.3999023438</ele>
        <time>2010-12-31T10:54:47.000Z</time>
      </trkpt>
      <trkpt lat="45.95522" lon="6.56515">
        <ele>2135</ele>
        <time>2010-12-31T10:54:50.000Z</time>
      </trkpt>
      <trkpt lat="45.95519" lon="6.56521">
        <ele>2136</ele>
        <time>2010-12-31T10:54:57.000Z</time>
      </trkpt>
      <trkpt lat="45.95514" lon="6.5653">
        <ele>2137.6000976562</ele>
        <time>2010-12-31T10:55:06.000Z</time>
      </trkpt>
      <trkpt lat="45.95512" lon="6.56527">
        <ele>2138.1999511719</ele>
        <time>2010-12-31T10:55:16.000Z</time>
      </trkpt>
      <trkpt lat="45.95515" lon="6.5652">
        <ele>2139.6000976562</ele>
        <time>2010-12-31T10:55:25.000Z</time>
      </trkpt>
      <trkpt lat="45.95517" lon="6.56512">
        <ele>2141.1999511719</ele>
        <time>2010-12-31T10:55:34.000Z</time>
      </trkpt>
      <trkpt lat="45.95511" lon="6.56507">
        <ele>2143.3999023438</ele>
        <time>2010-12-31T10:55:47.000Z</time>
      </trkpt>
      <trkpt lat="45.95504" lon="6.56505">
        <ele>2144.3999023438</ele>
        <time>2010-12-31T10:55:53.000Z</time>
      </trkpt>
      <trkpt lat="45.955" lon="6.56511">
        <ele>2145</ele>
        <time>2010-12-31T10:55:58.000Z</time>
      </trkpt>
      <trkpt lat="45.95499" lon="6.56518">
        <ele>2145.6000976562</ele>
        <time>2010-12-31T10:56:02.000Z</time>
      </trkpt>
      <trkpt lat="45.95497" lon="6.56525">
        <ele>2146.6000976562</ele>
        <time>2010-12-31T10:56:09.000Z</time>
      </trkpt>
      <trkpt lat="45.95496" lon="6.56519">
        <ele>2148.6000976562</ele>
        <time>2010-12-31T10:56:22.000Z</time>
      </trkpt>
      <trkpt lat="45.955" lon="6.56514">
        <ele>2150</ele>
        <time>2010-12-31T10:56:30.000Z</time>
      </trkpt>
      <trkpt lat="45.955" lon="6.56509">
        <ele>2151.8000488281</ele>
        <time>2010-12-31T10:56:39.000Z</time>
      </trkpt>
      <trkpt lat="45.95503" lon="6.56503">
        <ele>2153.3999023438</ele>
        <time>2010-12-31T10:56:48.000Z</time>
      </trkpt>
      <trkpt lat="45.95503" lon="6.56495">
        <ele>2155</ele>
        <time>2010-12-31T10:56:56.000Z</time>
      </trkpt>
      <trkpt lat="45.95505" lon="6.5649">
        <ele>2156</ele>
        <time>2010-12-31T10:57:02.000Z</time>
      </trkpt>
      <trkpt lat="45.95503" lon="6.56489">
        <ele>2156.3999023438</ele>
        <time>2010-12-31T10:57:06.000Z</time>
      </trkpt>
      <trkpt lat="45.95495" lon="6.56488">
        <ele>2157</ele>
        <time>2010-12-31T10:57:14.000Z</time>
      </trkpt>
      <trkpt lat="45.9549" lon="6.56489">
        <ele>2158.1999511719</ele>
        <time>2010-12-31T10:57:19.000Z</time>
      </trkpt>
      <trkpt lat="45.95482" lon="6.5649">
        <ele>2159.6000976562</ele>
        <time>2010-12-31T10:57:27.000Z</time>
      </trkpt>
      <trkpt lat="45.95478" lon="6.56491">
        <ele>2160.8000488281</ele>
        <time>2010-12-31T10:57:35.000Z</time>
      </trkpt>
      <trkpt lat="45.95478" lon="6.56488">
        <ele>2161.1999511719</ele>
        <time>2010-12-31T10:57:38.000Z</time>
      </trkpt>
      <trkpt lat="45.9548" lon="6.56484">
        <ele>2162</ele>
        <time>2010-12-31T10:57:44.000Z</time>
      </trkpt>
      <trkpt lat="45.95484" lon="6.56477">
        <ele>2163.1999511719</ele>
        <time>2010-12-31T10:57:50.000Z</time>
      </trkpt>
      <trkpt lat="45.95484" lon="6.56474">
        <ele>2165.1999511719</ele>
        <time>2010-12-31T10:58:03.000Z</time>
      </trkpt>
      <trkpt lat="45.95477" lon="6.56475">
        <ele>2166.6000976562</ele>
        <time>2010-12-31T10:58:11.000Z</time>
      </trkpt>
      <trkpt lat="45.95469" lon="6.56475">
        <ele>2167.8000488281</ele>
        <time>2010-12-31T10:58:18.000Z</time>
      </trkpt>
      <trkpt lat="45.95465" lon="6.56478">
        <ele>2168.6000976562</ele>
        <time>2010-12-31T10:58:24.000Z</time>
      </trkpt>
      <trkpt lat="45.9546" lon="6.56483">
        <ele>2170.1999511719</ele>
        <time>2010-12-31T10:58:31.000Z</time>
      </trkpt>
      <trkpt lat="45.95456" lon="6.5648">
        <ele>2171</ele>
        <time>2010-12-31T10:58:36.000Z</time>
      </trkpt>
      <trkpt lat="45.95454" lon="6.56483">
        <ele>2171.3999023438</ele>
        <time>2010-12-31T10:58:40.000Z</time>
      </trkpt>
      <trkpt lat="45.95453" lon="6.5649">
        <ele>2172.3999023438</ele>
        <time>2010-12-31T10:58:45.000Z</time>
      </trkpt>
      <trkpt lat="45.95454" lon="6.56495">
        <ele>2173.1999511719</ele>
        <time>2010-12-31T10:58:50.000Z</time>
      </trkpt>
      <trkpt lat="45.95454" lon="6.56501">
        <ele>2174.1999511719</ele>
        <time>2010-12-31T10:58:55.000Z</time>
      </trkpt>
      <trkpt lat="45.95454" lon="6.56493">
        <ele>2175</ele>
        <time>2010-12-31T10:59:04.000Z</time>
      </trkpt>
      <trkpt lat="45.95451" lon="6.56484">
        <ele>2177</ele>
        <time>2010-12-31T10:59:14.000Z</time>
      </trkpt>
      <trkpt lat="45.95451" lon="6.56481">
        <ele>2177.8000488281</ele>
        <time>2010-12-31T10:59:19.000Z</time>
      </trkpt>
      <trkpt lat="45.95452" lon="6.56475">
        <ele>2178.6000976562</ele>
        <time>2010-12-31T10:59:24.000Z</time>
      </trkpt>
      <trkpt lat="45.95454" lon="6.56471">
        <ele>2179.6000976562</ele>
        <time>2010-12-31T10:59:29.000Z</time>
      </trkpt>
      <trkpt lat="45.95449" lon="6.56471">
        <ele>2180.8000488281</ele>
        <time>2010-12-31T10:59:40.000Z</time>
      </trkpt>
      <trkpt lat="45.95444" lon="6.56473">
        <ele>2182</ele>
        <time>2010-12-31T10:59:47.000Z</time>
      </trkpt>
      <trkpt lat="45.9544" lon="6.56478">
        <ele>2183</ele>
        <time>2010-12-31T10:59:53.000Z</time>
      </trkpt>
      <trkpt lat="45.95439" lon="6.56479">
        <ele>2183.3999023438</ele>
        <time>2010-12-31T10:59:55.000Z</time>
      </trkpt>
      <trkpt lat="45.95435" lon="6.56493">
        <ele>2184.6000976562</ele>
        <time>2010-12-31T11:00:11.000Z</time>
      </trkpt>
      <trkpt lat="45.95435" lon="6.56493">
        <ele>2185</ele>
        <time>2010-12-31T11:00:13.000Z</time>
      </trkpt>
      <trkpt lat="45.95437" lon="6.56487">
        <ele>2186.3999023438</ele>
        <time>2010-12-31T11:00:25.000Z</time>
      </trkpt>
      <trkpt lat="45.95438" lon="6.56476">
        <ele>2187.8000488281</ele>
        <time>2010-12-31T11:00:33.000Z</time>
      </trkpt>
      <trkpt lat="45.95438" lon="6.56475">
        <ele>2188</ele>
        <time>2010-12-31T11:00:36.000Z</time>
      </trkpt>
      <trkpt lat="45.95439" lon="6.56473">
        <ele>2189.1999511719</ele>
        <time>2010-12-31T11:00:54.000Z</time>
      </trkpt>
      <trkpt lat="45.95439" lon="6.56471">
        <ele>2189.8000488281</ele>
        <time>2010-12-31T11:00:57.000Z</time>
      </trkpt>
      <trkpt lat="45.9543" lon="6.56475">
        <ele>2191.3999023438</ele>
        <time>2010-12-31T11:01:09.000Z</time>
      </trkpt>
      <trkpt lat="45.95425" lon="6.56479">
        <ele>2192.6000976562</ele>
        <time>2010-12-31T11:01:15.000Z</time>
      </trkpt>
      <trkpt lat="45.95422" lon="6.56482">
        <ele>2193.3999023438</ele>
        <time>2010-12-31T11:01:20.000Z</time>
      </trkpt>
      <trkpt lat="45.95418" lon="6.56491">
        <ele>2194.1999511719</ele>
        <time>2010-12-31T11:01:26.000Z</time>
      </trkpt>
      <trkpt lat="45.95418" lon="6.56495">
        <ele>2195.1999511719</ele>
        <time>2010-12-31T11:01:30.000Z</time>
      </trkpt>
      <trkpt lat="45.95418" lon="6.56483">
        <ele>2195.8000488281</ele>
        <time>2010-12-31T11:01:42.000Z</time>
      </trkpt>
      <trkpt lat="45.9542" lon="6.56476">
        <ele>2196.8000488281</ele>
        <time>2010-12-31T11:01:49.000Z</time>
      </trkpt>
      <trkpt lat="45.95421" lon="6.56472">
        <ele>2197.8000488281</ele>
        <time>2010-12-31T11:01:53.000Z</time>
      </trkpt>
      <trkpt lat="45.95414" lon="6.56484">
        <ele>2199</ele>
        <time>2010-12-31T11:02:05.000Z</time>
      </trkpt>
      <trkpt lat="45.95413" lon="6.56486">
        <ele>2199.1999511719</ele>
        <time>2010-12-31T11:02:06.000Z</time>
      </trkpt>
      <trkpt lat="45.95412" lon="6.56493">
        <ele>2200.1999511719</ele>
        <time>2010-12-31T11:02:11.000Z</time>
      </trkpt>
      <trkpt lat="45.9541" lon="6.56508">
        <ele>2201.6000976562</ele>
        <time>2010-12-31T11:02:20.000Z</time>
      </trkpt>
      <trkpt lat="45.95409" lon="6.56521">
        <ele>2202</ele>
        <time>2010-12-31T11:02:25.000Z</time>
      </trkpt>
      <trkpt lat="45.95412" lon="6.56526">
        <ele>2202.8000488281</ele>
        <time>2010-12-31T11:02:30.000Z</time>
      </trkpt>
      <trkpt lat="45.95413" lon="6.56527">
        <ele>2203.1999511719</ele>
        <time>2010-12-31T11:02:34.000Z</time>
      </trkpt>
      <trkpt lat="45.95415" lon="6.56526">
        <ele>2204.8000488281</ele>
        <time>2010-12-31T11:02:56.000Z</time>
      </trkpt>
      <trkpt lat="45.95414" lon="6.56526">
        <ele>2205.6000976562</ele>
        <time>2010-12-31T11:03:00.000Z</time>
      </trkpt>
      <trkpt lat="45.95408" lon="6.5653">
        <ele>2206.3999023438</ele>
        <time>2010-12-31T11:04:34.000Z</time>
      </trkpt>
      <trkpt lat="45.95405" lon="6.5654">
        <ele>2207.1999511719</ele>
        <time>2010-12-31T11:04:45.000Z</time>
      </trkpt>
      <trkpt lat="45.95404" lon="6.56543">
        <ele>2207.6000976562</ele>
        <time>2010-12-31T11:04:51.000Z</time>
      </trkpt>
      <trkpt lat="45.95402" lon="6.56551">
        <ele>2208.1999511719</ele>
        <time>2010-12-31T11:04:59.000Z</time>
      </trkpt>
      <trkpt lat="45.95401" lon="6.56559">
        <ele>2209</ele>
        <time>2010-12-31T11:05:06.000Z</time>
      </trkpt>
      <trkpt lat="45.95401" lon="6.56563">
        <ele>2209.8000488281</ele>
        <time>2010-12-31T11:05:12.000Z</time>
      </trkpt>
      <trkpt lat="45.95401" lon="6.56565">
        <ele>2210</ele>
        <time>2010-12-31T11:05:14.000Z</time>
      </trkpt>
      <trkpt lat="45.95403" lon="6.56571">
        <ele>2210</ele>
        <time>2010-12-31T11:05:22.000Z</time>
      </trkpt>
      <trkpt lat="45.95403" lon="6.56575">
        <ele>2210.3999023438</ele>
        <time>2010-12-31T11:05:27.000Z</time>
      </trkpt>
      <trkpt lat="45.95402" lon="6.56583">
        <ele>2211.3999023438</ele>
        <time>2010-12-31T11:05:35.000Z</time>
      </trkpt>
      <trkpt lat="45.95401" lon="6.5659">
        <ele>2212.6000976562</ele>
        <time>2010-12-31T11:05:42.000Z</time>
      </trkpt>
      <trkpt lat="45.95401" lon="6.56592">
        <ele>2213</ele>
        <time>2010-12-31T11:05:44.000Z</time>
      </trkpt>
      <trkpt lat="45.95401" lon="6.56596">
        <ele>2213.3999023438</ele>
        <time>2010-12-31T11:05:48.000Z</time>
      </trkpt>
      <trkpt lat="45.954" lon="6.5661">
        <ele>2213.6000976562</ele>
        <time>2010-12-31T11:06:19.000Z</time>
      </trkpt>
      <trkpt lat="45.95402" lon="6.56613">
        <ele>2213.8000488281</ele>
        <time>2010-12-31T11:06:22.000Z</time>
      </trkpt>
      <trkpt lat="45.95404" lon="6.56611">
        <ele>2214.1999511719</ele>
        <time>2010-12-31T11:06:26.000Z</time>
      </trkpt>
      <trkpt lat="45.95407" lon="6.56603">
        <ele>2214.3999023438</ele>
        <time>2010-12-31T11:06:48.000Z</time>
      </trkpt>
      <trkpt lat="45.95406" lon="6.56602">
        <ele>2213.3999023438</ele>
        <time>2010-12-31T11:06:52.000Z</time>
      </trkpt>
      <trkpt lat="45.95408" lon="6.56597">
        <ele>2215</ele>
        <time>2010-12-31T11:08:51.000Z</time>
      </trkpt>
      <trkpt lat="45.95409" lon="6.56607">
        <ele>2216.6000976562</ele>
        <time>2010-12-31T11:08:59.000Z</time>
      </trkpt>
      <trkpt lat="45.95408" lon="6.56616">
        <ele>2218.8000488281</ele>
        <time>2010-12-31T11:09:07.000Z</time>
      </trkpt>
      <trkpt lat="45.95407" lon="6.56627">
        <ele>2220.8000488281</ele>
        <time>2010-12-31T11:09:16.000Z</time>
      </trkpt>
      <trkpt lat="45.95407" lon="6.56636">
        <ele>2222.1999511719</ele>
        <time>2010-12-31T11:09:24.000Z</time>
      </trkpt>
      <trkpt lat="45.95405" lon="6.56647">
        <ele>2224.6000976562</ele>
        <time>2010-12-31T11:09:34.000Z</time>
      </trkpt>
      <trkpt lat="45.95404" lon="6.56657">
        <ele>2226.1999511719</ele>
        <time>2010-12-31T11:09:44.000Z</time>
      </trkpt>
      <trkpt lat="45.95402" lon="6.56666">
        <ele>2227.1999511719</ele>
        <time>2010-12-31T11:09:53.000Z</time>
      </trkpt>
      <trkpt lat="45.95402" lon="6.56678">
        <ele>2229.1999511719</ele>
        <time>2010-12-31T11:10:04.000Z</time>
      </trkpt>
      <trkpt lat="45.95404" lon="6.5669">
        <ele>2230.1999511719</ele>
        <time>2010-12-31T11:10:13.000Z</time>
      </trkpt>
      <trkpt lat="45.95403" lon="6.567">
        <ele>2231.3999023438</ele>
        <time>2010-12-31T11:10:22.000Z</time>
      </trkpt>
      <trkpt lat="45.95403" lon="6.56702">
        <ele>2231.8000488281</ele>
        <time>2010-12-31T11:10:25.000Z</time>
      </trkpt>
      <trkpt lat="45.95402" lon="6.56706">
        <ele>2232.3999023438</ele>
        <time>2010-12-31T11:10:38.000Z</time>
      </trkpt>
      <trkpt lat="45.95402" lon="6.56717">
        <ele>2234.8000488281</ele>
        <time>2010-12-31T11:10:48.000Z</time>
      </trkpt>
      <trkpt lat="45.95402" lon="6.56726">
        <ele>2236.8000488281</ele>
        <time>2010-12-31T11:10:57.000Z</time>
      </trkpt>
      <trkpt lat="45.95403" lon="6.56732">
        <ele>2238.8000488281</ele>
        <time>2010-12-31T11:11:06.000Z</time>
      </trkpt>
      <trkpt lat="45.95403" lon="6.56734">
        <ele>2239.6000976562</ele>
        <time>2010-12-31T11:11:09.000Z</time>
      </trkpt>
      <trkpt lat="45.95399" lon="6.56739">
        <ele>2241.3999023438</ele>
        <time>2010-12-31T11:11:17.000Z</time>
      </trkpt>
      <trkpt lat="45.95398" lon="6.56746">
        <ele>2243</ele>
        <time>2010-12-31T11:11:26.000Z</time>
      </trkpt>
      <trkpt lat="45.95397" lon="6.56754">
        <ele>2244.8000488281</ele>
        <time>2010-12-31T11:11:35.000Z</time>
      </trkpt>
      <trkpt lat="45.95397" lon="6.56764">
        <ele>2246.8000488281</ele>
        <time>2010-12-31T11:11:46.000Z</time>
      </trkpt>
      <trkpt lat="45.95397" lon="6.5677">
        <ele>2248.3999023438</ele>
        <time>2010-12-31T11:11:55.000Z</time>
      </trkpt>
      <trkpt lat="45.95396" lon="6.56776">
        <ele>2250</ele>
        <time>2010-12-31T11:12:06.000Z</time>
      </trkpt>
      <trkpt lat="45.95395" lon="6.56782">
        <ele>2251.3999023438</ele>
        <time>2010-12-31T11:12:14.000Z</time>
      </trkpt>
      <trkpt lat="45.95396" lon="6.56787">
        <ele>2253.3999023438</ele>
        <time>2010-12-31T11:12:22.000Z</time>
      </trkpt>
      <trkpt lat="45.95395" lon="6.56792">
        <ele>2254.6000976562</ele>
        <time>2010-12-31T11:12:35.000Z</time>
      </trkpt>
      <trkpt lat="45.95392" lon="6.56799">
        <ele>2257.1999511719</ele>
        <time>2010-12-31T11:12:44.000Z</time>
      </trkpt>
      <trkpt lat="45.95394" lon="6.56808">
        <ele>2259.1999511719</ele>
        <time>2010-12-31T11:12:54.000Z</time>
      </trkpt>
      <trkpt lat="45.95394" lon="6.56816">
        <ele>2262</ele>
        <time>2010-12-31T11:13:04.000Z</time>
      </trkpt>
      <trkpt lat="45.95394" lon="6.56824">
        <ele>2264</ele>
        <time>2010-12-31T11:13:14.000Z</time>
      </trkpt>
      <trkpt lat="45.95393" lon="6.56832">
        <ele>2265.8000488281</ele>
        <time>2010-12-31T11:13:23.000Z</time>
      </trkpt>
      <trkpt lat="45.95392" lon="6.56841">
        <ele>2267.6000976562</ele>
        <time>2010-12-31T11:13:32.000Z</time>
      </trkpt>
      <trkpt lat="45.95392" lon="6.56851">
        <ele>2269.1999511719</ele>
        <time>2010-12-31T11:13:42.000Z</time>
      </trkpt>
      <trkpt lat="45.95392" lon="6.56861">
        <ele>2271.1999511719</ele>
        <time>2010-12-31T11:13:52.000Z</time>
      </trkpt>
      <trkpt lat="45.95391" lon="6.56869">
        <ele>2273.1999511719</ele>
        <time>2010-12-31T11:14:02.000Z</time>
      </trkpt>
      <trkpt lat="45.95391" lon="6.56878">
        <ele>2275</ele>
        <time>2010-12-31T11:14:11.000Z</time>
      </trkpt>
      <trkpt lat="45.9539" lon="6.56886">
        <ele>2276.8000488281</ele>
        <time>2010-12-31T11:14:20.000Z</time>
      </trkpt>
      <trkpt lat="45.95389" lon="6.56895">
        <ele>2278.8000488281</ele>
        <time>2010-12-31T11:14:30.000Z</time>
      </trkpt>
      <trkpt lat="45.95388" lon="6.56903">
        <ele>2281</ele>
        <time>2010-12-31T11:14:40.000Z</time>
      </trkpt>
      <trkpt lat="45.95387" lon="6.56908">
        <ele>2282.8000488281</ele>
        <time>2010-12-31T11:14:47.000Z</time>
      </trkpt>
      <trkpt lat="45.95386" lon="6.56915">
        <ele>2284.6000976562</ele>
        <time>2010-12-31T11:14:56.000Z</time>
      </trkpt>
      <trkpt lat="45.95386" lon="6.56922">
        <ele>2286.6000976562</ele>
        <time>2010-12-31T11:15:05.000Z</time>
      </trkpt>
      <trkpt lat="45.95388" lon="6.56931">
        <ele>2288.6000976562</ele>
        <time>2010-12-31T11:15:16.000Z</time>
      </trkpt>
      <trkpt lat="45.95388" lon="6.56938">
        <ele>2290.3999023438</ele>
        <time>2010-12-31T11:15:25.000Z</time>
      </trkpt>
      <trkpt lat="45.95387" lon="6.56946">
        <ele>2292.1999511719</ele>
        <time>2010-12-31T11:15:34.000Z</time>
      </trkpt>
      <trkpt lat="45.95386" lon="6.56952">
        <ele>2293.8000488281</ele>
        <time>2010-12-31T11:15:42.000Z</time>
      </trkpt>
      <trkpt lat="45.95386" lon="6.56959">
        <ele>2295.8000488281</ele>
        <time>2010-12-31T11:15:51.000Z</time>
      </trkpt>
      <trkpt lat="45.95385" lon="6.56967">
        <ele>2297.6000976562</ele>
        <time>2010-12-31T11:16:00.000Z</time>
      </trkpt>
      <trkpt lat="45.95383" lon="6.56976">
        <ele>2300</ele>
        <time>2010-12-31T11:16:11.000Z</time>
      </trkpt>
      <trkpt lat="45.95383" lon="6.56983">
        <ele>2302.1999511719</ele>
        <time>2010-12-31T11:16:21.000Z</time>
      </trkpt>
      <trkpt lat="45.95383" lon="6.56991">
        <ele>2304.3999023438</ele>
        <time>2010-12-31T11:16:32.000Z</time>
      </trkpt>
      <trkpt lat="45.95383" lon="6.56999">
        <ele>2306.6000976562</ele>
        <time>2010-12-31T11:16:42.000Z</time>
      </trkpt>
      <trkpt lat="45.95382" lon="6.57008">
        <ele>2308.8000488281</ele>
        <time>2010-12-31T11:16:52.000Z</time>
      </trkpt>
      <trkpt lat="45.95381" lon="6.57016">
        <ele>2311.1999511719</ele>
        <time>2010-12-31T11:17:03.000Z</time>
      </trkpt>
      <trkpt lat="45.9538" lon="6.57024">
        <ele>2313</ele>
        <time>2010-12-31T11:17:13.000Z</time>
      </trkpt>
      <trkpt lat="45.95379" lon="6.57029">
        <ele>2314.6000976562</ele>
        <time>2010-12-31T11:17:21.000Z</time>
      </trkpt>
      <trkpt lat="45.95379" lon="6.57032">
        <ele>2315.3999023438</ele>
        <time>2010-12-31T11:17:28.000Z</time>
      </trkpt>
      <trkpt lat="45.95378" lon="6.57041">
        <ele>2317.1999511719</ele>
        <time>2010-12-31T11:17:38.000Z</time>
      </trkpt>
      <trkpt lat="45.95378" lon="6.5705">
        <ele>2319.3999023438</ele>
        <time>2010-12-31T11:17:49.000Z</time>
      </trkpt>
      <trkpt lat="45.95377" lon="6.57057">
        <ele>2321.6000976562</ele>
        <time>2010-12-31T11:17:59.000Z</time>
      </trkpt>
      <trkpt lat="45.95377" lon="6.57065">
        <ele>2323.8000488281</ele>
        <time>2010-12-31T11:18:08.000Z</time>
      </trkpt>
      <trkpt lat="45.95376" lon="6.57072">
        <ele>2325.6000976562</ele>
        <time>2010-12-31T11:18:17.000Z</time>
      </trkpt>
      <trkpt lat="45.95373" lon="6.5708">
        <ele>2327.8000488281</ele>
        <time>2010-12-31T11:18:28.000Z</time>
      </trkpt>
      <trkpt lat="45.95372" lon="6.57088">
        <ele>2329.1999511719</ele>
        <time>2010-12-31T11:18:37.000Z</time>
      </trkpt>
      <trkpt lat="45.95372" lon="6.57088">
        <ele>2329.6000976562</ele>
        <time>2010-12-31T11:18:38.000Z</time>
      </trkpt>
      <trkpt lat="45.95371" lon="6.57094">
        <ele>2331.3999023438</ele>
        <time>2010-12-31T11:18:48.000Z</time>
      </trkpt>
      <trkpt lat="45.95371" lon="6.57102">
        <ele>2334</ele>
        <time>2010-12-31T11:18:59.000Z</time>
      </trkpt>
      <trkpt lat="45.9537" lon="6.57107">
        <ele>2335.8000488281</ele>
        <time>2010-12-31T11:19:06.000Z</time>
      </trkpt>
      <trkpt lat="45.9537" lon="6.57112">
        <ele>2337.3999023438</ele>
        <time>2010-12-31T11:19:14.000Z</time>
      </trkpt>
      <trkpt lat="45.95371" lon="6.57115">
        <ele>2339</ele>
        <time>2010-12-31T11:19:19.000Z</time>
      </trkpt>
      <trkpt lat="45.95372" lon="6.57117">
        <ele>2339.8000488281</ele>
        <time>2010-12-31T11:19:32.000Z</time>
      </trkpt>
      <trkpt lat="45.95373" lon="6.57123">
        <ele>2341.8000488281</ele>
        <time>2010-12-31T11:19:41.000Z</time>
      </trkpt>
      <trkpt lat="45.95374" lon="6.57128">
        <ele>2343.1999511719</ele>
        <time>2010-12-31T11:19:48.000Z</time>
      </trkpt>
      <trkpt lat="45.95375" lon="6.57134">
        <ele>2345.3999023438</ele>
        <time>2010-12-31T11:19:57.000Z</time>
      </trkpt>
      <trkpt lat="45.95375" lon="6.57137">
        <ele>2346.6000976562</ele>
        <time>2010-12-31T11:20:03.000Z</time>
      </trkpt>
      <trkpt lat="45.95375" lon="6.5714">
        <ele>2347.6000976562</ele>
        <time>2010-12-31T11:20:08.000Z</time>
      </trkpt>
      <trkpt lat="45.95376" lon="6.57145">
        <ele>2348.6000976562</ele>
        <time>2010-12-31T11:20:14.000Z</time>
      </trkpt>
      <trkpt lat="45.95376" lon="6.57148">
        <ele>2350</ele>
        <time>2010-12-31T11:20:19.000Z</time>
      </trkpt>
      <trkpt lat="45.95377" lon="6.57152">
        <ele>2351.1999511719</ele>
        <time>2010-12-31T11:20:25.000Z</time>
      </trkpt>
      <trkpt lat="45.95378" lon="6.57155">
        <ele>2352.3999023438</ele>
        <time>2010-12-31T11:20:31.000Z</time>
      </trkpt>
      <trkpt lat="45.95378" lon="6.57157">
        <ele>2353.1999511719</ele>
        <time>2010-12-31T11:20:35.000Z</time>
      </trkpt>
      <trkpt lat="45.95378" lon="6.57161">
        <ele>2354</ele>
        <time>2010-12-31T11:21:04.000Z</time>
      </trkpt>
      <trkpt lat="45.95378" lon="6.57162">
        <ele>2354.1999511719</ele>
        <time>2010-12-31T11:21:05.000Z</time>
      </trkpt>
      <trkpt lat="45.95379" lon="6.57168">
        <ele>2356</ele>
        <time>2010-12-31T11:21:12.000Z</time>
      </trkpt>
      <trkpt lat="45.9538" lon="6.57174">
        <ele>2357.8000488281</ele>
        <time>2010-12-31T11:21:20.000Z</time>
      </trkpt>
      <trkpt lat="45.95382" lon="6.5718">
        <ele>2359.8000488281</ele>
        <time>2010-12-31T11:21:28.000Z</time>
      </trkpt>
      <trkpt lat="45.95384" lon="6.57185">
        <ele>2361.3999023438</ele>
        <time>2010-12-31T11:21:36.000Z</time>
      </trkpt>
      <trkpt lat="45.95386" lon="6.57191">
        <ele>2363</ele>
        <time>2010-12-31T11:21:44.000Z</time>
      </trkpt>
      <trkpt lat="45.95388" lon="6.57199">
        <ele>2365.1999511719</ele>
        <time>2010-12-31T11:21:54.000Z</time>
      </trkpt>
      <trkpt lat="45.95388" lon="6.57199">
        <ele>2365.3999023438</ele>
        <time>2010-12-31T11:21:55.000Z</time>
      </trkpt>
      <trkpt lat="45.95383" lon="6.57196">
        <ele>2366.6000976562</ele>
        <time>2010-12-31T11:22:08.000Z</time>
      </trkpt>
      <trkpt lat="45.95379" lon="6.57193">
        <ele>2368.6000976562</ele>
        <time>2010-12-31T11:22:18.000Z</time>
      </trkpt>
      <trkpt lat="45.95379" lon="6.57193">
        <ele>2368.8000488281</ele>
        <time>2010-12-31T11:22:19.000Z</time>
      </trkpt>
      <trkpt lat="45.95381" lon="6.572">
        <ele>2369.6000976562</ele>
        <time>2010-12-31T11:22:31.000Z</time>
      </trkpt>
      <trkpt lat="45.95385" lon="6.57207">
        <ele>2371.1999511719</ele>
        <time>2010-12-31T11:22:41.000Z</time>
      </trkpt>
      <trkpt lat="45.95389" lon="6.57214">
        <ele>2372.6000976562</ele>
        <time>2010-12-31T11:22:52.000Z</time>
      </trkpt>
      <trkpt lat="45.95391" lon="6.57216">
        <ele>2373.6000976562</ele>
        <time>2010-12-31T11:22:57.000Z</time>
      </trkpt>
      <trkpt lat="45.95392" lon="6.57219">
        <ele>2374</ele>
        <time>2010-12-31T11:23:05.000Z</time>
      </trkpt>
      <trkpt lat="45.95395" lon="6.57224">
        <ele>2375.1999511719</ele>
        <time>2010-12-31T11:23:13.000Z</time>
      </trkpt>
      <trkpt lat="45.95395" lon="6.57226">
        <ele>2376.1999511719</ele>
        <time>2010-12-31T11:23:16.000Z</time>
      </trkpt>
      <trkpt lat="45.95393" lon="6.57225">
        <ele>2377.1999511719</ele>
        <time>2010-12-31T11:23:27.000Z</time>
      </trkpt>
      <trkpt lat="45.9539" lon="6.57225">
        <ele>2378.3999023438</ele>
        <time>2010-12-31T11:23:33.000Z</time>
      </trkpt>
      <trkpt lat="45.95388" lon="6.57225">
        <ele>2380.1999511719</ele>
        <time>2010-12-31T11:23:40.000Z</time>
      </trkpt>
      <trkpt lat="45.95383" lon="6.57225">
        <ele>2381.3999023438</ele>
        <time>2010-12-31T11:23:47.000Z</time>
      </trkpt>
      <trkpt lat="45.95383" lon="6.57225">
        <ele>2381.8000488281</ele>
        <time>2010-12-31T11:23:48.000Z</time>
      </trkpt>
      <trkpt lat="45.95383" lon="6.57228">
        <ele>2382.8000488281</ele>
        <time>2010-12-31T11:24:00.000Z</time>
      </trkpt>
      <trkpt lat="45.95384" lon="6.57235">
        <ele>2384.1999511719</ele>
        <time>2010-12-31T11:24:08.000Z</time>
      </trkpt>
      <trkpt lat="45.95386" lon="6.57241">
        <ele>2386</ele>
        <time>2010-12-31T11:24:17.000Z</time>
      </trkpt>
      <trkpt lat="45.95387" lon="6.57248">
        <ele>2388</ele>
        <time>2010-12-31T11:24:26.000Z</time>
      </trkpt>
      <trkpt lat="45.95386" lon="6.5725">
        <ele>2388.3999023438</ele>
        <time>2010-12-31T11:24:33.000Z</time>
      </trkpt>
      <trkpt lat="45.95386" lon="6.5725">
        <ele>2389</ele>
        <time>2010-12-31T11:24:34.000Z</time>
      </trkpt>
      <trkpt lat="45.95384" lon="6.57249">
        <ele>2389.6000976562</ele>
        <time>2010-12-31T11:24:39.000Z</time>
      </trkpt>
      <trkpt lat="45.95381" lon="6.5725">
        <ele>2391.3999023438</ele>
        <time>2010-12-31T11:24:47.000Z</time>
      </trkpt>
      <trkpt lat="45.95377" lon="6.57255">
        <ele>2393.6000976562</ele>
        <time>2010-12-31T11:24:57.000Z</time>
      </trkpt>
      <trkpt lat="45.9538" lon="6.57262">
        <ele>2395.1999511719</ele>
        <time>2010-12-31T11:25:07.000Z</time>
      </trkpt>
      <trkpt lat="45.95383" lon="6.57267">
        <ele>2396.1999511719</ele>
        <time>2010-12-31T11:25:14.000Z</time>
      </trkpt>
      <trkpt lat="45.95388" lon="6.57275">
        <ele>2397</ele>
        <time>2010-12-31T11:25:24.000Z</time>
      </trkpt>
      <trkpt lat="45.95393" lon="6.57282">
        <ele>2398.1999511719</ele>
        <time>2010-12-31T11:25:35.000Z</time>
      </trkpt>
      <trkpt lat="45.95395" lon="6.57286">
        <ele>2398.6000976562</ele>
        <time>2010-12-31T11:25:40.000Z</time>
      </trkpt>
      <trkpt lat="45.95392" lon="6.57277">
        <ele>2400.3999023438</ele>
        <time>2010-12-31T11:33:45.000Z</time>
      </trkpt>
      <trkpt lat="45.95389" lon="6.57272">
        <ele>2399.6000976562</ele>
        <time>2010-12-31T11:33:47.000Z</time>
      </trkpt>
      <trkpt lat="45.95378" lon="6.57255">
        <ele>2397</ele>
        <time>2010-12-31T11:33:52.000Z</time>
      </trkpt>
      <trkpt lat="45.95374" lon="6.57248">
        <ele>2395.6000976562</ele>
        <time>2010-12-31T11:33:55.000Z</time>
      </trkpt>
      <trkpt lat="45.95375" lon="6.57248">
        <ele>2395.6000976562</ele>
        <time>2010-12-31T11:33:58.000Z</time>
      </trkpt>
      <trkpt lat="45.95382" lon="6.57243">
        <ele>2393.8000488281</ele>
        <time>2010-12-31T11:34:02.000Z</time>
      </trkpt>
      <trkpt lat="45.95389" lon="6.57232">
        <ele>2390.1999511719</ele>
        <time>2010-12-31T11:34:05.000Z</time>
      </trkpt>
      <trkpt lat="45.95387" lon="6.57225">
        <ele>2386.3999023438</ele>
        <time>2010-12-31T11:34:07.000Z</time>
      </trkpt>
      <trkpt lat="45.95387" lon="6.57206">
        <ele>2380</ele>
        <time>2010-12-31T11:34:12.000Z</time>
      </trkpt>
      <trkpt lat="45.95382" lon="6.57197">
        <ele>2375.1999511719</ele>
        <time>2010-12-31T11:34:14.000Z</time>
      </trkpt>
      <trkpt lat="45.9538" lon="6.57195">
        <ele>2372.8000488281</ele>
        <time>2010-12-31T11:34:16.000Z</time>
      </trkpt>
      <trkpt lat="45.95386" lon="6.57184">
        <ele>2369.8000488281</ele>
        <time>2010-12-31T11:34:20.000Z</time>
      </trkpt>
      <trkpt lat="45.9539" lon="6.5717">
        <ele>2364.6000976562</ele>
        <time>2010-12-31T11:34:23.000Z</time>
      </trkpt>
      <trkpt lat="45.95387" lon="6.57158">
        <ele>2361.3999023438</ele>
        <time>2010-12-31T11:34:25.000Z</time>
      </trkpt>
      <trkpt lat="45.95387" lon="6.57148">
        <ele>2356.1999511719</ele>
        <time>2010-12-31T11:34:28.000Z</time>
      </trkpt>
      <trkpt lat="45.95392" lon="6.57136">
        <ele>2351.6000976562</ele>
        <time>2010-12-31T11:34:31.000Z</time>
      </trkpt>
      <trkpt lat="45.95389" lon="6.5713">
        <ele>2349.3999023438</ele>
        <time>2010-12-31T11:34:32.000Z</time>
      </trkpt>
      <trkpt lat="45.95384" lon="6.57122">
        <ele>2345</ele>
        <time>2010-12-31T11:34:36.000Z</time>
      </trkpt>
      <trkpt lat="45.95384" lon="6.57122">
        <ele>2344.8000488281</ele>
        <time>2010-12-31T11:34:37.000Z</time>
      </trkpt>
      <trkpt lat="45.95395" lon="6.57117">
        <ele>2340.8000488281</ele>
        <time>2010-12-31T11:34:49.000Z</time>
      </trkpt>
      <trkpt lat="45.95397" lon="6.5711">
        <ele>2338</ele>
        <time>2010-12-31T11:34:52.000Z</time>
      </trkpt>
      <trkpt lat="45.95401" lon="6.57105">
        <ele>2335.3999023438</ele>
        <time>2010-12-31T11:34:54.000Z</time>
      </trkpt>
      <trkpt lat="45.95396" lon="6.57089">
        <ele>2330.3999023438</ele>
        <time>2010-12-31T11:34:58.000Z</time>
      </trkpt>
      <trkpt lat="45.954" lon="6.57079">
        <ele>2328.1999511719</ele>
        <time>2010-12-31T11:35:01.000Z</time>
      </trkpt>
      <trkpt lat="45.95402" lon="6.57064">
        <ele>2323.3999023438</ele>
        <time>2010-12-31T11:35:04.000Z</time>
      </trkpt>
      <trkpt lat="45.95397" lon="6.57052">
        <ele>2319.6000976562</ele>
        <time>2010-12-31T11:35:08.000Z</time>
      </trkpt>
      <trkpt lat="45.95397" lon="6.57052">
        <ele>2319.1999511719</ele>
        <time>2010-12-31T11:35:09.000Z</time>
      </trkpt>
      <trkpt lat="45.95409" lon="6.57043">
        <ele>2314.3999023438</ele>
        <time>2010-12-31T11:35:17.000Z</time>
      </trkpt>
      <trkpt lat="45.95407" lon="6.57038">
        <ele>2311</ele>
        <time>2010-12-31T11:35:19.000Z</time>
      </trkpt>
      <trkpt lat="45.95413" lon="6.57037">
        <ele>2308.1999511719</ele>
        <time>2010-12-31T11:35:22.000Z</time>
      </trkpt>
      <trkpt lat="45.95417" lon="6.57024">
        <ele>2304.1999511719</ele>
        <time>2010-12-31T11:35:25.000Z</time>
      </trkpt>
      <trkpt lat="45.95414" lon="6.57019">
        <ele>2301</ele>
        <time>2010-12-31T11:35:28.000Z</time>
      </trkpt>
      <trkpt lat="45.95414" lon="6.57019">
        <ele>2300.8000488281</ele>
        <time>2010-12-31T11:35:29.000Z</time>
      </trkpt>
      <trkpt lat="45.95411" lon="6.56984">
        <ele>2295.6000976562</ele>
        <time>2010-12-31T11:35:38.000Z</time>
      </trkpt>
      <trkpt lat="45.95409" lon="6.56948">
        <ele>2289.6000976562</ele>
        <time>2010-12-31T11:35:44.000Z</time>
      </trkpt>
      <trkpt lat="45.95408" lon="6.5694">
        <ele>2288.1999511719</ele>
        <time>2010-12-31T11:35:47.000Z</time>
      </trkpt>
      <trkpt lat="45.95407" lon="6.56939">
        <ele>2287.8000488281</ele>
        <time>2010-12-31T11:35:48.000Z</time>
      </trkpt>
      <trkpt lat="45.95407" lon="6.5694">
        <ele>2287.6000976562</ele>
        <time>2010-12-31T11:35:49.000Z</time>
      </trkpt>
      <trkpt lat="45.95415" lon="6.56939">
        <ele>2284.1999511719</ele>
        <time>2010-12-31T11:36:00.000Z</time>
      </trkpt>
      <trkpt lat="45.9542" lon="6.56941">
        <ele>2280</ele>
        <time>2010-12-31T11:36:03.000Z</time>
      </trkpt>
      <trkpt lat="45.95429" lon="6.56934">
        <ele>2275.1999511719</ele>
        <time>2010-12-31T11:36:06.000Z</time>
      </trkpt>
      <trkpt lat="45.95437" lon="6.56927">
        <ele>2268</ele>
        <time>2010-12-31T11:36:10.000Z</time>
      </trkpt>
      <trkpt lat="45.9544" lon="6.56918">
        <ele>2262.8000488281</ele>
        <time>2010-12-31T11:36:13.000Z</time>
      </trkpt>
      <trkpt lat="45.95447" lon="6.56912">
        <ele>2258.1999511719</ele>
        <time>2010-12-31T11:36:16.000Z</time>
      </trkpt>
      <trkpt lat="45.95455" lon="6.56911">
        <ele>2252.6000976562</ele>
        <time>2010-12-31T11:36:19.000Z</time>
      </trkpt>
      <trkpt lat="45.95457" lon="6.56906">
        <ele>2251.8000488281</ele>
        <time>2010-12-31T11:36:20.000Z</time>
      </trkpt>
      <trkpt lat="45.95466" lon="6.56892">
        <ele>2243.1999511719</ele>
        <time>2010-12-31T11:36:25.000Z</time>
      </trkpt>
      <trkpt lat="45.95473" lon="6.56879">
        <ele>2237.1999511719</ele>
        <time>2010-12-31T11:36:28.000Z</time>
      </trkpt>
      <trkpt lat="45.9547" lon="6.56871">
        <ele>2233.1999511719</ele>
        <time>2010-12-31T11:36:31.000Z</time>
      </trkpt>
      <trkpt lat="45.9547" lon="6.5687">
        <ele>2232.8000488281</ele>
        <time>2010-12-31T11:36:33.000Z</time>
      </trkpt>
      <trkpt lat="45.9547" lon="6.56852">
        <ele>2230.1999511719</ele>
        <time>2010-12-31T11:36:43.000Z</time>
      </trkpt>
      <trkpt lat="45.9547" lon="6.56852">
        <ele>2229.6000976562</ele>
        <time>2010-12-31T11:36:44.000Z</time>
      </trkpt>
      <trkpt lat="45.9548" lon="6.56857">
        <ele>2226.8000488281</ele>
        <time>2010-12-31T11:36:48.000Z</time>
      </trkpt>
      <trkpt lat="45.95487" lon="6.56856">
        <ele>2223.6000976562</ele>
        <time>2010-12-31T11:36:51.000Z</time>
      </trkpt>
      <trkpt lat="45.95492" lon="6.56852">
        <ele>2219.1999511719</ele>
        <time>2010-12-31T11:36:55.000Z</time>
      </trkpt>
      <trkpt lat="45.95499" lon="6.56851">
        <ele>2215.3999023438</ele>
        <time>2010-12-31T11:36:59.000Z</time>
      </trkpt>
      <trkpt lat="45.95503" lon="6.56847">
        <ele>2211.1999511719</ele>
        <time>2010-12-31T11:37:02.000Z</time>
      </trkpt>
      <trkpt lat="45.95512" lon="6.56851">
        <ele>2207.8000488281</ele>
        <time>2010-12-31T11:37:05.000Z</time>
      </trkpt>
      <trkpt lat="45.95512" lon="6.56843">
        <ele>2204.6000976562</ele>
        <time>2010-12-31T11:37:08.000Z</time>
      </trkpt>
      <trkpt lat="45.95517" lon="6.56845">
        <ele>2201.3999023438</ele>
        <time>2010-12-31T11:37:11.000Z</time>
      </trkpt>
      <trkpt lat="45.95521" lon="6.56836">
        <ele>2198</ele>
        <time>2010-12-31T11:37:14.000Z</time>
      </trkpt>
      <trkpt lat="45.9552" lon="6.56831">
        <ele>2195.6000976562</ele>
        <time>2010-12-31T11:37:16.000Z</time>
      </trkpt>
      <trkpt lat="45.95527" lon="6.56828">
        <ele>2193</ele>
        <time>2010-12-31T11:37:19.000Z</time>
      </trkpt>
      <trkpt lat="45.95534" lon="6.56817">
        <ele>2187.1999511719</ele>
        <time>2010-12-31T11:37:22.000Z</time>
      </trkpt>
      <trkpt lat="45.95537" lon="6.56805">
        <ele>2181.6000976562</ele>
        <time>2010-12-31T11:37:25.000Z</time>
      </trkpt>
      <trkpt lat="45.95544" lon="6.56796">
        <ele>2176</ele>
        <time>2010-12-31T11:37:28.000Z</time>
      </trkpt>
      <trkpt lat="45.95546" lon="6.56791">
        <ele>2171.6000976562</ele>
        <time>2010-12-31T11:37:31.000Z</time>
      </trkpt>
      <trkpt lat="45.95544" lon="6.56787">
        <ele>2169</ele>
        <time>2010-12-31T11:37:34.000Z</time>
      </trkpt>
      <trkpt lat="45.95544" lon="6.56788">
        <ele>2168.8000488281</ele>
        <time>2010-12-31T11:37:35.000Z</time>
      </trkpt>
      <trkpt lat="45.95553" lon="6.56777">
        <ele>2165.8000488281</ele>
        <time>2010-12-31T11:37:47.000Z</time>
      </trkpt>
      <trkpt lat="45.95556" lon="6.56763">
        <ele>2160.1999511719</ele>
        <time>2010-12-31T11:37:52.000Z</time>
      </trkpt>
      <trkpt lat="45.95558" lon="6.5676">
        <ele>2157.3999023438</ele>
        <time>2010-12-31T11:37:55.000Z</time>
      </trkpt>
      <trkpt lat="45.9556" lon="6.56759">
        <ele>2156.8000488281</ele>
        <time>2010-12-31T11:37:58.000Z</time>
      </trkpt>
      <trkpt lat="45.95566" lon="6.56748">
        <ele>2152.3999023438</ele>
        <time>2010-12-31T11:38:11.000Z</time>
      </trkpt>
      <trkpt lat="45.95573" lon="6.56746">
        <ele>2148.6000976562</ele>
        <time>2010-12-31T11:38:14.000Z</time>
      </trkpt>
      <trkpt lat="45.95578" lon="6.56741">
        <ele>2145.6000976562</ele>
        <time>2010-12-31T11:38:16.000Z</time>
      </trkpt>
      <trkpt lat="45.95591" lon="6.56726">
        <ele>2137</ele>
        <time>2010-12-31T11:38:21.000Z</time>
      </trkpt>
      <trkpt lat="45.95589" lon="6.56721">
        <ele>2132.8000488281</ele>
        <time>2010-12-31T11:38:24.000Z</time>
      </trkpt>
      <trkpt lat="45.95589" lon="6.56721">
        <ele>2132</ele>
        <time>2010-12-31T11:38:25.000Z</time>
      </trkpt>
      <trkpt lat="45.95589" lon="6.56705">
        <ele>2130.3999023438</ele>
        <time>2010-12-31T11:38:29.000Z</time>
      </trkpt>
      <trkpt lat="45.95589" lon="6.56696">
        <ele>2128</ele>
        <time>2010-12-31T11:38:31.000Z</time>
      </trkpt>
      <trkpt lat="45.956" lon="6.56691">
        <ele>2123.6000976562</ele>
        <time>2010-12-31T11:38:35.000Z</time>
      </trkpt>
      <trkpt lat="45.95602" lon="6.5668">
        <ele>2121.3999023438</ele>
        <time>2010-12-31T11:38:36.000Z</time>
      </trkpt>
      <trkpt lat="45.95605" lon="6.56661">
        <ele>2117.8000488281</ele>
        <time>2010-12-31T11:38:40.000Z</time>
      </trkpt>
      <trkpt lat="45.95605" lon="6.56661">
        <ele>2117.8000488281</ele>
        <time>2010-12-31T11:38:42.000Z</time>
      </trkpt>
      <trkpt lat="45.95611" lon="6.56674">
        <ele>2115</ele>
        <time>2010-12-31T11:38:50.000Z</time>
      </trkpt>
      <trkpt lat="45.95617" lon="6.56681">
        <ele>2111.8000488281</ele>
        <time>2010-12-31T11:38:54.000Z</time>
      </trkpt>
      <trkpt lat="45.95625" lon="6.56678">
        <ele>2108</ele>
        <time>2010-12-31T11:38:57.000Z</time>
      </trkpt>
      <trkpt lat="45.95628" lon="6.5666">
        <ele>2103.1999511719</ele>
        <time>2010-12-31T11:39:00.000Z</time>
      </trkpt>
      <trkpt lat="45.95631" lon="6.56653">
        <ele>2099.1999511719</ele>
        <time>2010-12-31T11:39:03.000Z</time>
      </trkpt>
      <trkpt lat="45.9564" lon="6.56649">
        <ele>2094.6000976562</ele>
        <time>2010-12-31T11:39:06.000Z</time>
      </trkpt>
      <trkpt lat="45.95649" lon="6.56655">
        <ele>2090.3999023438</ele>
        <time>2010-12-31T11:39:08.000Z</time>
      </trkpt>
      <trkpt lat="45.95651" lon="6.56645">
        <ele>2085.6000976562</ele>
        <time>2010-12-31T11:39:11.000Z</time>
      </trkpt>
      <trkpt lat="45.95646" lon="6.56639">
        <ele>2082.6000976562</ele>
        <time>2010-12-31T11:39:14.000Z</time>
      </trkpt>
      <trkpt lat="45.95645" lon="6.56638">
        <ele>2082.3999023438</ele>
        <time>2010-12-31T11:39:15.000Z</time>
      </trkpt>
      <trkpt lat="45.95649" lon="6.56619">
        <ele>2081</ele>
        <time>2010-12-31T11:39:26.000Z</time>
      </trkpt>
      <trkpt lat="45.95658" lon="6.56604">
        <ele>2078</ele>
        <time>2010-12-31T11:39:30.000Z</time>
      </trkpt>
      <trkpt lat="45.9566" lon="6.56603">
        <ele>2077.8000488281</ele>
        <time>2010-12-31T11:39:31.000Z</time>
      </trkpt>
      <trkpt lat="45.95675" lon="6.56593">
        <ele>2075.3999023438</ele>
        <time>2010-12-31T11:39:37.000Z</time>
      </trkpt>
      <trkpt lat="45.95676" lon="6.56593">
        <ele>2075.3999023438</ele>
        <time>2010-12-31T11:39:39.000Z</time>
      </trkpt>
      <trkpt lat="45.95693" lon="6.5659">
        <ele>2072.6000976562</ele>
        <time>2010-12-31T11:39:51.000Z</time>
      </trkpt>
      <trkpt lat="45.95708" lon="6.56587">
        <ele>2069</ele>
        <time>2010-12-31T11:39:55.000Z</time>
      </trkpt>
      <trkpt lat="45.95714" lon="6.566">
        <ele>2063.6000976562</ele>
        <time>2010-12-31T11:39:58.000Z</time>
      </trkpt>
      <trkpt lat="45.95716" lon="6.56603">
        <ele>2062.6000976562</ele>
        <time>2010-12-31T11:39:59.000Z</time>
      </trkpt>
      <trkpt lat="45.95722" lon="6.56608">
        <ele>2058.6000976562</ele>
        <time>2010-12-31T11:40:01.000Z</time>
      </trkpt>
      <trkpt lat="45.95741" lon="6.56621">
        <ele>2050.8000488281</ele>
        <time>2010-12-31T11:40:05.000Z</time>
      </trkpt>
      <trkpt lat="45.95746" lon="6.56617">
        <ele>2046.8000488281</ele>
        <time>2010-12-31T11:40:08.000Z</time>
      </trkpt>
      <trkpt lat="45.95746" lon="6.56615">
        <ele>2046.5999755859</ele>
        <time>2010-12-31T11:40:09.000Z</time>
      </trkpt>
      <trkpt lat="45.95756" lon="6.56621">
        <ele>2041.5999755859</ele>
        <time>2010-12-31T11:40:23.000Z</time>
      </trkpt>
      <trkpt lat="45.95765" lon="6.56616">
        <ele>2038.1999511719</ele>
        <time>2010-12-31T11:40:26.000Z</time>
      </trkpt>
      <trkpt lat="45.9577" lon="6.56614">
        <ele>2035.4000244141</ele>
        <time>2010-12-31T11:40:30.000Z</time>
      </trkpt>
      <trkpt lat="45.95774" lon="6.56624">
        <ele>2030.5999755859</ele>
        <time>2010-12-31T11:40:33.000Z</time>
      </trkpt>
      <trkpt lat="45.95776" lon="6.56639">
        <ele>2027.8000488281</ele>
        <time>2010-12-31T11:40:35.000Z</time>
      </trkpt>
      <trkpt lat="45.95785" lon="6.56653">
        <ele>2020.5999755859</ele>
        <time>2010-12-31T11:40:38.000Z</time>
      </trkpt>
      <trkpt lat="45.95797" lon="6.56659">
        <ele>2012.4000244141</ele>
        <time>2010-12-31T11:40:42.000Z</time>
      </trkpt>
      <trkpt lat="45.95797" lon="6.56658">
        <ele>2011</ele>
        <time>2010-12-31T11:40:44.000Z</time>
      </trkpt>
      <trkpt lat="45.95804" lon="6.56668">
        <ele>2007.5999755859</ele>
        <time>2010-12-31T11:41:00.000Z</time>
      </trkpt>
      <trkpt lat="45.95812" lon="6.56678">
        <ele>2002</ele>
        <time>2010-12-31T11:41:03.000Z</time>
      </trkpt>
      <trkpt lat="45.95822" lon="6.56687">
        <ele>1996.5999755859</ele>
        <time>2010-12-31T11:41:06.000Z</time>
      </trkpt>
      <trkpt lat="45.95837" lon="6.56681">
        <ele>1990.5999755859</ele>
        <time>2010-12-31T11:41:09.000Z</time>
      </trkpt>
      <trkpt lat="45.9585" lon="6.56681">
        <ele>1985.4000244141</ele>
        <time>2010-12-31T11:41:12.000Z</time>
      </trkpt>
      <trkpt lat="45.95854" lon="6.56686">
        <ele>1983.4000244141</ele>
        <time>2010-12-31T11:41:14.000Z</time>
      </trkpt>
      <trkpt lat="45.95863" lon="6.56688">
        <ele>1978.4000244141</ele>
        <time>2010-12-31T11:41:17.000Z</time>
      </trkpt>
      <trkpt lat="45.95864" lon="6.56685">
        <ele>1976.5999755859</ele>
        <time>2010-12-31T11:41:18.000Z</time>
      </trkpt>
      <trkpt lat="45.95867" lon="6.5668">
        <ele>1974.5999755859</ele>
        <time>2010-12-31T11:41:21.000Z</time>
      </trkpt>
      <trkpt lat="45.95871" lon="6.56679">
        <ele>1974.4000244141</ele>
        <time>2010-12-31T11:41:23.000Z</time>
      </trkpt>
      <trkpt lat="45.95873" lon="6.56686">
        <ele>1972.5999755859</ele>
        <time>2010-12-31T11:41:34.000Z</time>
      </trkpt>
      <trkpt lat="45.95879" lon="6.56691">
        <ele>1969.5999755859</ele>
        <time>2010-12-31T11:41:37.000Z</time>
      </trkpt>
      <trkpt lat="45.95887" lon="6.56699">
        <ele>1965.1999511719</ele>
        <time>2010-12-31T11:41:40.000Z</time>
      </trkpt>
      <trkpt lat="45.95896" lon="6.5671">
        <ele>1959</ele>
        <time>2010-12-31T11:41:44.000Z</time>
      </trkpt>
      <trkpt lat="45.95899" lon="6.56709">
        <ele>1957.1999511719</ele>
        <time>2010-12-31T11:41:45.000Z</time>
      </trkpt>
      <trkpt lat="45.95903" lon="6.56718">
        <ele>1952.1999511719</ele>
        <time>2010-12-31T11:41:49.000Z</time>
      </trkpt>
      <trkpt lat="45.95906" lon="6.56732">
        <ele>1948</ele>
        <time>2010-12-31T11:41:52.000Z</time>
      </trkpt>
      <trkpt lat="45.95913" lon="6.56742">
        <ele>1943.5999755859</ele>
        <time>2010-12-31T11:41:55.000Z</time>
      </trkpt>
      <trkpt lat="45.95922" lon="6.56752">
        <ele>1939</ele>
        <time>2010-12-31T11:41:58.000Z</time>
      </trkpt>
      <trkpt lat="45.95925" lon="6.56765">
        <ele>1933.1999511719</ele>
        <time>2010-12-31T11:42:01.000Z</time>
      </trkpt>
      <trkpt lat="45.95933" lon="6.56766">
        <ele>1928.8000488281</ele>
        <time>2010-12-31T11:42:04.000Z</time>
      </trkpt>
      <trkpt lat="45.95936" lon="6.56762">
        <ele>1926</ele>
        <time>2010-12-31T11:42:07.000Z</time>
      </trkpt>
      <trkpt lat="45.9594" lon="6.56764">
        <ele>1925.5999755859</ele>
        <time>2010-12-31T11:42:08.000Z</time>
      </trkpt>
      <trkpt lat="45.95941" lon="6.56775">
        <ele>1923.4000244141</ele>
        <time>2010-12-31T11:42:10.000Z</time>
      </trkpt>
      <trkpt lat="45.95949" lon="6.56787">
        <ele>1917.8000488281</ele>
        <time>2010-12-31T11:42:15.000Z</time>
      </trkpt>
      <trkpt lat="45.95955" lon="6.56793">
        <ele>1914</ele>
        <time>2010-12-31T11:42:18.000Z</time>
      </trkpt>
      <trkpt lat="45.95961" lon="6.56805">
        <ele>1909</ele>
        <time>2010-12-31T11:42:21.000Z</time>
      </trkpt>
      <trkpt lat="45.95969" lon="6.56799">
        <ele>1904.5999755859</ele>
        <time>2010-12-31T11:42:24.000Z</time>
      </trkpt>
      <trkpt lat="45.9597" lon="6.56798">
        <ele>1903.5999755859</ele>
        <time>2010-12-31T11:42:26.000Z</time>
      </trkpt>
      <trkpt lat="45.95984" lon="6.56788">
        <ele>1901.1999511719</ele>
        <time>2010-12-31T11:42:41.000Z</time>
      </trkpt>
      <trkpt lat="45.96" lon="6.56769">
        <ele>1897.5999755859</ele>
        <time>2010-12-31T11:42:45.000Z</time>
      </trkpt>
      <trkpt lat="45.96021" lon="6.56771">
        <ele>1893</ele>
        <time>2010-12-31T11:42:49.000Z</time>
      </trkpt>
      <trkpt lat="45.96035" lon="6.56782">
        <ele>1885.5999755859</ele>
        <time>2010-12-31T11:42:52.000Z</time>
      </trkpt>
      <trkpt lat="45.96051" lon="6.568">
        <ele>1878</ele>
        <time>2010-12-31T11:42:55.000Z</time>
      </trkpt>
      <trkpt lat="45.96066" lon="6.56823">
        <ele>1869.1999511719</ele>
        <time>2010-12-31T11:42:58.000Z</time>
      </trkpt>
      <trkpt lat="45.96085" lon="6.5682">
        <ele>1858.4000244141</ele>
        <time>2010-12-31T11:43:01.000Z</time>
      </trkpt>
      <trkpt lat="45.96092" lon="6.56821">
        <ele>1856.1999511719</ele>
        <time>2010-12-31T11:43:02.000Z</time>
      </trkpt>
      <trkpt lat="45.96107" lon="6.56823">
        <ele>1853.8000488281</ele>
        <time>2010-12-31T11:43:04.000Z</time>
      </trkpt>
      <trkpt lat="45.96107" lon="6.5685">
        <ele>1847.1999511719</ele>
        <time>2010-12-31T11:43:07.000Z</time>
      </trkpt>
      <trkpt lat="45.96108" lon="6.5686">
        <ele>1845.8000488281</ele>
        <time>2010-12-31T11:43:08.000Z</time>
      </trkpt>
      <trkpt lat="45.96124" lon="6.56895">
        <ele>1836</ele>
        <time>2010-12-31T11:43:13.000Z</time>
      </trkpt>
      <trkpt lat="45.96129" lon="6.56903">
        <ele>1832.1999511719</ele>
        <time>2010-12-31T11:43:16.000Z</time>
      </trkpt>
      <trkpt lat="45.96128" lon="6.56904">
        <ele>1831.5999755859</ele>
        <time>2010-12-31T11:43:18.000Z</time>
      </trkpt>
      <trkpt lat="45.96139" lon="6.56917">
        <ele>1828</ele>
        <time>2010-12-31T11:43:35.000Z</time>
      </trkpt>
      <trkpt lat="45.96152" lon="6.56942">
        <ele>1822</ele>
        <time>2010-12-31T11:43:39.000Z</time>
      </trkpt>
      <trkpt lat="45.96163" lon="6.56962">
        <ele>1817.1999511719</ele>
        <time>2010-12-31T11:43:42.000Z</time>
      </trkpt>
      <trkpt lat="45.96165" lon="6.5697">
        <ele>1816.4000244141</ele>
        <time>2010-12-31T11:43:43.000Z</time>
      </trkpt>
      <trkpt lat="45.96167" lon="6.57013">
        <ele>1808.4000244141</ele>
        <time>2010-12-31T11:43:48.000Z</time>
      </trkpt>
      <trkpt lat="45.96182" lon="6.57022">
        <ele>1804.4000244141</ele>
        <time>2010-12-31T11:43:51.000Z</time>
      </trkpt>
      <trkpt lat="45.962" lon="6.57017">
        <ele>1800.1999511719</ele>
        <time>2010-12-31T11:43:54.000Z</time>
      </trkpt>
      <trkpt lat="45.96213" lon="6.57036">
        <ele>1796</ele>
        <time>2010-12-31T11:43:57.000Z</time>
      </trkpt>
      <trkpt lat="45.9622" lon="6.57057">
        <ele>1792</ele>
        <time>2010-12-31T11:44:00.000Z</time>
      </trkpt>
      <trkpt lat="45.96228" lon="6.57078">
        <ele>1787.4000244141</ele>
        <time>2010-12-31T11:44:03.000Z</time>
      </trkpt>
      <trkpt lat="45.96235" lon="6.57074">
        <ele>1784.1999511719</ele>
        <time>2010-12-31T11:44:05.000Z</time>
      </trkpt>
      <trkpt lat="45.96235" lon="6.57072">
        <ele>1783</ele>
        <time>2010-12-31T11:44:07.000Z</time>
      </trkpt>
      <trkpt lat="45.96241" lon="6.57067">
        <ele>1782.8000488281</ele>
        <time>2010-12-31T11:44:33.000Z</time>
      </trkpt>
      <trkpt lat="45.96245" lon="6.57067">
        <ele>1782.1999511719</ele>
        <time>2010-12-31T11:44:35.000Z</time>
      </trkpt>
      <trkpt lat="45.96251" lon="6.57072">
        <ele>1780.4000244141</ele>
        <time>2010-12-31T11:44:37.000Z</time>
      </trkpt>
      <trkpt lat="45.96256" lon="6.57083">
        <ele>1778.4000244141</ele>
        <time>2010-12-31T11:44:39.000Z</time>
      </trkpt>
      <trkpt lat="45.96267" lon="6.57108">
        <ele>1773.4000244141</ele>
        <time>2010-12-31T11:44:43.000Z</time>
      </trkpt>
      <trkpt lat="45.96274" lon="6.57118">
        <ele>1771.4000244141</ele>
        <time>2010-12-31T11:44:45.000Z</time>
      </trkpt>
      <trkpt lat="45.96293" lon="6.57131">
        <ele>1765.8000488281</ele>
        <time>2010-12-31T11:44:49.000Z</time>
      </trkpt>
      <trkpt lat="45.96314" lon="6.5715">
        <ele>1760.8000488281</ele>
        <time>2010-12-31T11:44:53.000Z</time>
      </trkpt>
      <trkpt lat="45.96325" lon="6.57179">
        <ele>1753.8000488281</ele>
        <time>2010-12-31T11:44:56.000Z</time>
      </trkpt>
      <trkpt lat="45.9633" lon="6.57188">
        <ele>1751.1999511719</ele>
        <time>2010-12-31T11:44:57.000Z</time>
      </trkpt>
      <trkpt lat="45.96362" lon="6.57258">
        <ele>1736</ele>
        <time>2010-12-31T11:45:04.000Z</time>
      </trkpt>
      <trkpt lat="45.96369" lon="6.57279">
        <ele>1731.4000244141</ele>
        <time>2010-12-31T11:45:06.000Z</time>
      </trkpt>
      <trkpt lat="45.96377" lon="6.57315">
        <ele>1725.8000488281</ele>
        <time>2010-12-31T11:45:10.000Z</time>
      </trkpt>
      <trkpt lat="45.96367" lon="6.57319">
        <ele>1724</ele>
        <time>2010-12-31T11:45:13.000Z</time>
      </trkpt>
      <trkpt lat="45.96367" lon="6.57321">
        <ele>1724.1999511719</ele>
        <time>2010-12-31T11:45:15.000Z</time>
      </trkpt>
      <trkpt lat="45.96365" lon="6.57324">
        <ele>1724.1999511719</ele>
        <time>2010-12-31T11:45:27.000Z</time>
      </trkpt>
      <trkpt lat="45.96365" lon="6.57344">
        <ele>1720.8000488281</ele>
        <time>2010-12-31T11:45:31.000Z</time>
      </trkpt>
      <trkpt lat="45.9637" lon="6.57354">
        <ele>1718.4000244141</ele>
        <time>2010-12-31T11:45:33.000Z</time>
      </trkpt>
      <trkpt lat="45.9638" lon="6.57385">
        <ele>1713.1999511719</ele>
        <time>2010-12-31T11:45:37.000Z</time>
      </trkpt>
      <trkpt lat="45.96383" lon="6.57388">
        <ele>1713</ele>
        <time>2010-12-31T11:45:38.000Z</time>
      </trkpt>
      <trkpt lat="45.9639" lon="6.57406">
        <ele>1710.1999511719</ele>
        <time>2010-12-31T11:45:41.000Z</time>
      </trkpt>
      <trkpt lat="45.96405" lon="6.57443">
        <ele>1702</ele>
        <time>2010-12-31T11:45:46.000Z</time>
      </trkpt>
      <trkpt lat="45.96408" lon="6.5747">
        <ele>1697.1999511719</ele>
        <time>2010-12-31T11:45:49.000Z</time>
      </trkpt>
      <trkpt lat="45.96407" lon="6.57483">
        <ele>1695</ele>
        <time>2010-12-31T11:45:51.000Z</time>
      </trkpt>
      <trkpt lat="45.96408" lon="6.57509">
        <ele>1692.5999755859</ele>
        <time>2010-12-31T11:45:55.000Z</time>
      </trkpt>
      <trkpt lat="45.9641" lon="6.57509">
        <ele>1691.5999755859</ele>
        <time>2010-12-31T11:45:57.000Z</time>
      </trkpt>
      <trkpt lat="45.9641" lon="6.57509">
        <ele>1691.4000244141</ele>
        <time>2010-12-31T11:45:58.000Z</time>
      </trkpt>
      <trkpt lat="45.96417" lon="6.57517">
        <ele>1689.8000488281</ele>
        <time>2010-12-31T11:46:14.000Z</time>
      </trkpt>
      <trkpt lat="45.96419" lon="6.57552">
        <ele>1684.5999755859</ele>
        <time>2010-12-31T11:46:19.000Z</time>
      </trkpt>
      <trkpt lat="45.9642" lon="6.5756">
        <ele>1684</ele>
        <time>2010-12-31T11:46:21.000Z</time>
      </trkpt>
      <trkpt lat="45.9642" lon="6.57566">
        <ele>1683.8000488281</ele>
        <time>2010-12-31T11:46:22.000Z</time>
      </trkpt>
      <trkpt lat="45.9643" lon="6.57596">
        <ele>1678.5999755859</ele>
        <time>2010-12-31T11:46:27.000Z</time>
      </trkpt>
      <trkpt lat="45.96439" lon="6.5761">
        <ele>1674.8000488281</ele>
        <time>2010-12-31T11:46:31.000Z</time>
      </trkpt>
      <trkpt lat="45.96439" lon="6.57611">
        <ele>1673.8000488281</ele>
        <time>2010-12-31T11:46:34.000Z</time>
      </trkpt>
      <trkpt lat="45.96447" lon="6.57614">
        <ele>1673</ele>
        <time>2010-12-31T11:46:39.000Z</time>
      </trkpt>
      <trkpt lat="45.96462" lon="6.57616">
        <ele>1669.5999755859</ele>
        <time>2010-12-31T11:46:43.000Z</time>
      </trkpt>
      <trkpt lat="45.96468" lon="6.57617">
        <ele>1668.5999755859</ele>
        <time>2010-12-31T11:46:45.000Z</time>
      </trkpt>
      <trkpt lat="45.96468" lon="6.57616">
        <ele>1668.4000244141</ele>
        <time>2010-12-31T11:46:47.000Z</time>
      </trkpt>
      <trkpt lat="45.96469" lon="6.57629">
        <ele>1666.1999511719</ele>
        <time>2010-12-31T11:46:55.000Z</time>
      </trkpt>
      <trkpt lat="45.96475" lon="6.57635">
        <ele>1664.1999511719</ele>
        <time>2010-12-31T11:46:57.000Z</time>
      </trkpt>
      <trkpt lat="45.96489" lon="6.57656">
        <ele>1661.4000244141</ele>
        <time>2010-12-31T11:47:02.000Z</time>
      </trkpt>
      <trkpt lat="45.96499" lon="6.57683">
        <ele>1658</ele>
        <time>2010-12-31T11:47:06.000Z</time>
      </trkpt>
      <trkpt lat="45.96506" lon="6.57709">
        <ele>1654.8000488281</ele>
        <time>2010-12-31T11:47:09.000Z</time>
      </trkpt>
      <trkpt lat="45.96512" lon="6.57748">
        <ele>1649.5999755859</ele>
        <time>2010-12-31T11:47:14.000Z</time>
      </trkpt>
      <trkpt lat="45.96511" lon="6.57749">
        <ele>1649.1999511719</ele>
        <time>2010-12-31T11:47:16.000Z</time>
      </trkpt>
      <trkpt lat="45.96517" lon="6.57758">
        <ele>1648.4000244141</ele>
        <time>2010-12-31T11:47:24.000Z</time>
      </trkpt>
      <trkpt lat="45.96533" lon="6.57771">
        <ele>1644.4000244141</ele>
        <time>2010-12-31T11:47:29.000Z</time>
      </trkpt>
      <trkpt lat="45.96535" lon="6.57775">
        <ele>1644.4000244141</ele>
        <time>2010-12-31T11:47:30.000Z</time>
      </trkpt>
      <trkpt lat="45.96547" lon="6.57786">
        <ele>1641.5999755859</ele>
        <time>2010-12-31T11:47:34.000Z</time>
      </trkpt>
      <trkpt lat="45.96549" lon="6.57809">
        <ele>1638.1999511719</ele>
        <time>2010-12-31T11:47:37.000Z</time>
      </trkpt>
      <trkpt lat="45.9656" lon="6.57824">
        <ele>1634.8000488281</ele>
        <time>2010-12-31T11:47:40.000Z</time>
      </trkpt>
      <trkpt lat="45.9657" lon="6.57833">
        <ele>1633.5999755859</ele>
        <time>2010-12-31T11:47:42.000Z</time>
      </trkpt>
      <trkpt lat="45.96588" lon="6.57855">
        <ele>1627.8000488281</ele>
        <time>2010-12-31T11:47:46.000Z</time>
      </trkpt>
      <trkpt lat="45.96591" lon="6.57882">
        <ele>1623.8000488281</ele>
        <time>2010-12-31T11:47:50.000Z</time>
      </trkpt>
      <trkpt lat="45.966" lon="6.57907">
        <ele>1619.5999755859</ele>
        <time>2010-12-31T11:47:54.000Z</time>
      </trkpt>
      <trkpt lat="45.96601" lon="6.5791">
        <ele>1618.5999755859</ele>
        <time>2010-12-31T11:47:57.000Z</time>
      </trkpt>
      <trkpt lat="45.96603" lon="6.57917">
        <ele>1617.8000488281</ele>
        <time>2010-12-31T11:48:07.000Z</time>
      </trkpt>
      <trkpt lat="45.96609" lon="6.57931">
        <ele>1615.5999755859</ele>
        <time>2010-12-31T11:48:10.000Z</time>
      </trkpt>
      <trkpt lat="45.96612" lon="6.57934">
        <ele>1615</ele>
        <time>2010-12-31T11:48:11.000Z</time>
      </trkpt>
      <trkpt lat="45.96623" lon="6.57955">
        <ele>1612</ele>
        <time>2010-12-31T11:48:15.000Z</time>
      </trkpt>
      <trkpt lat="45.96629" lon="6.57984">
        <ele>1608.4000244141</ele>
        <time>2010-12-31T11:48:19.000Z</time>
      </trkpt>
      <trkpt lat="45.96636" lon="6.58005">
        <ele>1605.4000244141</ele>
        <time>2010-12-31T11:48:22.000Z</time>
      </trkpt>
      <trkpt lat="45.96641" lon="6.58024">
        <ele>1601.5999755859</ele>
        <time>2010-12-31T11:48:25.000Z</time>
      </trkpt>
      <trkpt lat="45.96646" lon="6.58051">
        <ele>1598</ele>
        <time>2010-12-31T11:48:30.000Z</time>
      </trkpt>
      <trkpt lat="45.96649" lon="6.5806">
        <ele>1597.5999755859</ele>
        <time>2010-12-31T11:48:33.000Z</time>
      </trkpt>
      <trkpt lat="45.96651" lon="6.58071">
        <ele>1596.4000244141</ele>
        <time>2010-12-31T11:48:35.000Z</time>
      </trkpt>
      <trkpt lat="45.96657" lon="6.58099">
        <ele>1592.5999755859</ele>
        <time>2010-12-31T11:48:39.000Z</time>
      </trkpt>
      <trkpt lat="45.9666" lon="6.5813">
        <ele>1588.8000488281</ele>
        <time>2010-12-31T11:48:43.000Z</time>
      </trkpt>
      <trkpt lat="45.96667" lon="6.58132">
        <ele>1587.4000244141</ele>
        <time>2010-12-31T11:48:46.000Z</time>
      </trkpt>
      <trkpt lat="45.96666" lon="6.58133">
        <ele>1587</ele>
        <time>2010-12-31T11:48:48.000Z</time>
      </trkpt>
      <trkpt lat="45.96663" lon="6.58146">
        <ele>1586.1999511719</ele>
        <time>2010-12-31T11:49:02.000Z</time>
      </trkpt>
      <trkpt lat="45.96662" lon="6.58174">
        <ele>1581.1999511719</ele>
        <time>2010-12-31T11:49:06.000Z</time>
      </trkpt>
      <trkpt lat="45.9667" lon="6.58201">
        <ele>1578.1999511719</ele>
        <time>2010-12-31T11:49:10.000Z</time>
      </trkpt>
      <trkpt lat="45.96692" lon="6.58249">
        <ele>1572.5999755859</ele>
        <time>2010-12-31T11:49:17.000Z</time>
      </trkpt>
      <trkpt lat="45.96696" lon="6.58257">
        <ele>1571.4000244141</ele>
        <time>2010-12-31T11:49:18.000Z</time>
      </trkpt>
      <trkpt lat="45.96704" lon="6.58303">
        <ele>1566</ele>
        <time>2010-12-31T11:49:23.000Z</time>
      </trkpt>
      <trkpt lat="45.96717" lon="6.58358">
        <ele>1560.4000244141</ele>
        <time>2010-12-31T11:49:29.000Z</time>
      </trkpt>
      <trkpt lat="45.96724" lon="6.58384">
        <ele>1558.5999755859</ele>
        <time>2010-12-31T11:49:32.000Z</time>
      </trkpt>
      <trkpt lat="45.96731" lon="6.58416">
        <ele>1556.1999511719</ele>
        <time>2010-12-31T11:49:36.000Z</time>
      </trkpt>
      <trkpt lat="45.96729" lon="6.58444">
        <ele>1553.4000244141</ele>
        <time>2010-12-31T11:49:40.000Z</time>
      </trkpt>
      <trkpt lat="45.96739" lon="6.58466">
        <ele>1550.5999755859</ele>
        <time>2010-12-31T11:49:43.000Z</time>
      </trkpt>
      <trkpt lat="45.96744" lon="6.58468">
        <ele>1550</ele>
        <time>2010-12-31T11:49:44.000Z</time>
      </trkpt>
      <trkpt lat="45.96761" lon="6.58487">
        <ele>1549.4000244141</ele>
        <time>2010-12-31T11:49:48.000Z</time>
      </trkpt>
      <trkpt lat="45.96778" lon="6.58515">
        <ele>1546.8000488281</ele>
        <time>2010-12-31T11:49:52.000Z</time>
      </trkpt>
      <trkpt lat="45.96787" lon="6.58542">
        <ele>1543.5999755859</ele>
        <time>2010-12-31T11:49:55.000Z</time>
      </trkpt>
      <trkpt lat="45.96805" lon="6.58581">
        <ele>1541</ele>
        <time>2010-12-31T11:50:00.000Z</time>
      </trkpt>
      <trkpt lat="45.96833" lon="6.58626">
        <ele>1536.5999755859</ele>
        <time>2010-12-31T11:50:07.000Z</time>
      </trkpt>
      <trkpt lat="45.96843" lon="6.58656">
        <ele>1536.4000244141</ele>
        <time>2010-12-31T11:50:12.000Z</time>
      </trkpt>
      <trkpt lat="45.96846" lon="6.58668">
        <ele>1536</ele>
        <time>2010-12-31T11:50:14.000Z</time>
      </trkpt>
      <trkpt lat="45.96854" lon="6.58708">
        <ele>1535.4000244141</ele>
        <time>2010-12-31T11:50:22.000Z</time>
      </trkpt>
      <trkpt lat="45.96861" lon="6.58732">
        <ele>1535.4000244141</ele>
        <time>2010-12-31T11:50:29.000Z</time>
      </trkpt>
      <trkpt lat="45.96872" lon="6.58748">
        <ele>1534.8000488281</ele>
        <time>2010-12-31T11:50:34.000Z</time>
      </trkpt>
      <trkpt lat="45.96886" lon="6.58764">
        <ele>1534.1999511719</ele>
        <time>2010-12-31T11:50:40.000Z</time>
      </trkpt>
      <trkpt lat="45.96886" lon="6.58778">
        <ele>1534.4000244141</ele>
        <time>2010-12-31T11:50:46.000Z</time>
      </trkpt>
      <trkpt lat="45.96882" lon="6.58795">
        <ele>1533.5999755859</ele>
        <time>2010-12-31T11:50:51.000Z</time>
      </trkpt>
      <trkpt lat="45.96877" lon="6.58815">
        <ele>1533.5999755859</ele>
        <time>2010-12-31T11:50:57.000Z</time>
      </trkpt>
      <trkpt lat="45.96874" lon="6.58838">
        <ele>1533.1999511719</ele>
        <time>2010-12-31T11:51:03.000Z</time>
      </trkpt>
      <trkpt lat="45.96873" lon="6.58852">
        <ele>1533.8000488281</ele>
        <time>2010-12-31T11:51:08.000Z</time>
      </trkpt>
      <trkpt lat="45.9687" lon="6.5886">
        <ele>1534.1999511719</ele>
        <time>2010-12-31T11:51:15.000Z</time>
      </trkpt>
      <trkpt lat="45.96863" lon="6.58872">
        <ele>1534.1999511719</ele>
        <time>2010-12-31T11:51:21.000Z</time>
      </trkpt>
      <trkpt lat="45.96859" lon="6.5888">
        <ele>1534.5999755859</ele>
        <time>2010-12-31T11:51:27.000Z</time>
      </trkpt>
      <trkpt lat="45.96854" lon="6.5889">
        <ele>1535.1999511719</ele>
        <time>2010-12-31T11:51:35.000Z</time>
      </trkpt>
      <trkpt lat="45.96849" lon="6.58903">
        <ele>1534.8000488281</ele>
        <time>2010-12-31T11:51:40.000Z</time>
      </trkpt>
      <trkpt lat="45.96847" lon="6.58917">
        <ele>1534.5999755859</ele>
        <time>2010-12-31T11:51:45.000Z</time>
      </trkpt>
      <trkpt lat="45.96841" lon="6.58934">
        <ele>1534.5999755859</ele>
        <time>2010-12-31T11:51:52.000Z</time>
      </trkpt>
      <trkpt lat="45.96835" lon="6.58958">
        <ele>1534</ele>
        <time>2010-12-31T11:52:00.000Z</time>
      </trkpt>
      <trkpt lat="45.96827" lon="6.5898">
        <ele>1533.4000244141</ele>
        <time>2010-12-31T11:52:06.000Z</time>
      </trkpt>
      <trkpt lat="45.9682" lon="6.58989">
        <ele>1533</ele>
        <time>2010-12-31T11:52:10.000Z</time>
      </trkpt>
      <trkpt lat="45.9682" lon="6.59005">
        <ele>1532.5999755859</ele>
        <time>2010-12-31T11:52:14.000Z</time>
      </trkpt>
      <trkpt lat="45.96833" lon="6.59048">
        <ele>1529.1999511719</ele>
        <time>2010-12-31T11:52:21.000Z</time>
      </trkpt>
      <trkpt lat="45.96841" lon="6.59081">
        <ele>1528.5999755859</ele>
        <time>2010-12-31T11:52:27.000Z</time>
      </trkpt>
      <trkpt lat="45.96843" lon="6.59109">
        <ele>1527.4000244141</ele>
        <time>2010-12-31T11:52:33.000Z</time>
      </trkpt>
      <trkpt lat="45.96842" lon="6.59115">
        <ele>1526.8000488281</ele>
        <time>2010-12-31T11:52:34.000Z</time>
      </trkpt>
      <trkpt lat="45.96842" lon="6.59128">
        <ele>1525.5999755859</ele>
        <time>2010-12-31T11:52:36.000Z</time>
      </trkpt>
      <trkpt lat="45.96841" lon="6.59142">
        <ele>1524</ele>
        <time>2010-12-31T11:52:38.000Z</time>
      </trkpt>
      <trkpt lat="45.96833" lon="6.59181">
        <ele>1519.5999755859</ele>
        <time>2010-12-31T11:52:43.000Z</time>
      </trkpt>
      <trkpt lat="45.96835" lon="6.59224">
        <ele>1515.1999511719</ele>
        <time>2010-12-31T11:52:47.000Z</time>
      </trkpt>
      <trkpt lat="45.96838" lon="6.59233">
        <ele>1514.8000488281</ele>
        <time>2010-12-31T11:52:48.000Z</time>
      </trkpt>
      <trkpt lat="45.96851" lon="6.59275">
        <ele>1513.5999755859</ele>
        <time>2010-12-31T11:52:53.000Z</time>
      </trkpt>
      <trkpt lat="45.96858" lon="6.59304">
        <ele>1513.4000244141</ele>
        <time>2010-12-31T11:52:58.000Z</time>
      </trkpt>
      <trkpt lat="45.9686" lon="6.59316">
        <ele>1512.4000244141</ele>
        <time>2010-12-31T11:53:00.000Z</time>
      </trkpt>
      <trkpt lat="45.96863" lon="6.59346">
        <ele>1509.8000488281</ele>
        <time>2010-12-31T11:53:05.000Z</time>
      </trkpt>
      <trkpt lat="45.96865" lon="6.59367">
        <ele>1508.5999755859</ele>
        <time>2010-12-31T11:53:10.000Z</time>
      </trkpt>
      <trkpt lat="45.96864" lon="6.59392">
        <ele>1505.8000488281</ele>
        <time>2010-12-31T11:53:14.000Z</time>
      </trkpt>
      <trkpt lat="45.96859" lon="6.59418">
        <ele>1503.4000244141</ele>
        <time>2010-12-31T11:53:18.000Z</time>
      </trkpt>
      <trkpt lat="45.96854" lon="6.59434">
        <ele>1503.1999511719</ele>
        <time>2010-12-31T11:53:23.000Z</time>
      </trkpt>
      <trkpt lat="45.96845" lon="6.59448">
        <ele>1499.5999755859</ele>
        <time>2010-12-31T11:53:28.000Z</time>
      </trkpt>
      <trkpt lat="45.96839" lon="6.59458">
        <ele>1497.1999511719</ele>
        <time>2010-12-31T11:53:31.000Z</time>
      </trkpt>
      <trkpt lat="45.96837" lon="6.59459">
        <ele>1496.5999755859</ele>
        <time>2010-12-31T11:53:33.000Z</time>
      </trkpt>
      <trkpt lat="45.96835" lon="6.59457">
        <ele>1496.1999511719</ele>
        <time>2010-12-31T11:53:35.000Z</time>
      </trkpt>
      <trkpt lat="45.96832" lon="6.59457">
        <ele>1494.8000488281</ele>
        <time>2010-12-31T11:53:39.000Z</time>
      </trkpt>
      <trkpt lat="45.96827" lon="6.59461">
        <ele>1492.5999755859</ele>
        <time>2010-12-31T11:53:44.000Z</time>
      </trkpt>
      <trkpt lat="45.96813" lon="6.59458">
        <ele>1487</ele>
        <time>2010-12-31T11:53:51.000Z</time>
      </trkpt>
      <trkpt lat="45.96803" lon="6.59459">
        <ele>1484.8000488281</ele>
        <time>2010-12-31T11:53:55.000Z</time>
      </trkpt>
      <trkpt lat="45.96799" lon="6.59459">
        <ele>1482</ele>
        <time>2010-12-31T11:53:57.000Z</time>
      </trkpt>
      <trkpt lat="45.96791" lon="6.59458">
        <ele>1478.4000244141</ele>
        <time>2010-12-31T11:54:01.000Z</time>
      </trkpt>
      <trkpt lat="45.96772" lon="6.59459">
        <ele>1471.4000244141</ele>
        <time>2010-12-31T11:54:07.000Z</time>
      </trkpt>
      <trkpt lat="45.96775" lon="6.59463">
        <ele>1468.1999511719</ele>
        <time>2010-12-31T11:54:10.000Z</time>
      </trkpt>
      <trkpt lat="45.96791" lon="6.59469">
        <ele>1462.1999511719</ele>
        <time>2010-12-31T11:54:16.000Z</time>
      </trkpt>
      <trkpt lat="45.96802" lon="6.59476">
        <ele>1458.4000244141</ele>
        <time>2010-12-31T11:54:20.000Z</time>
      </trkpt>
      <trkpt lat="45.96805" lon="6.59481">
        <ele>1457</ele>
        <time>2010-12-31T11:54:23.000Z</time>
      </trkpt>
      <trkpt lat="45.96808" lon="6.59486">
        <ele>1456</ele>
        <time>2010-12-31T11:54:26.000Z</time>
      </trkpt>
      <trkpt lat="45.96807" lon="6.59495">
        <ele>1454</ele>
        <time>2010-12-31T11:54:30.000Z</time>
      </trkpt>
      <trkpt lat="45.96812" lon="6.59515">
        <ele>1450.5999755859</ele>
        <time>2010-12-31T11:54:35.000Z</time>
      </trkpt>
      <trkpt lat="45.96792" lon="6.59541">
        <ele>1444.4000244141</ele>
        <time>2010-12-31T11:54:44.000Z</time>
      </trkpt>
      <trkpt lat="45.96792" lon="6.59562">
        <ele>1439</ele>
        <time>2010-12-31T11:54:48.000Z</time>
      </trkpt>
      <trkpt lat="45.96795" lon="6.59562">
        <ele>1436.5999755859</ele>
        <time>2010-12-31T11:54:50.000Z</time>
      </trkpt>
      <trkpt lat="45.96798" lon="6.5957">
        <ele>1436.1999511719</ele>
        <time>2010-12-31T11:54:54.000Z</time>
      </trkpt>
      <trkpt lat="45.96799" lon="6.5957">
        <ele>1438.1999511719</ele>
        <time>2010-12-31T11:54:55.000Z</time>
      </trkpt>
      <trkpt lat="45.96821" lon="6.59575">
        <ele>1432.4000244141</ele>
        <time>2010-12-31T11:55:07.000Z</time>
      </trkpt>
      <trkpt lat="45.96836" lon="6.59596">
        <ele>1428</ele>
        <time>2010-12-31T11:55:12.000Z</time>
      </trkpt>
      <trkpt lat="45.9683" lon="6.59605">
        <ele>1424.1999511719</ele>
        <time>2010-12-31T11:55:15.000Z</time>
      </trkpt>
      <trkpt lat="45.96818" lon="6.5961">
        <ele>1416.1999511719</ele>
        <time>2010-12-31T11:55:23.000Z</time>
      </trkpt>
      <trkpt lat="45.96824" lon="6.59617">
        <ele>1411.5999755859</ele>
        <time>2010-12-31T11:55:28.000Z</time>
      </trkpt>
      <trkpt lat="45.96826" lon="6.59622">
        <ele>1411.1999511719</ele>
        <time>2010-12-31T11:55:31.000Z</time>
      </trkpt>
      <trkpt lat="45.96835" lon="6.5963">
        <ele>1407.4000244141</ele>
        <time>2010-12-31T11:55:37.000Z</time>
      </trkpt>
      <trkpt lat="45.9684" lon="6.59635">
        <ele>1405.1999511719</ele>
        <time>2010-12-31T11:55:40.000Z</time>
      </trkpt>
      <trkpt lat="45.96845" lon="6.59643">
        <ele>1404.1999511719</ele>
        <time>2010-12-31T11:55:44.000Z</time>
      </trkpt>
      <trkpt lat="45.96851" lon="6.59642">
        <ele>1402.8000488281</ele>
        <time>2010-12-31T11:55:46.000Z</time>
      </trkpt>
      <trkpt lat="45.96845" lon="6.5967">
        <ele>1399.1999511719</ele>
        <time>2010-12-31T11:55:50.000Z</time>
      </trkpt>
      <trkpt lat="45.96847" lon="6.59672">
        <ele>1397.4000244141</ele>
        <time>2010-12-31T11:55:53.000Z</time>
      </trkpt>
      <trkpt lat="45.96831" lon="6.59681">
        <ele>1390.1999511719</ele>
        <time>2010-12-31T11:56:04.000Z</time>
      </trkpt>
      <trkpt lat="45.96828" lon="6.59679">
        <ele>1388.1999511719</ele>
        <time>2010-12-31T11:56:06.000Z</time>
      </trkpt>
      <trkpt lat="45.96816" lon="6.59675">
        <ele>1382.4000244141</ele>
        <time>2010-12-31T11:56:11.000Z</time>
      </trkpt>
      <trkpt lat="45.96813" lon="6.59672">
        <ele>1380.4000244141</ele>
        <time>2010-12-31T11:56:14.000Z</time>
      </trkpt>
      <trkpt lat="45.96812" lon="6.59672">
        <ele>1380</ele>
        <time>2010-12-31T11:56:15.000Z</time>
      </trkpt>
      <trkpt lat="45.968" lon="6.59669">
        <ele>1376.4000244141</ele>
        <time>2010-12-31T11:56:20.000Z</time>
      </trkpt>
      <trkpt lat="45.96799" lon="6.59668">
        <ele>1376.1999511719</ele>
        <time>2010-12-31T11:56:21.000Z</time>
      </trkpt>
      <trkpt lat="45.96797" lon="6.59667">
        <ele>1375.5999755859</ele>
        <time>2010-12-31T11:56:23.000Z</time>
      </trkpt>
      <trkpt lat="45.96774" lon="6.59668">
        <ele>1372.4000244141</ele>
        <time>2010-12-31T11:56:34.000Z</time>
      </trkpt>
      <trkpt lat="45.96772" lon="6.59667">
        <ele>1371.5999755859</ele>
        <time>2010-12-31T11:56:35.000Z</time>
      </trkpt>
      <trkpt lat="45.96756" lon="6.59656">
        <ele>1369.1999511719</ele>
        <time>2010-12-31T11:56:41.000Z</time>
      </trkpt>
      <trkpt lat="45.96745" lon="6.59653">
        <ele>1367.5999755859</ele>
        <time>2010-12-31T11:56:44.000Z</time>
      </trkpt>
      <trkpt lat="45.96732" lon="6.59651">
        <ele>1366.1999511719</ele>
        <time>2010-12-31T11:56:49.000Z</time>
      </trkpt>
      <trkpt lat="45.96722" lon="6.59644">
        <ele>1363.1999511719</ele>
        <time>2010-12-31T11:56:55.000Z</time>
      </trkpt>
      <trkpt lat="45.96717" lon="6.59646">
        <ele>1362.1999511719</ele>
        <time>2010-12-31T11:56:58.000Z</time>
      </trkpt>
      <trkpt lat="45.96698" lon="6.59649">
        <ele>1357.5999755859</ele>
        <time>2010-12-31T11:57:02.000Z</time>
      </trkpt>
      <trkpt lat="45.96684" lon="6.59648">
        <ele>1352.5999755859</ele>
        <time>2010-12-31T11:57:06.000Z</time>
      </trkpt>
      <trkpt lat="45.96685" lon="6.5965">
        <ele>1351.5999755859</ele>
        <time>2010-12-31T11:57:08.000Z</time>
      </trkpt>
      <trkpt lat="45.96685" lon="6.59651">
        <ele>1351.4000244141</ele>
        <time>2010-12-31T11:57:09.000Z</time>
      </trkpt>
      <trkpt lat="45.96677" lon="6.59662">
        <ele>1349.8000488281</ele>
        <time>2010-12-31T11:57:24.000Z</time>
      </trkpt>
      <trkpt lat="45.9667" lon="6.59663">
        <ele>1347.5999755859</ele>
        <time>2010-12-31T11:57:30.000Z</time>
      </trkpt>
      <trkpt lat="45.96662" lon="6.59668">
        <ele>1345.1999511719</ele>
        <time>2010-12-31T11:57:34.000Z</time>
      </trkpt>
      <trkpt lat="45.96656" lon="6.59669">
        <ele>1343.4000244141</ele>
        <time>2010-12-31T11:57:36.000Z</time>
      </trkpt>
      <trkpt lat="45.96653" lon="6.59666">
        <ele>1342</ele>
        <time>2010-12-31T11:57:40.000Z</time>
      </trkpt>
      <trkpt lat="45.96648" lon="6.5966">
        <ele>1340.1999511719</ele>
        <time>2010-12-31T11:57:45.000Z</time>
      </trkpt>
      <trkpt lat="45.96647" lon="6.59657">
        <ele>1338.1999511719</ele>
        <time>2010-12-31T11:57:48.000Z</time>
      </trkpt>
      <trkpt lat="45.96641" lon="6.59661">
        <ele>1335</ele>
        <time>2010-12-31T11:57:54.000Z</time>
      </trkpt>
      <trkpt lat="45.96641" lon="6.59669">
        <ele>1333.4000244141</ele>
        <time>2010-12-31T11:57:58.000Z</time>
      </trkpt>
      <trkpt lat="45.96643" lon="6.59676">
        <ele>1332</ele>
        <time>2010-12-31T11:58:00.000Z</time>
      </trkpt>
      <trkpt lat="45.96653" lon="6.5969">
        <ele>1327.4000244141</ele>
        <time>2010-12-31T11:58:04.000Z</time>
      </trkpt>
      <trkpt lat="45.96666" lon="6.59696">
        <ele>1324.4000244141</ele>
        <time>2010-12-31T11:58:08.000Z</time>
      </trkpt>
      <trkpt lat="45.96667" lon="6.59696">
        <ele>1324</ele>
        <time>2010-12-31T11:58:10.000Z</time>
      </trkpt>
      <trkpt lat="45.96672" lon="6.59697">
        <ele>1322.1999511719</ele>
        <time>2010-12-31T11:58:14.000Z</time>
      </trkpt>
      <trkpt lat="45.96681" lon="6.59697">
        <ele>1320.5999755859</ele>
        <time>2010-12-31T11:58:17.000Z</time>
      </trkpt>
      <trkpt lat="45.96685" lon="6.59702">
        <ele>1318.1999511719</ele>
        <time>2010-12-31T11:58:22.000Z</time>
      </trkpt>
      <trkpt lat="45.96686" lon="6.59702">
        <ele>1317.5999755859</ele>
        <time>2010-12-31T11:58:24.000Z</time>
      </trkpt>
      <trkpt lat="45.96685" lon="6.5972">
        <ele>1316.4000244141</ele>
        <time>2010-12-31T11:58:28.000Z</time>
      </trkpt>
      <trkpt lat="45.96677" lon="6.59732">
        <ele>1313.8000488281</ele>
        <time>2010-12-31T11:58:32.000Z</time>
      </trkpt>
      <trkpt lat="45.96677" lon="6.59728">
        <ele>1313</ele>
        <time>2010-12-31T11:58:34.000Z</time>
      </trkpt>
      <trkpt lat="45.9666" lon="6.59732">
        <ele>1307.4000244141</ele>
        <time>2010-12-31T11:58:42.000Z</time>
      </trkpt>
      <trkpt lat="45.96658" lon="6.59734">
        <ele>1306.5999755859</ele>
        <time>2010-12-31T11:58:43.000Z</time>
      </trkpt>
      <trkpt lat="45.9664" lon="6.59744">
        <ele>1301.1999511719</ele>
        <time>2010-12-31T11:58:52.000Z</time>
      </trkpt>
      <trkpt lat="45.96625" lon="6.59743">
        <ele>1297.5999755859</ele>
        <time>2010-12-31T11:58:56.000Z</time>
      </trkpt>
      <trkpt lat="45.96609" lon="6.59742">
        <ele>1294.1999511719</ele>
        <time>2010-12-31T11:58:59.000Z</time>
      </trkpt>
      <trkpt lat="45.96608" lon="6.59744">
        <ele>1294</ele>
        <time>2010-12-31T11:59:00.000Z</time>
      </trkpt>
      <trkpt lat="45.96614" lon="6.5975">
        <ele>1293</ele>
        <time>2010-12-31T11:59:03.000Z</time>
      </trkpt>
      <trkpt lat="45.96629" lon="6.59765">
        <ele>1289</ele>
        <time>2010-12-31T11:59:07.000Z</time>
      </trkpt>
      <trkpt lat="45.96646" lon="6.59776">
        <ele>1285.4000244141</ele>
        <time>2010-12-31T11:59:11.000Z</time>
      </trkpt>
      <trkpt lat="45.96653" lon="6.59784">
        <ele>1283.5999755859</ele>
        <time>2010-12-31T11:59:13.000Z</time>
      </trkpt>
      <trkpt lat="45.96668" lon="6.59782">
        <ele>1278.4000244141</ele>
        <time>2010-12-31T11:59:18.000Z</time>
      </trkpt>
      <trkpt lat="45.96673" lon="6.59786">
        <ele>1277.4000244141</ele>
        <time>2010-12-31T11:59:22.000Z</time>
      </trkpt>
      <trkpt lat="45.9668" lon="6.59792">
        <ele>1275.4000244141</ele>
        <time>2010-12-31T11:59:25.000Z</time>
      </trkpt>
      <trkpt lat="45.96692" lon="6.59797">
        <ele>1271.5999755859</ele>
        <time>2010-12-31T11:59:30.000Z</time>
      </trkpt>
      <trkpt lat="45.96677" lon="6.59811">
        <ele>1266.8000488281</ele>
        <time>2010-12-31T11:59:35.000Z</time>
      </trkpt>
      <trkpt lat="45.96665" lon="6.59821">
        <ele>1262</ele>
        <time>2010-12-31T11:59:39.000Z</time>
      </trkpt>
      <trkpt lat="45.96659" lon="6.59823">
        <ele>1259.5999755859</ele>
        <time>2010-12-31T11:59:41.000Z</time>
      </trkpt>
      <trkpt lat="45.96647" lon="6.59831">
        <ele>1255</ele>
        <time>2010-12-31T11:59:47.000Z</time>
      </trkpt>
      <trkpt lat="45.96646" lon="6.59832">
        <ele>1254.8000488281</ele>
        <time>2010-12-31T11:59:48.000Z</time>
      </trkpt>
      <trkpt lat="45.96629" lon="6.59834">
        <ele>1251.1999511719</ele>
        <time>2010-12-31T11:59:58.000Z</time>
      </trkpt>
      <trkpt lat="45.9661" lon="6.59848">
        <ele>1246.4000244141</ele>
        <time>2010-12-31T12:00:03.000Z</time>
      </trkpt>
      <trkpt lat="45.96584" lon="6.59857">
        <ele>1239.8000488281</ele>
        <time>2010-12-31T12:00:08.000Z</time>
      </trkpt>
      <trkpt lat="45.96564" lon="6.5986">
        <ele>1235.4000244141</ele>
        <time>2010-12-31T12:00:11.000Z</time>
      </trkpt>
      <trkpt lat="45.96556" lon="6.59853">
        <ele>1234.5999755859</ele>
        <time>2010-12-31T12:00:13.000Z</time>
      </trkpt>
      <trkpt lat="45.96551" lon="6.59846">
        <ele>1236</ele>
        <time>2010-12-31T12:00:18.000Z</time>
      </trkpt>
      <trkpt lat="45.9655" lon="6.59852">
        <ele>1235.1999511719</ele>
        <time>2010-12-31T12:00:27.000Z</time>
      </trkpt>
      <trkpt lat="45.96534" lon="6.59865">
        <ele>1233</ele>
        <time>2010-12-31T12:01:10.000Z</time>
      </trkpt>
      <trkpt lat="45.96527" lon="6.59858">
        <ele>1230.5999755859</ele>
        <time>2010-12-31T12:01:14.000Z</time>
      </trkpt>
      <trkpt lat="45.96527" lon="6.59857">
        <ele>1230.4000244141</ele>
        <time>2010-12-31T12:01:15.000Z</time>
      </trkpt>
      <trkpt lat="45.96524" lon="6.59856">
        <ele>1230</ele>
        <time>2010-12-31T12:01:23.000Z</time>
      </trkpt>
      <trkpt lat="45.96515" lon="6.59853">
        <ele>1227.8000488281</ele>
        <time>2010-12-31T12:01:37.000Z</time>
      </trkpt>
      <trkpt lat="45.96511" lon="6.59853">
        <ele>1226.8000488281</ele>
        <time>2010-12-31T12:01:41.000Z</time>
      </trkpt>
      <trkpt lat="45.96498" lon="6.59853">
        <ele>1221.4000244141</ele>
        <time>2010-12-31T12:01:46.000Z</time>
      </trkpt>
      <trkpt lat="45.96493" lon="6.59855">
        <ele>1222</ele>
        <time>2010-12-31T12:01:49.000Z</time>
      </trkpt>
      <trkpt lat="45.96483" lon="6.59861">
        <ele>1219.5999755859</ele>
        <time>2010-12-31T12:01:58.000Z</time>
      </trkpt>
      <trkpt lat="45.96482" lon="6.59861">
        <ele>1219.4000244141</ele>
        <time>2010-12-31T12:01:59.000Z</time>
      </trkpt>
      <trkpt lat="45.96465" lon="6.59882">
        <ele>1214.4000244141</ele>
        <time>2010-12-31T12:02:08.000Z</time>
      </trkpt>
      <trkpt lat="45.96445" lon="6.59894">
        <ele>1211.1999511719</ele>
        <time>2010-12-31T12:02:14.000Z</time>
      </trkpt>
      <trkpt lat="45.96443" lon="6.59897">
        <ele>1210.5999755859</ele>
        <time>2010-12-31T12:02:15.000Z</time>
      </trkpt>
      <trkpt lat="45.96422" lon="6.59909">
        <ele>1206.8000488281</ele>
        <time>2010-12-31T12:02:22.000Z</time>
      </trkpt>
      <trkpt lat="45.96419" lon="6.59913">
        <ele>1206.5999755859</ele>
        <time>2010-12-31T12:02:23.000Z</time>
      </trkpt>
      <trkpt lat="45.96402" lon="6.59926">
        <ele>1203</ele>
        <time>2010-12-31T12:02:28.000Z</time>
      </trkpt>
      <trkpt lat="45.96384" lon="6.59934">
        <ele>1200.1999511719</ele>
        <time>2010-12-31T12:02:32.000Z</time>
      </trkpt>
      <trkpt lat="45.9638" lon="6.59936">
        <ele>1199</ele>
        <time>2010-12-31T12:02:33.000Z</time>
      </trkpt>
      <trkpt lat="45.96353" lon="6.59963">
        <ele>1194</ele>
        <time>2010-12-31T12:02:38.000Z</time>
      </trkpt>
      <trkpt lat="45.96334" lon="6.59978">
        <ele>1192.4000244141</ele>
        <time>2010-12-31T12:02:43.000Z</time>
      </trkpt>
      <trkpt lat="45.96325" lon="6.59987">
        <ele>1190.5999755859</ele>
        <time>2010-12-31T12:02:48.000Z</time>
      </trkpt>
      <trkpt lat="45.9631" lon="6.59997">
        <ele>1185.5999755859</ele>
        <time>2010-12-31T12:02:52.000Z</time>
      </trkpt>
      <trkpt lat="45.96294" lon="6.60009">
        <ele>1180.1999511719</ele>
        <time>2010-12-31T12:02:55.000Z</time>
      </trkpt>
      <trkpt lat="45.96254" lon="6.60035">
        <ele>1178.5999755859</ele>
        <time>2010-12-31T12:02:59.000Z</time>
      </trkpt>
      <trkpt lat="45.96237" lon="6.60051">
        <ele>1179.4000244141</ele>
        <time>2010-12-31T12:03:04.000Z</time>
      </trkpt>
      <trkpt lat="45.96231" lon="6.6006">
        <ele>1178.8000488281</ele>
        <time>2010-12-31T12:03:07.000Z</time>
      </trkpt>
      <trkpt lat="45.96218" lon="6.60079">
        <ele>1175</ele>
        <time>2010-12-31T12:03:12.000Z</time>
      </trkpt>
      <trkpt lat="45.96205" lon="6.60099">
        <ele>1172.5999755859</ele>
        <time>2010-12-31T12:03:16.000Z</time>
      </trkpt>
      <trkpt lat="45.96202" lon="6.60102">
        <ele>1172.5999755859</ele>
        <time>2010-12-31T12:03:18.000Z</time>
      </trkpt>
      <trkpt lat="45.96194" lon="6.60107">
        <ele>1172.5999755859</ele>
        <time>2010-12-31T12:03:41.000Z</time>
      </trkpt>
      <trkpt lat="45.96194" lon="6.60108">
        <ele>1172.4000244141</ele>
        <time>2010-12-31T12:03:42.000Z</time>
      </trkpt>
      <trkpt lat="45.96187" lon="6.60115">
        <ele>1170.5999755859</ele>
        <time>2010-12-31T12:03:49.000Z</time>
      </trkpt>
      <trkpt lat="45.96186" lon="6.60118">
        <ele>1170</ele>
        <time>2010-12-31T12:03:51.000Z</time>
      </trkpt>
      <trkpt lat="45.96177" lon="6.6013">
        <ele>1168.1999511719</ele>
        <time>2010-12-31T12:03:59.000Z</time>
      </trkpt>
      <trkpt lat="45.96167" lon="6.60139">
        <ele>1166.1999511719</ele>
        <time>2010-12-31T12:04:07.000Z</time>
      </trkpt>
      <trkpt lat="45.96158" lon="6.6015">
        <ele>1164</ele>
        <time>2010-12-31T12:04:16.000Z</time>
      </trkpt>
      <trkpt lat="45.96157" lon="6.60154">
        <ele>1163.1999511719</ele>
        <time>2010-12-31T12:04:19.000Z</time>
      </trkpt>
      <trkpt lat="45.96166" lon="6.60162">
        <ele>1161.1999511719</ele>
        <time>2010-12-31T12:04:27.000Z</time>
      </trkpt>
      <trkpt lat="45.96172" lon="6.60162">
        <ele>1160.4000244141</ele>
        <time>2010-12-31T12:04:33.000Z</time>
      </trkpt>
      <trkpt lat="45.96172" lon="6.60163">
        <ele>1160.4000244141</ele>
        <time>2010-12-31T12:04:34.000Z</time>
      </trkpt>
      <trkpt lat="45.9617" lon="6.6017">
        <ele>1160.4000244141</ele>
        <time>2010-12-31T12:05:33.000Z</time>
      </trkpt>
      <trkpt lat="45.9617" lon="6.60172">
        <ele>1159.8000488281</ele>
        <time>2010-12-31T12:05:40.000Z</time>
      </trkpt>
      <trkpt lat="45.96171" lon="6.60178">
        <ele>1157.1999511719</ele>
        <time>2010-12-31T12:05:47.000Z</time>
      </trkpt>
      <trkpt lat="45.96172" lon="6.60178">
        <ele>1157</ele>
        <time>2010-12-31T12:05:48.000Z</time>
      </trkpt>
      <trkpt lat="45.9618" lon="6.60184">
        <ele>1155</ele>
        <time>2010-12-31T12:05:55.000Z</time>
      </trkpt>
      <trkpt lat="45.96185" lon="6.60194">
        <ele>1153</ele>
        <time>2010-12-31T12:06:01.000Z</time>
      </trkpt>
      <trkpt lat="45.96182" lon="6.60204">
        <ele>1150.5999755859</ele>
        <time>2010-12-31T12:06:04.000Z</time>
      </trkpt>
      <trkpt lat="45.96183" lon="6.60207">
        <ele>1149.8000488281</ele>
        <time>2010-12-31T12:06:05.000Z</time>
      </trkpt>
      <trkpt lat="45.96185" lon="6.60213">
        <ele>1148.5999755859</ele>
        <time>2010-12-31T12:06:07.000Z</time>
      </trkpt>
      <trkpt lat="45.96181" lon="6.60218">
        <ele>1146.1999511719</ele>
        <time>2010-12-31T12:06:11.000Z</time>
      </trkpt>
      <trkpt lat="45.96181" lon="6.60216">
        <ele>1145.5999755859</ele>
        <time>2010-12-31T12:06:13.000Z</time>
      </trkpt>
      <trkpt lat="45.96175" lon="6.60224">
        <ele>1142.8000488281</ele>
        <time>2010-12-31T12:06:18.000Z</time>
      </trkpt>
      <trkpt lat="45.96173" lon="6.60225">
        <ele>1141.4000244141</ele>
        <time>2010-12-31T12:06:20.000Z</time>
      </trkpt>
      <trkpt lat="45.96166" lon="6.60228">
        <ele>1140</ele>
        <time>2010-12-31T12:06:24.000Z</time>
      </trkpt>
      <trkpt lat="45.96161" lon="6.60229">
        <ele>1139.1999511719</ele>
        <time>2010-12-31T12:06:27.000Z</time>
      </trkpt>
      <trkpt lat="45.96153" lon="6.60242">
        <ele>1137.1999511719</ele>
        <time>2010-12-31T12:06:31.000Z</time>
      </trkpt>
      <trkpt lat="45.96142" lon="6.6026">
        <ele>1134.8000488281</ele>
        <time>2010-12-31T12:06:35.000Z</time>
      </trkpt>
      <trkpt lat="45.96139" lon="6.60265">
        <ele>1134.5999755859</ele>
        <time>2010-12-31T12:06:36.000Z</time>
      </trkpt>
      <trkpt lat="45.96132" lon="6.603">
        <ele>1129.8000488281</ele>
        <time>2010-12-31T12:06:41.000Z</time>
      </trkpt>
      <trkpt lat="45.96131" lon="6.60337">
        <ele>1124.1999511719</ele>
        <time>2010-12-31T12:06:45.000Z</time>
      </trkpt>
      <trkpt lat="45.96127" lon="6.60348">
        <ele>1123</ele>
        <time>2010-12-31T12:06:47.000Z</time>
      </trkpt>
      <trkpt lat="45.96125" lon="6.60354">
        <ele>1122.8000488281</ele>
        <time>2010-12-31T12:06:50.000Z</time>
      </trkpt>
      <trkpt lat="45.96125" lon="6.60363">
        <ele>1122.5999755859</ele>
        <time>2010-12-31T12:06:54.000Z</time>
      </trkpt>
      <trkpt lat="45.96124" lon="6.60373">
        <ele>1121.5999755859</ele>
        <time>2010-12-31T12:06:56.000Z</time>
      </trkpt>
      <trkpt lat="45.96122" lon="6.60399">
        <ele>1118.1999511719</ele>
        <time>2010-12-31T12:07:00.000Z</time>
      </trkpt>
      <trkpt lat="45.96116" lon="6.60406">
        <ele>1117.1999511719</ele>
        <time>2010-12-31T12:07:03.000Z</time>
      </trkpt>
      <trkpt lat="45.96114" lon="6.60406">
        <ele>1117.1999511719</ele>
        <time>2010-12-31T12:07:05.000Z</time>
      </trkpt>
      <trkpt lat="45.96108" lon="6.60423">
        <ele>1115.5999755859</ele>
        <time>2010-12-31T12:07:09.000Z</time>
      </trkpt>
      <trkpt lat="45.96112" lon="6.60445">
        <ele>1111.5999755859</ele>
        <time>2010-12-31T12:07:12.000Z</time>
      </trkpt>
      <trkpt lat="45.96123" lon="6.60456">
        <ele>1109</ele>
        <time>2010-12-31T12:07:15.000Z</time>
      </trkpt>
      <trkpt lat="45.96123" lon="6.60469">
        <ele>1106</ele>
        <time>2010-12-31T12:07:18.000Z</time>
      </trkpt>
      <trkpt lat="45.96119" lon="6.60478">
        <ele>1104.5999755859</ele>
        <time>2010-12-31T12:07:21.000Z</time>
      </trkpt>
      <trkpt lat="45.96117" lon="6.60508">
        <ele>1101</ele>
        <time>2010-12-31T12:07:25.000Z</time>
      </trkpt>
      <trkpt lat="45.96109" lon="6.6052">
        <ele>1097.4000244141</ele>
        <time>2010-12-31T12:07:28.000Z</time>
      </trkpt>
      <trkpt lat="45.96107" lon="6.60544">
        <ele>1092</ele>
        <time>2010-12-31T12:07:34.000Z</time>
      </trkpt>
      <trkpt lat="45.96102" lon="6.60545">
        <ele>1090.4000244141</ele>
        <time>2010-12-31T12:07:37.000Z</time>
      </trkpt>
      <trkpt lat="45.96096" lon="6.60548">
        <ele>1089.1999511719</ele>
        <time>2010-12-31T12:07:42.000Z</time>
      </trkpt>
      <trkpt lat="45.96095" lon="6.60548">
        <ele>1089</ele>
        <time>2010-12-31T12:07:43.000Z</time>
      </trkpt>
      <trkpt lat="45.96086" lon="6.60562">
        <ele>1088</ele>
        <time>2010-12-31T12:08:23.000Z</time>
      </trkpt>
      <trkpt lat="45.96091" lon="6.6057">
        <ele>1082</ele>
        <time>2010-12-31T12:08:42.000Z</time>
      </trkpt>
      <trkpt lat="45.96087" lon="6.60575">
        <ele>1081</ele>
        <time>2010-12-31T12:08:47.000Z</time>
      </trkpt>
      <trkpt lat="45.96087" lon="6.60576">
        <ele>1080.8000488281</ele>
        <time>2010-12-31T12:08:49.000Z</time>
      </trkpt>
      <trkpt lat="45.96079" lon="6.60576">
        <ele>1075</ele>
        <time>2010-12-31T12:09:01.000Z</time>
      </trkpt>
      <trkpt lat="45.96072" lon="6.60589">
        <ele>1077.8000488281</ele>
        <time>2010-12-31T12:09:40.000Z</time>
      </trkpt>
      <trkpt lat="45.96071" lon="6.6059">
        <ele>1077.8000488281</ele>
        <time>2010-12-31T12:09:43.000Z</time>
      </trkpt>
      <trkpt lat="45.96065" lon="6.60592">
        <ele>1078.4000244141</ele>
        <time>2010-12-31T12:09:57.000Z</time>
      </trkpt>
      <trkpt lat="45.96062" lon="6.60598">
        <ele>1077.1999511719</ele>
        <time>2010-12-31T12:10:49.000Z</time>
      </trkpt>
      <trkpt lat="45.96062" lon="6.60601">
        <ele>1077</ele>
        <time>2010-12-31T12:10:50.000Z</time>
      </trkpt>
      <trkpt lat="45.96063" lon="6.60603">
        <ele>1076.8000488281</ele>
        <time>2010-12-31T12:10:51.000Z</time>
      </trkpt>
      <trkpt lat="45.96063" lon="6.60618">
        <ele>1075.8000488281</ele>
        <time>2010-12-31T12:10:59.000Z</time>
      </trkpt>
      <trkpt lat="45.96062" lon="6.60621">
        <ele>1075.4000244141</ele>
        <time>2010-12-31T12:11:01.000Z</time>
      </trkpt>
      <trkpt lat="45.96059" lon="6.60626">
        <ele>1072.4000244141</ele>
        <time>2010-12-31T12:11:05.000Z</time>
      </trkpt>
      <trkpt lat="45.96059" lon="6.60629">
        <ele>1071.5999755859</ele>
        <time>2010-12-31T12:11:07.000Z</time>
      </trkpt>
      <trkpt lat="45.96056" lon="6.6064">
        <ele>1071.4000244141</ele>
        <time>2010-12-31T12:11:13.000Z</time>
      </trkpt>
      <trkpt lat="45.96053" lon="6.60648">
        <ele>1068.4000244141</ele>
        <time>2010-12-31T12:11:20.000Z</time>
      </trkpt>
      <trkpt lat="45.96054" lon="6.60652">
        <ele>1067.5999755859</ele>
        <time>2010-12-31T12:11:29.000Z</time>
      </trkpt>
      <trkpt lat="45.9605" lon="6.60665">
        <ele>1065</ele>
        <time>2010-12-31T12:11:36.000Z</time>
      </trkpt>
      <trkpt lat="45.96044" lon="6.60678">
        <ele>1064.5999755859</ele>
        <time>2010-12-31T12:11:44.000Z</time>
      </trkpt>
      <trkpt lat="45.96035" lon="6.60688">
        <ele>1065</ele>
        <time>2010-12-31T12:11:55.000Z</time>
      </trkpt>
      <trkpt lat="45.96027" lon="6.60688">
        <ele>1064.8000488281</ele>
        <time>2010-12-31T12:12:03.000Z</time>
      </trkpt>
      <trkpt lat="45.96024" lon="6.60686">
        <ele>1065.1999511719</ele>
        <time>2010-12-31T12:12:06.000Z</time>
      </trkpt>
      <trkpt lat="45.96016" lon="6.60683">
        <ele>1065</ele>
        <time>2010-12-31T12:13:01.000Z</time>
      </trkpt>
      <trkpt lat="45.96003" lon="6.60699">
        <ele>1063.1999511719</ele>
        <time>2010-12-31T12:13:06.000Z</time>
      </trkpt>
      <trkpt lat="45.95986" lon="6.60715">
        <ele>1062.1999511719</ele>
        <time>2010-12-31T12:13:13.000Z</time>
      </trkpt>
      <trkpt lat="45.9597" lon="6.60729">
        <ele>1060.5999755859</ele>
        <time>2010-12-31T12:13:19.000Z</time>
      </trkpt>
      <trkpt lat="45.95958" lon="6.60737">
        <ele>1060.4000244141</ele>
        <time>2010-12-31T12:13:25.000Z</time>
      </trkpt>
      <trkpt lat="45.95955" lon="6.60739">
        <ele>1059.8000488281</ele>
        <time>2010-12-31T12:13:26.000Z</time>
      </trkpt>
      <trkpt lat="45.95944" lon="6.6076">
        <ele>1056.1999511719</ele>
        <time>2010-12-31T12:13:31.000Z</time>
      </trkpt>
      <trkpt lat="45.95939" lon="6.60764">
        <ele>1054.5999755859</ele>
        <time>2010-12-31T12:13:33.000Z</time>
      </trkpt>
      <trkpt lat="45.95935" lon="6.60765">
        <ele>1053.5999755859</ele>
        <time>2010-12-31T12:13:36.000Z</time>
      </trkpt>
      <trkpt lat="45.95926" lon="6.6076">
        <ele>1051.5999755859</ele>
        <time>2010-12-31T12:13:51.000Z</time>
      </trkpt>
      <trkpt lat="45.95929" lon="6.6076">
        <ele>1054.8000488281</ele>
        <time>2010-12-31T12:13:53.000Z</time>
      </trkpt>
      <trkpt lat="45.9593" lon="6.60759">
        <ele>1052.5999755859</ele>
        <time>2010-12-31T12:13:55.000Z</time>
      </trkpt>
      <trkpt lat="45.95928" lon="6.60761">
        <ele>1053.1999511719</ele>
        <time>2010-12-31T12:14:18.000Z</time>
      </trkpt>
      <trkpt lat="45.95926" lon="6.60761">
        <ele>1052.5999755859</ele>
        <time>2010-12-31T12:14:20.000Z</time>
      </trkpt>
      <trkpt lat="45.95924" lon="6.60767">
        <ele>1051.4000244141</ele>
        <time>2010-12-31T12:14:24.000Z</time>
      </trkpt>
      <trkpt lat="45.95923" lon="6.60771">
        <ele>1051.5999755859</ele>
        <time>2010-12-31T12:14:26.000Z</time>
      </trkpt>
      <trkpt lat="45.95924" lon="6.60784">
        <ele>1048.5999755859</ele>
        <time>2010-12-31T12:14:34.000Z</time>
      </trkpt>
      <trkpt lat="45.95925" lon="6.60792">
        <ele>1047</ele>
        <time>2010-12-31T12:14:39.000Z</time>
      </trkpt>
      <trkpt lat="45.95923" lon="6.60803">
        <ele>1045.5999755859</ele>
        <time>2010-12-31T12:14:45.000Z</time>
      </trkpt>
      <trkpt lat="45.9592" lon="6.60816">
        <ele>1043.5999755859</ele>
        <time>2010-12-31T12:14:51.000Z</time>
      </trkpt>
      <trkpt lat="45.95917" lon="6.6083">
        <ele>1041.1999511719</ele>
        <time>2010-12-31T12:14:59.000Z</time>
      </trkpt>
      <trkpt lat="45.95913" lon="6.60841">
        <ele>1039.1999511719</ele>
        <time>2010-12-31T12:15:05.000Z</time>
      </trkpt>
      <trkpt lat="45.95908" lon="6.6085">
        <ele>1036.4000244141</ele>
        <time>2010-12-31T12:15:12.000Z</time>
      </trkpt>
      <trkpt lat="45.95899" lon="6.60858">
        <ele>1034.1999511719</ele>
        <time>2010-12-31T12:15:19.000Z</time>
      </trkpt>
      <trkpt lat="45.95893" lon="6.60865">
        <ele>1032.1999511719</ele>
        <time>2010-12-31T12:15:25.000Z</time>
      </trkpt>
      <trkpt lat="45.95886" lon="6.60878">
        <ele>1029.8000488281</ele>
        <time>2010-12-31T12:15:33.000Z</time>
      </trkpt>
      <trkpt lat="45.95879" lon="6.60892">
        <ele>1027</ele>
        <time>2010-12-31T12:15:42.000Z</time>
      </trkpt>
      <trkpt lat="45.95872" lon="6.60909">
        <ele>1024.1999511719</ele>
        <time>2010-12-31T12:15:52.000Z</time>
      </trkpt>
      <trkpt lat="45.95863" lon="6.60922">
        <ele>1021.200012207</ele>
        <time>2010-12-31T12:16:01.000Z</time>
      </trkpt>
      <trkpt lat="45.95852" lon="6.60932">
        <ele>1019.799987793</ele>
        <time>2010-12-31T12:16:10.000Z</time>
      </trkpt>
      <trkpt lat="45.95843" lon="6.6094">
        <ele>1017.4000244141</ele>
        <time>2010-12-31T12:16:18.000Z</time>
      </trkpt>
      <trkpt lat="45.95837" lon="6.60944">
        <ele>1017.4000244141</ele>
        <time>2010-12-31T12:16:25.000Z</time>
      </trkpt>
      <trkpt lat="45.95835" lon="6.60945">
        <ele>1018.799987793</ele>
        <time>2010-12-31T12:17:22.000Z</time>
      </trkpt>
      <trkpt lat="45.95825" lon="6.60955">
        <ele>1017.4000244141</ele>
        <time>2010-12-31T12:17:30.000Z</time>
      </trkpt>
      <trkpt lat="45.9582" lon="6.6096">
        <ele>1015.5999755859</ele>
        <time>2010-12-31T12:17:34.000Z</time>
      </trkpt>
      <trkpt lat="45.9581" lon="6.60968">
        <ele>1013.5999755859</ele>
        <time>2010-12-31T12:17:43.000Z</time>
      </trkpt>
      <trkpt lat="45.95799" lon="6.60979">
        <ele>1012.4000244141</ele>
        <time>2010-12-31T12:17:52.000Z</time>
      </trkpt>
      <trkpt lat="45.95788" lon="6.60988">
        <ele>1012.4000244141</ele>
        <time>2010-12-31T12:18:01.000Z</time>
      </trkpt>
      <trkpt lat="45.95777" lon="6.60995">
        <ele>1008.799987793</ele>
        <time>2010-12-31T12:18:10.000Z</time>
      </trkpt>
      <trkpt lat="45.95769" lon="6.61001">
        <ele>1010.5999755859</ele>
        <time>2010-12-31T12:18:17.000Z</time>
      </trkpt>
      <trkpt lat="45.95755" lon="6.61005">
        <ele>1010.4000244141</ele>
        <time>2010-12-31T12:18:27.000Z</time>
      </trkpt>
      <trkpt lat="45.95743" lon="6.61011">
        <ele>1009.4000244141</ele>
        <time>2010-12-31T12:18:37.000Z</time>
      </trkpt>
      <trkpt lat="45.95732" lon="6.61018">
        <ele>1007.799987793</ele>
        <time>2010-12-31T12:18:47.000Z</time>
      </trkpt>
      <trkpt lat="45.9572" lon="6.61025">
        <ele>1009.5999755859</ele>
        <time>2010-12-31T12:18:57.000Z</time>
      </trkpt>
      <trkpt lat="45.95712" lon="6.61031">
        <ele>1010</ele>
        <time>2010-12-31T12:19:05.000Z</time>
      </trkpt>
      <trkpt lat="45.95711" lon="6.61031">
        <ele>1009.4000244141</ele>
        <time>2010-12-31T12:19:08.000Z</time>
      </trkpt>
      <trkpt lat="45.9571" lon="6.61035">
        <ele>1009.4000244141</ele>
        <time>2010-12-31T12:19:13.000Z</time>
      </trkpt>
      <trkpt lat="45.95711" lon="6.61023">
        <ele>1009.799987793</ele>
        <time>2010-12-31T12:20:12.000Z</time>
      </trkpt>
    </trkseg>
  </trk>
</gpx>